<?xml version="1.0" encoding="UTF-8" standalone="no" ?>
<gpx xmlns="http://www.topografix.com/GPX/1/1" xmlns:xsi="http://www.w3.org/2001/XMLSchema-instance" xsi:schemaLocation="http://www.topografix.com/GPX/1/1 http://www.topografix.com/GPX/1/1/gpx.xsd" version="1.1" creator="VisuGPX - https://www.visugpx.com">
  <metadata>
    <name>Champagnat Cyclisme sur route</name>
  </metadata>
  <trk>
    <name><![CDATA[Champagnat Cyclisme sur route_1]]></name>
    <trkseg>
      <trkpt lat="46.48272" lon="5.36839">
        <ele>267.8</ele>
        <time>2021-11-15T13:13:56Z</time>
      </trkpt>
      <trkpt lat="46.48263" lon="5.36828">
        <ele>267.2</ele>
        <time>2021-11-15T13:13:57Z</time>
      </trkpt>
      <trkpt lat="46.48253" lon="5.36818">
        <ele>267</ele>
        <time>2021-11-15T13:13:58Z</time>
      </trkpt>
      <trkpt lat="46.48243" lon="5.36809">
        <ele>265.6</ele>
        <time>2021-11-15T13:13:59Z</time>
      </trkpt>
      <trkpt lat="46.48233" lon="5.368">
        <ele>264.2</ele>
        <time>2021-11-15T13:14:00Z</time>
      </trkpt>
      <trkpt lat="46.48212" lon="5.36783">
        <ele>262.2</ele>
        <time>2021-11-15T13:14:02Z</time>
      </trkpt>
      <trkpt lat="46.48192" lon="5.36766">
        <ele>260.6</ele>
        <time>2021-11-15T13:14:04Z</time>
      </trkpt>
      <trkpt lat="46.48171" lon="5.36749">
        <ele>259</ele>
        <time>2021-11-15T13:14:06Z</time>
      </trkpt>
      <trkpt lat="46.48151" lon="5.36733">
        <ele>257.8</ele>
        <time>2021-11-15T13:14:08Z</time>
      </trkpt>
      <trkpt lat="46.48131" lon="5.36719">
        <ele>256.6</ele>
        <time>2021-11-15T13:14:10Z</time>
      </trkpt>
      <trkpt lat="46.48122" lon="5.36712">
        <ele>256</ele>
        <time>2021-11-15T13:14:11Z</time>
      </trkpt>
      <trkpt lat="46.48115" lon="5.36705">
        <ele>255.6</ele>
        <time>2021-11-15T13:14:12Z</time>
      </trkpt>
      <trkpt lat="46.4811" lon="5.36697">
        <ele>254.6</ele>
        <time>2021-11-15T13:14:13Z</time>
      </trkpt>
      <trkpt lat="46.4811" lon="5.36688">
        <ele>254.4</ele>
        <time>2021-11-15T13:14:14Z</time>
      </trkpt>
      <trkpt lat="46.48112" lon="5.36678">
        <ele>253.4</ele>
        <time>2021-11-15T13:14:15Z</time>
      </trkpt>
      <trkpt lat="46.48117" lon="5.36671">
        <ele>252.8</ele>
        <time>2021-11-15T13:14:16Z</time>
      </trkpt>
      <trkpt lat="46.48131" lon="5.36658">
        <ele>251</ele>
        <time>2021-11-15T13:14:18Z</time>
      </trkpt>
      <trkpt lat="46.48145" lon="5.36646">
        <ele>249.6</ele>
        <time>2021-11-15T13:14:20Z</time>
      </trkpt>
      <trkpt lat="46.48152" lon="5.36639">
        <ele>249.4</ele>
        <time>2021-11-15T13:14:21Z</time>
      </trkpt>
      <trkpt lat="46.48159" lon="5.36631">
        <ele>248.8</ele>
        <time>2021-11-15T13:14:22Z</time>
      </trkpt>
      <trkpt lat="46.48167" lon="5.36623">
        <ele>248.4</ele>
        <time>2021-11-15T13:14:23Z</time>
      </trkpt>
      <trkpt lat="46.48182" lon="5.3661">
        <ele>248.2</ele>
        <time>2021-11-15T13:14:25Z</time>
      </trkpt>
      <trkpt lat="46.4819" lon="5.36606">
        <ele>248.2</ele>
        <time>2021-11-15T13:14:26Z</time>
      </trkpt>
      <trkpt lat="46.48206" lon="5.366">
        <ele>248</ele>
        <time>2021-11-15T13:14:28Z</time>
      </trkpt>
      <trkpt lat="46.48218" lon="5.36587">
        <ele>247.8</ele>
        <time>2021-11-15T13:14:30Z</time>
      </trkpt>
      <trkpt lat="46.48225" lon="5.36566">
        <ele>247.4</ele>
        <time>2021-11-15T13:14:32Z</time>
      </trkpt>
      <trkpt lat="46.4823" lon="5.36557">
        <ele>247.2</ele>
        <time>2021-11-15T13:14:33Z</time>
      </trkpt>
      <trkpt lat="46.48255" lon="5.36528">
        <ele>246.8</ele>
        <time>2021-11-15T13:14:37Z</time>
      </trkpt>
      <trkpt lat="46.48281" lon="5.365">
        <ele>246.2</ele>
        <time>2021-11-15T13:14:41Z</time>
      </trkpt>
      <trkpt lat="46.48315" lon="5.36463">
        <ele>245</ele>
        <time>2021-11-15T13:14:46Z</time>
      </trkpt>
      <trkpt lat="46.48321" lon="5.36455">
        <ele>244.8</ele>
        <time>2021-11-15T13:14:47Z</time>
      </trkpt>
      <trkpt lat="46.48342" lon="5.36433">
        <ele>244</ele>
        <time>2021-11-15T13:14:50Z</time>
      </trkpt>
      <trkpt lat="46.48377" lon="5.36395">
        <ele>242.8</ele>
        <time>2021-11-15T13:14:55Z</time>
      </trkpt>
      <trkpt lat="46.48383" lon="5.36387">
        <ele>242.6</ele>
        <time>2021-11-15T13:14:56Z</time>
      </trkpt>
      <trkpt lat="46.48412" lon="5.36361">
        <ele>241.8</ele>
        <time>2021-11-15T13:15:00Z</time>
      </trkpt>
      <trkpt lat="46.4842" lon="5.36357">
        <ele>241.6</ele>
        <time>2021-11-15T13:15:01Z</time>
      </trkpt>
      <trkpt lat="46.48458" lon="5.36346">
        <ele>240.6</ele>
        <time>2021-11-15T13:15:06Z</time>
      </trkpt>
      <trkpt lat="46.48504" lon="5.36339">
        <ele>240.4</ele>
        <time>2021-11-15T13:15:12Z</time>
      </trkpt>
      <trkpt lat="46.48525" lon="5.36335">
        <ele>240</ele>
        <time>2021-11-15T13:15:15Z</time>
      </trkpt>
      <trkpt lat="46.4857" lon="5.36327">
        <ele>239.6</ele>
        <time>2021-11-15T13:15:21Z</time>
      </trkpt>
      <trkpt lat="46.48578" lon="5.36326">
        <ele>239.4</ele>
        <time>2021-11-15T13:15:22Z</time>
      </trkpt>
      <trkpt lat="46.48601" lon="5.36323">
        <ele>239</ele>
        <time>2021-11-15T13:15:25Z</time>
      </trkpt>
      <trkpt lat="46.48617" lon="5.36317">
        <ele>238.8</ele>
        <time>2021-11-15T13:15:27Z</time>
      </trkpt>
      <trkpt lat="46.48624" lon="5.3631">
        <ele>238.6</ele>
        <time>2021-11-15T13:15:28Z</time>
      </trkpt>
      <trkpt lat="46.4863" lon="5.363">
        <ele>238.4</ele>
        <time>2021-11-15T13:15:29Z</time>
      </trkpt>
      <trkpt lat="46.48636" lon="5.36275">
        <ele>237.8</ele>
        <time>2021-11-15T13:15:31Z</time>
      </trkpt>
      <trkpt lat="46.48638" lon="5.36262">
        <ele>237.2</ele>
        <time>2021-11-15T13:15:32Z</time>
      </trkpt>
      <trkpt lat="46.48641" lon="5.36236">
        <ele>236</ele>
        <time>2021-11-15T13:15:34Z</time>
      </trkpt>
      <trkpt lat="46.48644" lon="5.36196">
        <ele>234.8</ele>
        <time>2021-11-15T13:15:37Z</time>
      </trkpt>
      <trkpt lat="46.48649" lon="5.36146">
        <ele>233.6</ele>
        <time>2021-11-15T13:15:41Z</time>
      </trkpt>
      <trkpt lat="46.48656" lon="5.36109">
        <ele>233</ele>
        <time>2021-11-15T13:15:44Z</time>
      </trkpt>
      <trkpt lat="46.4867" lon="5.36044">
        <ele>232.6</ele>
        <time>2021-11-15T13:15:50Z</time>
      </trkpt>
      <trkpt lat="46.48678" lon="5.35999">
        <ele>233</ele>
        <time>2021-11-15T13:15:55Z</time>
      </trkpt>
      <trkpt lat="46.48684" lon="5.35945">
        <ele>233.8</ele>
        <time>2021-11-15T13:16:01Z</time>
      </trkpt>
      <trkpt lat="46.48687" lon="5.35925">
        <ele>234</ele>
        <time>2021-11-15T13:16:03Z</time>
      </trkpt>
      <trkpt lat="46.48693" lon="5.35905">
        <ele>234</ele>
        <time>2021-11-15T13:16:05Z</time>
      </trkpt>
      <trkpt lat="46.48721" lon="5.35835">
        <ele>233.6</ele>
        <time>2021-11-15T13:16:12Z</time>
      </trkpt>
      <trkpt lat="46.48742" lon="5.35787">
        <ele>232.6</ele>
        <time>2021-11-15T13:16:17Z</time>
      </trkpt>
      <trkpt lat="46.48758" lon="5.35752">
        <ele>232</ele>
        <time>2021-11-15T13:16:21Z</time>
      </trkpt>
      <trkpt lat="46.48767" lon="5.35732">
        <ele>231.6</ele>
        <time>2021-11-15T13:16:23Z</time>
      </trkpt>
      <trkpt lat="46.48771" lon="5.35722">
        <ele>231.4</ele>
        <time>2021-11-15T13:16:24Z</time>
      </trkpt>
      <trkpt lat="46.48797" lon="5.35662">
        <ele>231</ele>
        <time>2021-11-15T13:16:31Z</time>
      </trkpt>
      <trkpt lat="46.48826" lon="5.35596">
        <ele>231</ele>
        <time>2021-11-15T13:16:39Z</time>
      </trkpt>
      <trkpt lat="46.48834" lon="5.35579">
        <ele>231</ele>
        <time>2021-11-15T13:16:41Z</time>
      </trkpt>
      <trkpt lat="46.48844" lon="5.35566">
        <ele>231</ele>
        <time>2021-11-15T13:16:43Z</time>
      </trkpt>
      <trkpt lat="46.48857" lon="5.35561">
        <ele>231</ele>
        <time>2021-11-15T13:16:45Z</time>
      </trkpt>
      <trkpt lat="46.48864" lon="5.3556">
        <ele>231</ele>
        <time>2021-11-15T13:16:46Z</time>
      </trkpt>
      <trkpt lat="46.48919" lon="5.35558">
        <ele>230.4</ele>
        <time>2021-11-15T13:16:53Z</time>
      </trkpt>
      <trkpt lat="46.48977" lon="5.35555">
        <ele>229.4</ele>
        <time>2021-11-15T13:17:00Z</time>
      </trkpt>
      <trkpt lat="46.48985" lon="5.35554">
        <ele>229.2</ele>
        <time>2021-11-15T13:17:01Z</time>
      </trkpt>
      <trkpt lat="46.49025" lon="5.35552">
        <ele>228.2</ele>
        <time>2021-11-15T13:17:06Z</time>
      </trkpt>
      <trkpt lat="46.4904" lon="5.35551">
        <ele>228.2</ele>
        <time>2021-11-15T13:17:08Z</time>
      </trkpt>
      <trkpt lat="46.49074" lon="5.3555">
        <ele>228.2</ele>
        <time>2021-11-15T13:17:13Z</time>
      </trkpt>
      <trkpt lat="46.49103" lon="5.35549">
        <ele>228.8</ele>
        <time>2021-11-15T13:17:18Z</time>
      </trkpt>
      <trkpt lat="46.49143" lon="5.35547">
        <ele>229.4</ele>
        <time>2021-11-15T13:17:25Z</time>
      </trkpt>
      <trkpt lat="46.4917" lon="5.35546">
        <ele>230</ele>
        <time>2021-11-15T13:17:30Z</time>
      </trkpt>
      <trkpt lat="46.4918" lon="5.35545">
        <ele>230.6</ele>
        <time>2021-11-15T13:17:32Z</time>
      </trkpt>
      <trkpt lat="46.49196" lon="5.35543">
        <ele>231</ele>
        <time>2021-11-15T13:17:35Z</time>
      </trkpt>
      <trkpt lat="46.49214" lon="5.35542">
        <ele>231.6</ele>
        <time>2021-11-15T13:17:38Z</time>
      </trkpt>
      <trkpt lat="46.49234" lon="5.35541">
        <ele>231.8</ele>
        <time>2021-11-15T13:17:41Z</time>
      </trkpt>
      <trkpt lat="46.49275" lon="5.35539">
        <ele>232.2</ele>
        <time>2021-11-15T13:17:47Z</time>
      </trkpt>
      <trkpt lat="46.4929" lon="5.35538">
        <ele>232.2</ele>
        <time>2021-11-15T13:17:49Z</time>
      </trkpt>
      <trkpt lat="46.49348" lon="5.35535">
        <ele>232</ele>
        <time>2021-11-15T13:17:57Z</time>
      </trkpt>
      <trkpt lat="46.49356" lon="5.35535">
        <ele>232</ele>
        <time>2021-11-15T13:17:58Z</time>
      </trkpt>
      <trkpt lat="46.49404" lon="5.3554">
        <ele>231.4</ele>
        <time>2021-11-15T13:18:04Z</time>
      </trkpt>
      <trkpt lat="46.49411" lon="5.35543">
        <ele>231.2</ele>
        <time>2021-11-15T13:18:05Z</time>
      </trkpt>
      <trkpt lat="46.49447" lon="5.35558">
        <ele>230.4</ele>
        <time>2021-11-15T13:18:10Z</time>
      </trkpt>
      <trkpt lat="46.49495" lon="5.35577">
        <ele>229.8</ele>
        <time>2021-11-15T13:18:17Z</time>
      </trkpt>
      <trkpt lat="46.49537" lon="5.35595">
        <ele>229.4</ele>
        <time>2021-11-15T13:18:23Z</time>
      </trkpt>
      <trkpt lat="46.49565" lon="5.35606">
        <ele>229</ele>
        <time>2021-11-15T13:18:27Z</time>
      </trkpt>
      <trkpt lat="46.49608" lon="5.3562">
        <ele>228.2</ele>
        <time>2021-11-15T13:18:33Z</time>
      </trkpt>
      <trkpt lat="46.49637" lon="5.35628">
        <ele>227.4</ele>
        <time>2021-11-15T13:18:37Z</time>
      </trkpt>
      <trkpt lat="46.49644" lon="5.3563">
        <ele>227.2</ele>
        <time>2021-11-15T13:18:38Z</time>
      </trkpt>
      <trkpt lat="46.49694" lon="5.35645">
        <ele>226.2</ele>
        <time>2021-11-15T13:18:46Z</time>
      </trkpt>
      <trkpt lat="46.49698" lon="5.35643">
        <ele>225.8</ele>
        <time>2021-11-15T13:18:48Z</time>
      </trkpt>
      <trkpt lat="46.49699" lon="5.35641">
        <ele>225.4</ele>
        <time>2021-11-15T13:18:49Z</time>
      </trkpt>
      <trkpt lat="46.49702" lon="5.35636">
        <ele>225</ele>
        <time>2021-11-15T13:18:51Z</time>
      </trkpt>
      <trkpt lat="46.49707" lon="5.35626">
        <ele>224.8</ele>
        <time>2021-11-15T13:18:53Z</time>
      </trkpt>
      <trkpt lat="46.49709" lon="5.3561">
        <ele>224.6</ele>
        <time>2021-11-15T13:18:55Z</time>
      </trkpt>
      <trkpt lat="46.49711" lon="5.35592">
        <ele>224.4</ele>
        <time>2021-11-15T13:18:57Z</time>
      </trkpt>
      <trkpt lat="46.49718" lon="5.3554">
        <ele>224</ele>
        <time>2021-11-15T13:19:02Z</time>
      </trkpt>
      <trkpt lat="46.49727" lon="5.35456">
        <ele>224</ele>
        <time>2021-11-15T13:19:10Z</time>
      </trkpt>
      <trkpt lat="46.49737" lon="5.35368">
        <ele>223.2</ele>
        <time>2021-11-15T13:19:18Z</time>
      </trkpt>
      <trkpt lat="46.49737" lon="5.35357">
        <ele>223</ele>
        <time>2021-11-15T13:19:19Z</time>
      </trkpt>
      <trkpt lat="46.49732" lon="5.35304">
        <ele>222.6</ele>
        <time>2021-11-15T13:19:24Z</time>
      </trkpt>
      <trkpt lat="46.49721" lon="5.35251">
        <ele>223</ele>
        <time>2021-11-15T13:19:30Z</time>
      </trkpt>
      <trkpt lat="46.49709" lon="5.35189">
        <ele>223.6</ele>
        <time>2021-11-15T13:19:37Z</time>
      </trkpt>
      <trkpt lat="46.49693" lon="5.35112">
        <ele>223.2</ele>
        <time>2021-11-15T13:19:45Z</time>
      </trkpt>
      <trkpt lat="46.49691" lon="5.35102">
        <ele>223.2</ele>
        <time>2021-11-15T13:19:46Z</time>
      </trkpt>
      <trkpt lat="46.49675" lon="5.35027">
        <ele>223</ele>
        <time>2021-11-15T13:19:54Z</time>
      </trkpt>
      <trkpt lat="46.49663" lon="5.34969">
        <ele>223.6</ele>
        <time>2021-11-15T13:20:01Z</time>
      </trkpt>
      <trkpt lat="46.49661" lon="5.34961">
        <ele>223.8</ele>
        <time>2021-11-15T13:20:02Z</time>
      </trkpt>
      <trkpt lat="46.49649" lon="5.34895">
        <ele>224.8</ele>
        <time>2021-11-15T13:20:10Z</time>
      </trkpt>
      <trkpt lat="46.49646" lon="5.34878">
        <ele>224.8</ele>
        <time>2021-11-15T13:20:12Z</time>
      </trkpt>
      <trkpt lat="46.49635" lon="5.3483">
        <ele>225</ele>
        <time>2021-11-15T13:20:18Z</time>
      </trkpt>
      <trkpt lat="46.49632" lon="5.34792">
        <ele>224.8</ele>
        <time>2021-11-15T13:20:22Z</time>
      </trkpt>
      <trkpt lat="46.49631" lon="5.34735">
        <ele>224.2</ele>
        <time>2021-11-15T13:20:27Z</time>
      </trkpt>
      <trkpt lat="46.49633" lon="5.3471">
        <ele>223.8</ele>
        <time>2021-11-15T13:20:29Z</time>
      </trkpt>
      <trkpt lat="46.49637" lon="5.34659">
        <ele>222.6</ele>
        <time>2021-11-15T13:20:33Z</time>
      </trkpt>
      <trkpt lat="46.49638" lon="5.34646">
        <ele>222.2</ele>
        <time>2021-11-15T13:20:34Z</time>
      </trkpt>
      <trkpt lat="46.49641" lon="5.34618">
        <ele>220.8</ele>
        <time>2021-11-15T13:20:36Z</time>
      </trkpt>
      <trkpt lat="46.49648" lon="5.34565">
        <ele>219.6</ele>
        <time>2021-11-15T13:20:40Z</time>
      </trkpt>
      <trkpt lat="46.49655" lon="5.34528">
        <ele>218.2</ele>
        <time>2021-11-15T13:20:43Z</time>
      </trkpt>
      <trkpt lat="46.49671" lon="5.34467">
        <ele>217.8</ele>
        <time>2021-11-15T13:20:49Z</time>
      </trkpt>
      <trkpt lat="46.49689" lon="5.34405">
        <ele>218.8</ele>
        <time>2021-11-15T13:20:56Z</time>
      </trkpt>
      <trkpt lat="46.4969" lon="5.34397">
        <ele>218.8</ele>
        <time>2021-11-15T13:20:57Z</time>
      </trkpt>
      <trkpt lat="46.49697" lon="5.34372">
        <ele>219.2</ele>
        <time>2021-11-15T13:21:00Z</time>
      </trkpt>
      <trkpt lat="46.49708" lon="5.34334">
        <ele>220.4</ele>
        <time>2021-11-15T13:21:05Z</time>
      </trkpt>
      <trkpt lat="46.49714" lon="5.34318">
        <ele>220.8</ele>
        <time>2021-11-15T13:21:07Z</time>
      </trkpt>
      <trkpt lat="46.49723" lon="5.34296">
        <ele>221.4</ele>
        <time>2021-11-15T13:21:10Z</time>
      </trkpt>
      <trkpt lat="46.49743" lon="5.34257">
        <ele>222</ele>
        <time>2021-11-15T13:21:15Z</time>
      </trkpt>
      <trkpt lat="46.4978" lon="5.34195">
        <ele>222.2</ele>
        <time>2021-11-15T13:21:24Z</time>
      </trkpt>
      <trkpt lat="46.49796" lon="5.34169">
        <ele>222.4</ele>
        <time>2021-11-15T13:21:28Z</time>
      </trkpt>
      <trkpt lat="46.49811" lon="5.34144">
        <ele>222.6</ele>
        <time>2021-11-15T13:21:32Z</time>
      </trkpt>
      <trkpt lat="46.49848" lon="5.34085">
        <ele>222.8</ele>
        <time>2021-11-15T13:21:41Z</time>
      </trkpt>
      <trkpt lat="46.49858" lon="5.34071">
        <ele>222.6</ele>
        <time>2021-11-15T13:21:43Z</time>
      </trkpt>
      <trkpt lat="46.49899" lon="5.34021">
        <ele>222.2</ele>
        <time>2021-11-15T13:21:51Z</time>
      </trkpt>
      <trkpt lat="46.49937" lon="5.33979">
        <ele>222.8</ele>
        <time>2021-11-15T13:21:59Z</time>
      </trkpt>
      <trkpt lat="46.49955" lon="5.33959">
        <ele>223.4</ele>
        <time>2021-11-15T13:22:03Z</time>
      </trkpt>
      <trkpt lat="46.49974" lon="5.33939">
        <ele>224.2</ele>
        <time>2021-11-15T13:22:07Z</time>
      </trkpt>
      <trkpt lat="46.49983" lon="5.33929">
        <ele>224.4</ele>
        <time>2021-11-15T13:22:09Z</time>
      </trkpt>
      <trkpt lat="46.49994" lon="5.33918">
        <ele>224.8</ele>
        <time>2021-11-15T13:22:11Z</time>
      </trkpt>
      <trkpt lat="46.50009" lon="5.33901">
        <ele>225</ele>
        <time>2021-11-15T13:22:14Z</time>
      </trkpt>
      <trkpt lat="46.50054" lon="5.33853">
        <ele>225.4</ele>
        <time>2021-11-15T13:22:22Z</time>
      </trkpt>
      <trkpt lat="46.50103" lon="5.33799">
        <ele>224.4</ele>
        <time>2021-11-15T13:22:30Z</time>
      </trkpt>
      <trkpt lat="46.50129" lon="5.33773">
        <ele>223.4</ele>
        <time>2021-11-15T13:22:34Z</time>
      </trkpt>
      <trkpt lat="46.50152" lon="5.33749">
        <ele>222.6</ele>
        <time>2021-11-15T13:22:38Z</time>
      </trkpt>
      <trkpt lat="46.50186" lon="5.33713">
        <ele>222.8</ele>
        <time>2021-11-15T13:22:44Z</time>
      </trkpt>
      <trkpt lat="46.50208" lon="5.33691">
        <ele>222.6</ele>
        <time>2021-11-15T13:22:48Z</time>
      </trkpt>
      <trkpt lat="46.50225" lon="5.33674">
        <ele>223</ele>
        <time>2021-11-15T13:22:51Z</time>
      </trkpt>
      <trkpt lat="46.50269" lon="5.33624">
        <ele>223</ele>
        <time>2021-11-15T13:22:59Z</time>
      </trkpt>
      <trkpt lat="46.50274" lon="5.33618">
        <ele>222.8</ele>
        <time>2021-11-15T13:23:00Z</time>
      </trkpt>
      <trkpt lat="46.50319" lon="5.33568">
        <ele>222.4</ele>
        <time>2021-11-15T13:23:08Z</time>
      </trkpt>
      <trkpt lat="46.5033" lon="5.33556">
        <ele>222</ele>
        <time>2021-11-15T13:23:10Z</time>
      </trkpt>
      <trkpt lat="46.50336" lon="5.33551">
        <ele>222</ele>
        <time>2021-11-15T13:23:11Z</time>
      </trkpt>
      <trkpt lat="46.50382" lon="5.33503">
        <ele>221.2</ele>
        <time>2021-11-15T13:23:19Z</time>
      </trkpt>
      <trkpt lat="46.50387" lon="5.33497">
        <ele>221</ele>
        <time>2021-11-15T13:23:20Z</time>
      </trkpt>
      <trkpt lat="46.50393" lon="5.33491">
        <ele>220.8</ele>
        <time>2021-11-15T13:23:21Z</time>
      </trkpt>
      <trkpt lat="46.50439" lon="5.33439">
        <ele>220.2</ele>
        <time>2021-11-15T13:23:29Z</time>
      </trkpt>
      <trkpt lat="46.50449" lon="5.33423">
        <ele>219.8</ele>
        <time>2021-11-15T13:23:31Z</time>
      </trkpt>
      <trkpt lat="46.50454" lon="5.33414">
        <ele>219.8</ele>
        <time>2021-11-15T13:23:32Z</time>
      </trkpt>
      <trkpt lat="46.50463" lon="5.33384">
        <ele>219.4</ele>
        <time>2021-11-15T13:23:35Z</time>
      </trkpt>
      <trkpt lat="46.50465" lon="5.33374">
        <ele>219.2</ele>
        <time>2021-11-15T13:23:36Z</time>
      </trkpt>
      <trkpt lat="46.50468" lon="5.33331">
        <ele>219</ele>
        <time>2021-11-15T13:23:40Z</time>
      </trkpt>
      <trkpt lat="46.50469" lon="5.3329">
        <ele>218.6</ele>
        <time>2021-11-15T13:23:44Z</time>
      </trkpt>
      <trkpt lat="46.5047" lon="5.33271">
        <ele>218.6</ele>
        <time>2021-11-15T13:23:46Z</time>
      </trkpt>
      <trkpt lat="46.50471" lon="5.33214">
        <ele>218.8</ele>
        <time>2021-11-15T13:23:52Z</time>
      </trkpt>
      <trkpt lat="46.50473" lon="5.33142">
        <ele>219</ele>
        <time>2021-11-15T13:23:59Z</time>
      </trkpt>
      <trkpt lat="46.50474" lon="5.33081">
        <ele>218.4</ele>
        <time>2021-11-15T13:24:04Z</time>
      </trkpt>
      <trkpt lat="46.50474" lon="5.33042">
        <ele>217.2</ele>
        <time>2021-11-15T13:24:07Z</time>
      </trkpt>
      <trkpt lat="46.50474" lon="5.32986">
        <ele>215.6</ele>
        <time>2021-11-15T13:24:11Z</time>
      </trkpt>
      <trkpt lat="46.50475" lon="5.32946">
        <ele>214</ele>
        <time>2021-11-15T13:24:14Z</time>
      </trkpt>
      <trkpt lat="46.50475" lon="5.32886">
        <ele>212.2</ele>
        <time>2021-11-15T13:24:18Z</time>
      </trkpt>
      <trkpt lat="46.50476" lon="5.32843">
        <ele>211.2</ele>
        <time>2021-11-15T13:24:21Z</time>
      </trkpt>
      <trkpt lat="46.50477" lon="5.32816">
        <ele>209.8</ele>
        <time>2021-11-15T13:24:23Z</time>
      </trkpt>
      <trkpt lat="46.50478" lon="5.32776">
        <ele>208.6</ele>
        <time>2021-11-15T13:24:26Z</time>
      </trkpt>
      <trkpt lat="46.50478" lon="5.32751">
        <ele>208</ele>
        <time>2021-11-15T13:24:28Z</time>
      </trkpt>
      <trkpt lat="46.50478" lon="5.32738">
        <ele>207.4</ele>
        <time>2021-11-15T13:24:29Z</time>
      </trkpt>
      <trkpt lat="46.5048" lon="5.32654">
        <ele>206.4</ele>
        <time>2021-11-15T13:24:36Z</time>
      </trkpt>
      <trkpt lat="46.5048" lon="5.32633">
        <ele>206.2</ele>
        <time>2021-11-15T13:24:38Z</time>
      </trkpt>
      <trkpt lat="46.50479" lon="5.32573">
        <ele>205.2</ele>
        <time>2021-11-15T13:24:43Z</time>
      </trkpt>
      <trkpt lat="46.50478" lon="5.32561">
        <ele>205</ele>
        <time>2021-11-15T13:24:44Z</time>
      </trkpt>
      <trkpt lat="46.50474" lon="5.32481">
        <ele>204.2</ele>
        <time>2021-11-15T13:24:51Z</time>
      </trkpt>
      <trkpt lat="46.50473" lon="5.3247">
        <ele>204</ele>
        <time>2021-11-15T13:24:52Z</time>
      </trkpt>
      <trkpt lat="46.50465" lon="5.32416">
        <ele>203</ele>
        <time>2021-11-15T13:24:57Z</time>
      </trkpt>
      <trkpt lat="46.50462" lon="5.32403">
        <ele>203</ele>
        <time>2021-11-15T13:24:58Z</time>
      </trkpt>
      <trkpt lat="46.50444" lon="5.32321">
        <ele>202.6</ele>
        <time>2021-11-15T13:25:06Z</time>
      </trkpt>
      <trkpt lat="46.50438" lon="5.32289">
        <ele>202.6</ele>
        <time>2021-11-15T13:25:09Z</time>
      </trkpt>
      <trkpt lat="46.50434" lon="5.32227">
        <ele>202.4</ele>
        <time>2021-11-15T13:25:15Z</time>
      </trkpt>
      <trkpt lat="46.50435" lon="5.32145">
        <ele>202</ele>
        <time>2021-11-15T13:25:22Z</time>
      </trkpt>
      <trkpt lat="46.50435" lon="5.32133">
        <ele>202</ele>
        <time>2021-11-15T13:25:23Z</time>
      </trkpt>
      <trkpt lat="46.50436" lon="5.32122">
        <ele>201.8</ele>
        <time>2021-11-15T13:25:24Z</time>
      </trkpt>
      <trkpt lat="46.50438" lon="5.32041">
        <ele>200.8</ele>
        <time>2021-11-15T13:25:31Z</time>
      </trkpt>
      <trkpt lat="46.50439" lon="5.32006">
        <ele>200.4</ele>
        <time>2021-11-15T13:25:34Z</time>
      </trkpt>
      <trkpt lat="46.5044" lon="5.31939">
        <ele>199.8</ele>
        <time>2021-11-15T13:25:40Z</time>
      </trkpt>
      <trkpt lat="46.50441" lon="5.31906">
        <ele>199.4</ele>
        <time>2021-11-15T13:25:43Z</time>
      </trkpt>
      <trkpt lat="46.50439" lon="5.31864">
        <ele>199.2</ele>
        <time>2021-11-15T13:25:47Z</time>
      </trkpt>
      <trkpt lat="46.50437" lon="5.31856">
        <ele>199.2</ele>
        <time>2021-11-15T13:25:48Z</time>
      </trkpt>
      <trkpt lat="46.50419" lon="5.31774">
        <ele>199</ele>
        <time>2021-11-15T13:25:56Z</time>
      </trkpt>
      <trkpt lat="46.50399" lon="5.31721">
        <ele>198.8</ele>
        <time>2021-11-15T13:26:02Z</time>
      </trkpt>
      <trkpt lat="46.50365" lon="5.31665">
        <ele>198.6</ele>
        <time>2021-11-15T13:26:09Z</time>
      </trkpt>
      <trkpt lat="46.50359" lon="5.31658">
        <ele>198.4</ele>
        <time>2021-11-15T13:26:10Z</time>
      </trkpt>
      <trkpt lat="46.5034" lon="5.31642">
        <ele>198</ele>
        <time>2021-11-15T13:26:13Z</time>
      </trkpt>
      <trkpt lat="46.50307" lon="5.31617">
        <ele>197.6</ele>
        <time>2021-11-15T13:26:18Z</time>
      </trkpt>
      <trkpt lat="46.50268" lon="5.31585">
        <ele>197.2</ele>
        <time>2021-11-15T13:26:24Z</time>
      </trkpt>
      <trkpt lat="46.50229" lon="5.31537">
        <ele>197.2</ele>
        <time>2021-11-15T13:26:32Z</time>
      </trkpt>
      <trkpt lat="46.50216" lon="5.31509">
        <ele>197.6</ele>
        <time>2021-11-15T13:26:36Z</time>
      </trkpt>
      <trkpt lat="46.5021" lon="5.31494">
        <ele>197.8</ele>
        <time>2021-11-15T13:26:38Z</time>
      </trkpt>
      <trkpt lat="46.50202" lon="5.31469">
        <ele>198.2</ele>
        <time>2021-11-15T13:26:42Z</time>
      </trkpt>
      <trkpt lat="46.50198" lon="5.31455">
        <ele>198.8</ele>
        <time>2021-11-15T13:26:44Z</time>
      </trkpt>
      <trkpt lat="46.5019" lon="5.3143">
        <ele>200</ele>
        <time>2021-11-15T13:26:48Z</time>
      </trkpt>
      <trkpt lat="46.50182" lon="5.31409">
        <ele>201.2</ele>
        <time>2021-11-15T13:26:52Z</time>
      </trkpt>
      <trkpt lat="46.50177" lon="5.31395">
        <ele>201.8</ele>
        <time>2021-11-15T13:26:55Z</time>
      </trkpt>
      <trkpt lat="46.50173" lon="5.31384">
        <ele>202.2</ele>
        <time>2021-11-15T13:26:57Z</time>
      </trkpt>
      <trkpt lat="46.50163" lon="5.31357">
        <ele>203.4</ele>
        <time>2021-11-15T13:27:02Z</time>
      </trkpt>
      <trkpt lat="46.50149" lon="5.31318">
        <ele>204.6</ele>
        <time>2021-11-15T13:27:08Z</time>
      </trkpt>
      <trkpt lat="46.50127" lon="5.3125">
        <ele>205.4</ele>
        <time>2021-11-15T13:27:17Z</time>
      </trkpt>
      <trkpt lat="46.50106" lon="5.31187">
        <ele>205</ele>
        <time>2021-11-15T13:27:24Z</time>
      </trkpt>
      <trkpt lat="46.5008" lon="5.31111">
        <ele>203.6</ele>
        <time>2021-11-15T13:27:32Z</time>
      </trkpt>
      <trkpt lat="46.50077" lon="5.31102">
        <ele>203.4</ele>
        <time>2021-11-15T13:27:33Z</time>
      </trkpt>
      <trkpt lat="46.50061" lon="5.31055">
        <ele>203.4</ele>
        <time>2021-11-15T13:27:39Z</time>
      </trkpt>
      <trkpt lat="46.50046" lon="5.31013">
        <ele>204.6</ele>
        <time>2021-11-15T13:27:46Z</time>
      </trkpt>
      <trkpt lat="46.50036" lon="5.30987">
        <ele>205.8</ele>
        <time>2021-11-15T13:27:51Z</time>
      </trkpt>
      <trkpt lat="46.50031" lon="5.30976">
        <ele>206.4</ele>
        <time>2021-11-15T13:27:53Z</time>
      </trkpt>
      <trkpt lat="46.50025" lon="5.30959">
        <ele>207.2</ele>
        <time>2021-11-15T13:27:56Z</time>
      </trkpt>
      <trkpt lat="46.50016" lon="5.30936">
        <ele>208.4</ele>
        <time>2021-11-15T13:28:00Z</time>
      </trkpt>
      <trkpt lat="46.5001" lon="5.30919">
        <ele>209.2</ele>
        <time>2021-11-15T13:28:03Z</time>
      </trkpt>
      <trkpt lat="46.50006" lon="5.30909">
        <ele>209.6</ele>
        <time>2021-11-15T13:28:05Z</time>
      </trkpt>
      <trkpt lat="46.49998" lon="5.30881">
        <ele>210.6</ele>
        <time>2021-11-15T13:28:10Z</time>
      </trkpt>
      <trkpt lat="46.49992" lon="5.30865">
        <ele>211.2</ele>
        <time>2021-11-15T13:28:13Z</time>
      </trkpt>
      <trkpt lat="46.49986" lon="5.30847">
        <ele>212</ele>
        <time>2021-11-15T13:28:16Z</time>
      </trkpt>
      <trkpt lat="46.49976" lon="5.30817">
        <ele>213.2</ele>
        <time>2021-11-15T13:28:21Z</time>
      </trkpt>
      <trkpt lat="46.49973" lon="5.30804">
        <ele>213.6</ele>
        <time>2021-11-15T13:28:23Z</time>
      </trkpt>
      <trkpt lat="46.49966" lon="5.30773">
        <ele>214.4</ele>
        <time>2021-11-15T13:28:28Z</time>
      </trkpt>
      <trkpt lat="46.49962" lon="5.30754">
        <ele>214.6</ele>
        <time>2021-11-15T13:28:31Z</time>
      </trkpt>
      <trkpt lat="46.49961" lon="5.30748">
        <ele>215</ele>
        <time>2021-11-15T13:28:32Z</time>
      </trkpt>
      <trkpt lat="46.49955" lon="5.30713">
        <ele>215.4</ele>
        <time>2021-11-15T13:28:37Z</time>
      </trkpt>
      <trkpt lat="46.49948" lon="5.30679">
        <ele>215.4</ele>
        <time>2021-11-15T13:28:41Z</time>
      </trkpt>
      <trkpt lat="46.49938" lon="5.30621">
        <ele>214.8</ele>
        <time>2021-11-15T13:28:47Z</time>
      </trkpt>
      <trkpt lat="46.49935" lon="5.30588">
        <ele>214</ele>
        <time>2021-11-15T13:28:50Z</time>
      </trkpt>
      <trkpt lat="46.49935" lon="5.30556">
        <ele>213.2</ele>
        <time>2021-11-15T13:28:53Z</time>
      </trkpt>
      <trkpt lat="46.49939" lon="5.3053">
        <ele>213</ele>
        <time>2021-11-15T13:28:55Z</time>
      </trkpt>
      <trkpt lat="46.49944" lon="5.3051">
        <ele>212.2</ele>
        <time>2021-11-15T13:28:57Z</time>
      </trkpt>
      <trkpt lat="46.49952" lon="5.30488">
        <ele>211.6</ele>
        <time>2021-11-15T13:28:59Z</time>
      </trkpt>
      <trkpt lat="46.49963" lon="5.30467">
        <ele>211.2</ele>
        <time>2021-11-15T13:29:01Z</time>
      </trkpt>
      <trkpt lat="46.49983" lon="5.30443">
        <ele>210.6</ele>
        <time>2021-11-15T13:29:04Z</time>
      </trkpt>
      <trkpt lat="46.4999" lon="5.30436">
        <ele>210.4</ele>
        <time>2021-11-15T13:29:05Z</time>
      </trkpt>
      <trkpt lat="46.50005" lon="5.30424">
        <ele>209.4</ele>
        <time>2021-11-15T13:29:07Z</time>
      </trkpt>
      <trkpt lat="46.50034" lon="5.30402">
        <ele>208.4</ele>
        <time>2021-11-15T13:29:11Z</time>
      </trkpt>
      <trkpt lat="46.50041" lon="5.30396">
        <ele>208.2</ele>
        <time>2021-11-15T13:29:12Z</time>
      </trkpt>
      <trkpt lat="46.50063" lon="5.30367">
        <ele>207.2</ele>
        <time>2021-11-15T13:29:16Z</time>
      </trkpt>
      <trkpt lat="46.50067" lon="5.30359">
        <ele>207.2</ele>
        <time>2021-11-15T13:29:17Z</time>
      </trkpt>
      <trkpt lat="46.50082" lon="5.30319">
        <ele>207</ele>
        <time>2021-11-15T13:29:22Z</time>
      </trkpt>
      <trkpt lat="46.50086" lon="5.30303">
        <ele>207.2</ele>
        <time>2021-11-15T13:29:24Z</time>
      </trkpt>
      <trkpt lat="46.5009" lon="5.30279">
        <ele>207.4</ele>
        <time>2021-11-15T13:29:27Z</time>
      </trkpt>
      <trkpt lat="46.5009" lon="5.30271">
        <ele>207.6</ele>
        <time>2021-11-15T13:29:28Z</time>
      </trkpt>
      <trkpt lat="46.50091" lon="5.3021">
        <ele>208.2</ele>
        <time>2021-11-15T13:29:35Z</time>
      </trkpt>
      <trkpt lat="46.50091" lon="5.302">
        <ele>208.6</ele>
        <time>2021-11-15T13:29:36Z</time>
      </trkpt>
      <trkpt lat="46.50091" lon="5.30164">
        <ele>209</ele>
        <time>2021-11-15T13:29:40Z</time>
      </trkpt>
      <trkpt lat="46.50091" lon="5.3013">
        <ele>209.6</ele>
        <time>2021-11-15T13:29:44Z</time>
      </trkpt>
      <trkpt lat="46.50091" lon="5.30087">
        <ele>210.2</ele>
        <time>2021-11-15T13:29:49Z</time>
      </trkpt>
      <trkpt lat="46.50091" lon="5.30045">
        <ele>210.6</ele>
        <time>2021-11-15T13:29:54Z</time>
      </trkpt>
      <trkpt lat="46.50089" lon="5.3002">
        <ele>210.8</ele>
        <time>2021-11-15T13:29:57Z</time>
      </trkpt>
      <trkpt lat="46.50079" lon="5.2996">
        <ele>210.8</ele>
        <time>2021-11-15T13:30:04Z</time>
      </trkpt>
      <trkpt lat="46.50061" lon="5.29919">
        <ele>210.6</ele>
        <time>2021-11-15T13:30:09Z</time>
      </trkpt>
      <trkpt lat="46.50034" lon="5.29883">
        <ele>210</ele>
        <time>2021-11-15T13:30:14Z</time>
      </trkpt>
      <trkpt lat="46.50016" lon="5.29864">
        <ele>209.8</ele>
        <time>2021-11-15T13:30:17Z</time>
      </trkpt>
      <trkpt lat="46.50001" lon="5.29855">
        <ele>209.6</ele>
        <time>2021-11-15T13:30:19Z</time>
      </trkpt>
      <trkpt lat="46.49963" lon="5.2985">
        <ele>209.2</ele>
        <time>2021-11-15T13:30:24Z</time>
      </trkpt>
      <trkpt lat="46.49921" lon="5.29837">
        <ele>209.4</ele>
        <time>2021-11-15T13:30:30Z</time>
      </trkpt>
      <trkpt lat="46.49878" lon="5.29819">
        <ele>210.6</ele>
        <time>2021-11-15T13:30:37Z</time>
      </trkpt>
      <trkpt lat="46.49848" lon="5.29807">
        <ele>211.6</ele>
        <time>2021-11-15T13:30:42Z</time>
      </trkpt>
      <trkpt lat="46.49836" lon="5.29803">
        <ele>212</ele>
        <time>2021-11-15T13:30:44Z</time>
      </trkpt>
      <trkpt lat="46.4978" lon="5.29787">
        <ele>212.8</ele>
        <time>2021-11-15T13:30:53Z</time>
      </trkpt>
      <trkpt lat="46.49767" lon="5.29785">
        <ele>212.8</ele>
        <time>2021-11-15T13:30:55Z</time>
      </trkpt>
      <trkpt lat="46.4976" lon="5.29784">
        <ele>213</ele>
        <time>2021-11-15T13:30:56Z</time>
      </trkpt>
      <trkpt lat="46.49748" lon="5.29776">
        <ele>213</ele>
        <time>2021-11-15T13:30:58Z</time>
      </trkpt>
      <trkpt lat="46.49743" lon="5.29769">
        <ele>213</ele>
        <time>2021-11-15T13:30:59Z</time>
      </trkpt>
      <trkpt lat="46.49725" lon="5.29727">
        <ele>212.8</ele>
        <time>2021-11-15T13:31:04Z</time>
      </trkpt>
      <trkpt lat="46.49689" lon="5.29663">
        <ele>212.8</ele>
        <time>2021-11-15T13:31:12Z</time>
      </trkpt>
      <trkpt lat="46.49685" lon="5.29656">
        <ele>212.8</ele>
        <time>2021-11-15T13:31:13Z</time>
      </trkpt>
      <trkpt lat="46.49653" lon="5.29599">
        <ele>213.6</ele>
        <time>2021-11-15T13:31:21Z</time>
      </trkpt>
      <trkpt lat="46.49638" lon="5.29572">
        <ele>214</ele>
        <time>2021-11-15T13:31:25Z</time>
      </trkpt>
      <trkpt lat="46.49605" lon="5.29513">
        <ele>214</ele>
        <time>2021-11-15T13:31:33Z</time>
      </trkpt>
      <trkpt lat="46.49568" lon="5.29446">
        <ele>213.8</ele>
        <time>2021-11-15T13:31:42Z</time>
      </trkpt>
      <trkpt lat="46.49532" lon="5.29382">
        <ele>213.2</ele>
        <time>2021-11-15T13:31:50Z</time>
      </trkpt>
      <trkpt lat="46.49528" lon="5.29372">
        <ele>213.4</ele>
        <time>2021-11-15T13:31:51Z</time>
      </trkpt>
      <trkpt lat="46.49524" lon="5.29361">
        <ele>213</ele>
        <time>2021-11-15T13:31:52Z</time>
      </trkpt>
      <trkpt lat="46.49521" lon="5.2935">
        <ele>213</ele>
        <time>2021-11-15T13:31:53Z</time>
      </trkpt>
      <trkpt lat="46.49516" lon="5.29325">
        <ele>212.2</ele>
        <time>2021-11-15T13:31:55Z</time>
      </trkpt>
      <trkpt lat="46.49514" lon="5.29298">
        <ele>211.8</ele>
        <time>2021-11-15T13:31:57Z</time>
      </trkpt>
      <trkpt lat="46.49515" lon="5.2927">
        <ele>210.8</ele>
        <time>2021-11-15T13:31:59Z</time>
      </trkpt>
      <trkpt lat="46.49517" lon="5.29256">
        <ele>210.4</ele>
        <time>2021-11-15T13:32:00Z</time>
      </trkpt>
      <trkpt lat="46.4952" lon="5.29243">
        <ele>209.8</ele>
        <time>2021-11-15T13:32:01Z</time>
      </trkpt>
      <trkpt lat="46.49525" lon="5.29229">
        <ele>209</ele>
        <time>2021-11-15T13:32:02Z</time>
      </trkpt>
      <trkpt lat="46.4953" lon="5.29216">
        <ele>208.8</ele>
        <time>2021-11-15T13:32:03Z</time>
      </trkpt>
      <trkpt lat="46.49541" lon="5.29192">
        <ele>207.8</ele>
        <time>2021-11-15T13:32:05Z</time>
      </trkpt>
      <trkpt lat="46.49547" lon="5.2918">
        <ele>206.6</ele>
        <time>2021-11-15T13:32:06Z</time>
      </trkpt>
      <trkpt lat="46.49562" lon="5.29143">
        <ele>205.4</ele>
        <time>2021-11-15T13:32:09Z</time>
      </trkpt>
      <trkpt lat="46.49566" lon="5.2913">
        <ele>205</ele>
        <time>2021-11-15T13:32:10Z</time>
      </trkpt>
      <trkpt lat="46.49569" lon="5.29116">
        <ele>204.2</ele>
        <time>2021-11-15T13:32:11Z</time>
      </trkpt>
      <trkpt lat="46.49574" lon="5.29087">
        <ele>203.2</ele>
        <time>2021-11-15T13:32:13Z</time>
      </trkpt>
      <trkpt lat="46.49579" lon="5.29058">
        <ele>201.8</ele>
        <time>2021-11-15T13:32:15Z</time>
      </trkpt>
      <trkpt lat="46.49585" lon="5.29029">
        <ele>200.4</ele>
        <time>2021-11-15T13:32:17Z</time>
      </trkpt>
      <trkpt lat="46.4959" lon="5.28998">
        <ele>199</ele>
        <time>2021-11-15T13:32:19Z</time>
      </trkpt>
      <trkpt lat="46.49596" lon="5.28968">
        <ele>197.8</ele>
        <time>2021-11-15T13:32:21Z</time>
      </trkpt>
      <trkpt lat="46.49601" lon="5.28937">
        <ele>196.6</ele>
        <time>2021-11-15T13:32:23Z</time>
      </trkpt>
      <trkpt lat="46.49606" lon="5.28908">
        <ele>195.6</ele>
        <time>2021-11-15T13:32:25Z</time>
      </trkpt>
      <trkpt lat="46.49611" lon="5.2888">
        <ele>194.2</ele>
        <time>2021-11-15T13:32:27Z</time>
      </trkpt>
      <trkpt lat="46.49616" lon="5.28853">
        <ele>193.2</ele>
        <time>2021-11-15T13:32:29Z</time>
      </trkpt>
      <trkpt lat="46.49618" lon="5.2884">
        <ele>192.8</ele>
        <time>2021-11-15T13:32:30Z</time>
      </trkpt>
      <trkpt lat="46.49625" lon="5.28802">
        <ele>192</ele>
        <time>2021-11-15T13:32:33Z</time>
      </trkpt>
      <trkpt lat="46.49634" lon="5.28755">
        <ele>191.4</ele>
        <time>2021-11-15T13:32:37Z</time>
      </trkpt>
      <trkpt lat="46.49641" lon="5.28721">
        <ele>191</ele>
        <time>2021-11-15T13:32:40Z</time>
      </trkpt>
      <trkpt lat="46.49652" lon="5.28679">
        <ele>191</ele>
        <time>2021-11-15T13:32:44Z</time>
      </trkpt>
      <trkpt lat="46.49671" lon="5.286">
        <ele>191</ele>
        <time>2021-11-15T13:32:52Z</time>
      </trkpt>
      <trkpt lat="46.49673" lon="5.28591">
        <ele>191</ele>
        <time>2021-11-15T13:32:53Z</time>
      </trkpt>
      <trkpt lat="46.49685" lon="5.28529">
        <ele>192</ele>
        <time>2021-11-15T13:33:00Z</time>
      </trkpt>
      <trkpt lat="46.49687" lon="5.2852">
        <ele>192.2</ele>
        <time>2021-11-15T13:33:01Z</time>
      </trkpt>
      <trkpt lat="46.49698" lon="5.28451">
        <ele>192.2</ele>
        <time>2021-11-15T13:33:08Z</time>
      </trkpt>
      <trkpt lat="46.49709" lon="5.28382">
        <ele>192</ele>
        <time>2021-11-15T13:33:15Z</time>
      </trkpt>
      <trkpt lat="46.49728" lon="5.2831">
        <ele>191.8</ele>
        <time>2021-11-15T13:33:23Z</time>
      </trkpt>
      <trkpt lat="46.49747" lon="5.28233">
        <ele>191.6</ele>
        <time>2021-11-15T13:33:32Z</time>
      </trkpt>
      <trkpt lat="46.49759" lon="5.28152">
        <ele>191</ele>
        <time>2021-11-15T13:33:41Z</time>
      </trkpt>
      <trkpt lat="46.49763" lon="5.28125">
        <ele>191</ele>
        <time>2021-11-15T13:33:44Z</time>
      </trkpt>
      <trkpt lat="46.49769" lon="5.28052">
        <ele>191</ele>
        <time>2021-11-15T13:33:52Z</time>
      </trkpt>
      <trkpt lat="46.49768" lon="5.27966">
        <ele>191.8</ele>
        <time>2021-11-15T13:34:02Z</time>
      </trkpt>
      <trkpt lat="46.49767" lon="5.27925">
        <ele>192</ele>
        <time>2021-11-15T13:34:07Z</time>
      </trkpt>
      <trkpt lat="46.49766" lon="5.27901">
        <ele>192.2</ele>
        <time>2021-11-15T13:34:10Z</time>
      </trkpt>
      <trkpt lat="46.49761" lon="5.27828">
        <ele>193</ele>
        <time>2021-11-15T13:34:19Z</time>
      </trkpt>
      <trkpt lat="46.4976" lon="5.2782">
        <ele>193.2</ele>
        <time>2021-11-15T13:34:20Z</time>
      </trkpt>
      <trkpt lat="46.49748" lon="5.27751">
        <ele>193.8</ele>
        <time>2021-11-15T13:34:29Z</time>
      </trkpt>
      <trkpt lat="46.49742" lon="5.27722">
        <ele>194.4</ele>
        <time>2021-11-15T13:34:33Z</time>
      </trkpt>
      <trkpt lat="46.49736" lon="5.27688">
        <ele>194.8</ele>
        <time>2021-11-15T13:34:38Z</time>
      </trkpt>
      <trkpt lat="46.49731" lon="5.27662">
        <ele>195.4</ele>
        <time>2021-11-15T13:34:42Z</time>
      </trkpt>
      <trkpt lat="46.49729" lon="5.2765">
        <ele>195.8</ele>
        <time>2021-11-15T13:34:44Z</time>
      </trkpt>
      <trkpt lat="46.49727" lon="5.2763">
        <ele>196.6</ele>
        <time>2021-11-15T13:34:47Z</time>
      </trkpt>
      <trkpt lat="46.49725" lon="5.27586">
        <ele>197.8</ele>
        <time>2021-11-15T13:34:54Z</time>
      </trkpt>
      <trkpt lat="46.49727" lon="5.27548">
        <ele>198.8</ele>
        <time>2021-11-15T13:35:00Z</time>
      </trkpt>
      <trkpt lat="46.49728" lon="5.27541">
        <ele>199</ele>
        <time>2021-11-15T13:35:01Z</time>
      </trkpt>
      <trkpt lat="46.49729" lon="5.27517">
        <ele>200</ele>
        <time>2021-11-15T13:35:05Z</time>
      </trkpt>
      <trkpt lat="46.49729" lon="5.27493">
        <ele>201</ele>
        <time>2021-11-15T13:35:09Z</time>
      </trkpt>
      <trkpt lat="46.49729" lon="5.27487">
        <ele>201.4</ele>
        <time>2021-11-15T13:35:10Z</time>
      </trkpt>
      <trkpt lat="46.49729" lon="5.27475">
        <ele>202</ele>
        <time>2021-11-15T13:35:12Z</time>
      </trkpt>
      <trkpt lat="46.49724" lon="5.27442">
        <ele>203</ele>
        <time>2021-11-15T13:35:18Z</time>
      </trkpt>
      <trkpt lat="46.49723" lon="5.27437">
        <ele>203.6</ele>
        <time>2021-11-15T13:35:19Z</time>
      </trkpt>
      <trkpt lat="46.49719" lon="5.27417">
        <ele>204.6</ele>
        <time>2021-11-15T13:35:23Z</time>
      </trkpt>
      <trkpt lat="46.49711" lon="5.27398">
        <ele>205.2</ele>
        <time>2021-11-15T13:35:27Z</time>
      </trkpt>
      <trkpt lat="46.49708" lon="5.27389">
        <ele>205.6</ele>
        <time>2021-11-15T13:35:29Z</time>
      </trkpt>
      <trkpt lat="46.49695" lon="5.27363">
        <ele>206.8</ele>
        <time>2021-11-15T13:35:35Z</time>
      </trkpt>
      <trkpt lat="46.49691" lon="5.27354">
        <ele>207.2</ele>
        <time>2021-11-15T13:35:37Z</time>
      </trkpt>
      <trkpt lat="46.49684" lon="5.2734">
        <ele>208</ele>
        <time>2021-11-15T13:35:40Z</time>
      </trkpt>
      <trkpt lat="46.49672" lon="5.27317">
        <ele>209</ele>
        <time>2021-11-15T13:35:45Z</time>
      </trkpt>
      <trkpt lat="46.49668" lon="5.27308">
        <ele>209</ele>
        <time>2021-11-15T13:35:47Z</time>
      </trkpt>
      <trkpt lat="46.49659" lon="5.2729">
        <ele>209.8</ele>
        <time>2021-11-15T13:35:51Z</time>
      </trkpt>
      <trkpt lat="46.49651" lon="5.27267">
        <ele>210.8</ele>
        <time>2021-11-15T13:35:56Z</time>
      </trkpt>
      <trkpt lat="46.49649" lon="5.27262">
        <ele>211</ele>
        <time>2021-11-15T13:35:57Z</time>
      </trkpt>
      <trkpt lat="46.49643" lon="5.2724">
        <ele>212</ele>
        <time>2021-11-15T13:36:02Z</time>
      </trkpt>
      <trkpt lat="46.49641" lon="5.2723">
        <ele>212.6</ele>
        <time>2021-11-15T13:36:04Z</time>
      </trkpt>
      <trkpt lat="46.49639" lon="5.27215">
        <ele>213.2</ele>
        <time>2021-11-15T13:36:07Z</time>
      </trkpt>
      <trkpt lat="46.49638" lon="5.27193">
        <ele>214.2</ele>
        <time>2021-11-15T13:36:11Z</time>
      </trkpt>
      <trkpt lat="46.49638" lon="5.27188">
        <ele>214.2</ele>
        <time>2021-11-15T13:36:12Z</time>
      </trkpt>
      <trkpt lat="46.49639" lon="5.27155">
        <ele>215.4</ele>
        <time>2021-11-15T13:36:18Z</time>
      </trkpt>
      <trkpt lat="46.4964" lon="5.27149">
        <ele>215.4</ele>
        <time>2021-11-15T13:36:19Z</time>
      </trkpt>
      <trkpt lat="46.49645" lon="5.27126">
        <ele>216.4</ele>
        <time>2021-11-15T13:36:23Z</time>
      </trkpt>
      <trkpt lat="46.49656" lon="5.27088">
        <ele>216.8</ele>
        <time>2021-11-15T13:36:29Z</time>
      </trkpt>
      <trkpt lat="46.4967" lon="5.27047">
        <ele>217.2</ele>
        <time>2021-11-15T13:36:35Z</time>
      </trkpt>
      <trkpt lat="46.49677" lon="5.27023">
        <ele>217.2</ele>
        <time>2021-11-15T13:36:38Z</time>
      </trkpt>
      <trkpt lat="46.49688" lon="5.26988">
        <ele>217</ele>
        <time>2021-11-15T13:36:42Z</time>
      </trkpt>
      <trkpt lat="46.49707" lon="5.26927">
        <ele>216.2</ele>
        <time>2021-11-15T13:36:48Z</time>
      </trkpt>
      <trkpt lat="46.49711" lon="5.26916">
        <ele>216</ele>
        <time>2021-11-15T13:36:49Z</time>
      </trkpt>
      <trkpt lat="46.49724" lon="5.26873">
        <ele>215</ele>
        <time>2021-11-15T13:36:53Z</time>
      </trkpt>
      <trkpt lat="46.49733" lon="5.26842">
        <ele>214.4</ele>
        <time>2021-11-15T13:36:56Z</time>
      </trkpt>
      <trkpt lat="46.49741" lon="5.26794">
        <ele>214.4</ele>
        <time>2021-11-15T13:37:01Z</time>
      </trkpt>
      <trkpt lat="46.49743" lon="5.26737">
        <ele>214.6</ele>
        <time>2021-11-15T13:37:07Z</time>
      </trkpt>
      <trkpt lat="46.49734" lon="5.26669">
        <ele>214.6</ele>
        <time>2021-11-15T13:37:14Z</time>
      </trkpt>
      <trkpt lat="46.49716" lon="5.26612">
        <ele>214.6</ele>
        <time>2021-11-15T13:37:20Z</time>
      </trkpt>
      <trkpt lat="46.49704" lon="5.26582">
        <ele>213.8</ele>
        <time>2021-11-15T13:37:23Z</time>
      </trkpt>
      <trkpt lat="46.49695" lon="5.26562">
        <ele>213.2</ele>
        <time>2021-11-15T13:37:25Z</time>
      </trkpt>
      <trkpt lat="46.4969" lon="5.26552">
        <ele>212.8</ele>
        <time>2021-11-15T13:37:26Z</time>
      </trkpt>
      <trkpt lat="46.49671" lon="5.26507">
        <ele>211.4</ele>
        <time>2021-11-15T13:37:30Z</time>
      </trkpt>
      <trkpt lat="46.49662" lon="5.26483">
        <ele>211</ele>
        <time>2021-11-15T13:37:32Z</time>
      </trkpt>
      <trkpt lat="46.49657" lon="5.2647">
        <ele>210.2</ele>
        <time>2021-11-15T13:37:33Z</time>
      </trkpt>
      <trkpt lat="46.49643" lon="5.26415">
        <ele>208.6</ele>
        <time>2021-11-15T13:37:37Z</time>
      </trkpt>
      <trkpt lat="46.49637" lon="5.26369">
        <ele>206.8</ele>
        <time>2021-11-15T13:37:40Z</time>
      </trkpt>
      <trkpt lat="46.49635" lon="5.26339">
        <ele>205.6</ele>
        <time>2021-11-15T13:37:42Z</time>
      </trkpt>
      <trkpt lat="46.49632" lon="5.26308">
        <ele>204.6</ele>
        <time>2021-11-15T13:37:44Z</time>
      </trkpt>
      <trkpt lat="46.4963" lon="5.26278">
        <ele>202.8</ele>
        <time>2021-11-15T13:37:46Z</time>
      </trkpt>
      <trkpt lat="46.49628" lon="5.26233">
        <ele>201.4</ele>
        <time>2021-11-15T13:37:49Z</time>
      </trkpt>
      <trkpt lat="46.49625" lon="5.26204">
        <ele>200.2</ele>
        <time>2021-11-15T13:37:51Z</time>
      </trkpt>
      <trkpt lat="46.49622" lon="5.26166">
        <ele>199.6</ele>
        <time>2021-11-15T13:37:54Z</time>
      </trkpt>
      <trkpt lat="46.49617" lon="5.26142">
        <ele>199.2</ele>
        <time>2021-11-15T13:37:56Z</time>
      </trkpt>
      <trkpt lat="46.49608" lon="5.26109">
        <ele>198.8</ele>
        <time>2021-11-15T13:37:59Z</time>
      </trkpt>
      <trkpt lat="46.49592" lon="5.26072">
        <ele>198.6</ele>
        <time>2021-11-15T13:38:03Z</time>
      </trkpt>
      <trkpt lat="46.49562" lon="5.26027">
        <ele>199</ele>
        <time>2021-11-15T13:38:09Z</time>
      </trkpt>
      <trkpt lat="46.49528" lon="5.25989">
        <ele>199</ele>
        <time>2021-11-15T13:38:15Z</time>
      </trkpt>
      <trkpt lat="46.49478" lon="5.25939">
        <ele>198.6</ele>
        <time>2021-11-15T13:38:23Z</time>
      </trkpt>
      <trkpt lat="46.49441" lon="5.25902">
        <ele>198</ele>
        <time>2021-11-15T13:38:29Z</time>
      </trkpt>
      <trkpt lat="46.49416" lon="5.25877">
        <ele>198</ele>
        <time>2021-11-15T13:38:33Z</time>
      </trkpt>
      <trkpt lat="46.49366" lon="5.25828">
        <ele>198.2</ele>
        <time>2021-11-15T13:38:41Z</time>
      </trkpt>
      <trkpt lat="46.49348" lon="5.2581">
        <ele>198.2</ele>
        <time>2021-11-15T13:38:44Z</time>
      </trkpt>
      <trkpt lat="46.49299" lon="5.25761">
        <ele>198.4</ele>
        <time>2021-11-15T13:38:52Z</time>
      </trkpt>
      <trkpt lat="46.49293" lon="5.25755">
        <ele>198.4</ele>
        <time>2021-11-15T13:38:53Z</time>
      </trkpt>
      <trkpt lat="46.49245" lon="5.25707">
        <ele>198</ele>
        <time>2021-11-15T13:39:01Z</time>
      </trkpt>
      <trkpt lat="46.49239" lon="5.25702">
        <ele>198</ele>
        <time>2021-11-15T13:39:02Z</time>
      </trkpt>
      <trkpt lat="46.49192" lon="5.25655">
        <ele>198</ele>
        <time>2021-11-15T13:39:10Z</time>
      </trkpt>
      <trkpt lat="46.49186" lon="5.25649">
        <ele>198</ele>
        <time>2021-11-15T13:39:11Z</time>
      </trkpt>
      <trkpt lat="46.49142" lon="5.25603">
        <ele>198.4</ele>
        <time>2021-11-15T13:39:19Z</time>
      </trkpt>
      <trkpt lat="46.49136" lon="5.25598">
        <ele>198.6</ele>
        <time>2021-11-15T13:39:20Z</time>
      </trkpt>
      <trkpt lat="46.49121" lon="5.25583">
        <ele>199</ele>
        <time>2021-11-15T13:39:23Z</time>
      </trkpt>
      <trkpt lat="46.49102" lon="5.25564">
        <ele>199.6</ele>
        <time>2021-11-15T13:39:27Z</time>
      </trkpt>
      <trkpt lat="46.49098" lon="5.25559">
        <ele>199.8</ele>
        <time>2021-11-15T13:39:28Z</time>
      </trkpt>
      <trkpt lat="46.49089" lon="5.25548">
        <ele>199.8</ele>
        <time>2021-11-15T13:39:30Z</time>
      </trkpt>
      <trkpt lat="46.49085" lon="5.25542">
        <ele>200</ele>
        <time>2021-11-15T13:39:31Z</time>
      </trkpt>
      <trkpt lat="46.49082" lon="5.25536">
        <ele>200</ele>
        <time>2021-11-15T13:39:32Z</time>
      </trkpt>
      <trkpt lat="46.49079" lon="5.25529">
        <ele>200.2</ele>
        <time>2021-11-15T13:39:33Z</time>
      </trkpt>
      <trkpt lat="46.4907" lon="5.25502">
        <ele>200.8</ele>
        <time>2021-11-15T13:39:37Z</time>
      </trkpt>
      <trkpt lat="46.49067" lon="5.25488">
        <ele>201</ele>
        <time>2021-11-15T13:39:39Z</time>
      </trkpt>
      <trkpt lat="46.49067" lon="5.25481">
        <ele>201.2</ele>
        <time>2021-11-15T13:39:40Z</time>
      </trkpt>
      <trkpt lat="46.49064" lon="5.25445">
        <ele>202.4</ele>
        <time>2021-11-15T13:39:45Z</time>
      </trkpt>
      <trkpt lat="46.49064" lon="5.25432">
        <ele>203</ele>
        <time>2021-11-15T13:39:47Z</time>
      </trkpt>
      <trkpt lat="46.49062" lon="5.25411">
        <ele>203.4</ele>
        <time>2021-11-15T13:39:50Z</time>
      </trkpt>
      <trkpt lat="46.49059" lon="5.25384">
        <ele>204.8</ele>
        <time>2021-11-15T13:39:54Z</time>
      </trkpt>
      <trkpt lat="46.49058" lon="5.25378">
        <ele>204.8</ele>
        <time>2021-11-15T13:39:55Z</time>
      </trkpt>
      <trkpt lat="46.49052" lon="5.2534">
        <ele>205.8</ele>
        <time>2021-11-15T13:40:00Z</time>
      </trkpt>
      <trkpt lat="46.49047" lon="5.25316">
        <ele>206.2</ele>
        <time>2021-11-15T13:40:03Z</time>
      </trkpt>
      <trkpt lat="46.49039" lon="5.25251">
        <ele>206.4</ele>
        <time>2021-11-15T13:40:10Z</time>
      </trkpt>
      <trkpt lat="46.49036" lon="5.2523">
        <ele>206</ele>
        <time>2021-11-15T13:40:12Z</time>
      </trkpt>
      <trkpt lat="46.49031" lon="5.25198">
        <ele>205.4</ele>
        <time>2021-11-15T13:40:15Z</time>
      </trkpt>
      <trkpt lat="46.49022" lon="5.25137">
        <ele>204.4</ele>
        <time>2021-11-15T13:40:21Z</time>
      </trkpt>
      <trkpt lat="46.49019" lon="5.25109">
        <ele>204.4</ele>
        <time>2021-11-15T13:40:24Z</time>
      </trkpt>
      <trkpt lat="46.49011" lon="5.25049">
        <ele>204.6</ele>
        <time>2021-11-15T13:40:31Z</time>
      </trkpt>
      <trkpt lat="46.49005" lon="5.25005">
        <ele>205.6</ele>
        <time>2021-11-15T13:40:37Z</time>
      </trkpt>
      <trkpt lat="46.49003" lon="5.24991">
        <ele>206</ele>
        <time>2021-11-15T13:40:39Z</time>
      </trkpt>
      <trkpt lat="46.49001" lon="5.24972">
        <ele>206.8</ele>
        <time>2021-11-15T13:40:42Z</time>
      </trkpt>
      <trkpt lat="46.48996" lon="5.24946">
        <ele>207.4</ele>
        <time>2021-11-15T13:40:46Z</time>
      </trkpt>
      <trkpt lat="46.48992" lon="5.24935">
        <ele>207.8</ele>
        <time>2021-11-15T13:40:48Z</time>
      </trkpt>
      <trkpt lat="46.48989" lon="5.24923">
        <ele>208.2</ele>
        <time>2021-11-15T13:40:50Z</time>
      </trkpt>
      <trkpt lat="46.48992" lon="5.24915">
        <ele>208.8</ele>
        <time>2021-11-15T13:40:52Z</time>
      </trkpt>
      <trkpt lat="46.48995" lon="5.24913">
        <ele>209</ele>
        <time>2021-11-15T13:40:53Z</time>
      </trkpt>
      <trkpt lat="46.49002" lon="5.24919">
        <ele>209.2</ele>
        <time>2021-11-15T13:40:55Z</time>
      </trkpt>
      <trkpt lat="46.49014" lon="5.24935">
        <ele>209.4</ele>
        <time>2021-11-15T13:40:58Z</time>
      </trkpt>
      <trkpt lat="46.49018" lon="5.24939">
        <ele>209.2</ele>
        <time>2021-11-15T13:40:59Z</time>
      </trkpt>
      <trkpt lat="46.49047" lon="5.24974">
        <ele>209.2</ele>
        <time>2021-11-15T13:41:05Z</time>
      </trkpt>
      <trkpt lat="46.49056" lon="5.24986">
        <ele>209.2</ele>
        <time>2021-11-15T13:41:07Z</time>
      </trkpt>
      <trkpt lat="46.49068" lon="5.25004">
        <ele>209.2</ele>
        <time>2021-11-15T13:41:10Z</time>
      </trkpt>
      <trkpt lat="46.49097" lon="5.25052">
        <ele>209.2</ele>
        <time>2021-11-15T13:41:17Z</time>
      </trkpt>
      <trkpt lat="46.49122" lon="5.25093">
        <ele>209.2</ele>
        <time>2021-11-15T13:41:23Z</time>
      </trkpt>
      <trkpt lat="46.49154" lon="5.25144">
        <ele>209.6</ele>
        <time>2021-11-15T13:41:31Z</time>
      </trkpt>
      <trkpt lat="46.49188" lon="5.25174">
        <ele>210</ele>
        <time>2021-11-15T13:41:38Z</time>
      </trkpt>
      <trkpt lat="46.49227" lon="5.25203">
        <ele>211</ele>
        <time>2021-11-15T13:41:46Z</time>
      </trkpt>
      <trkpt lat="46.49232" lon="5.25206">
        <ele>211.2</ele>
        <time>2021-11-15T13:41:47Z</time>
      </trkpt>
      <trkpt lat="46.49262" lon="5.25229">
        <ele>211.8</ele>
        <time>2021-11-15T13:41:53Z</time>
      </trkpt>
      <trkpt lat="46.49307" lon="5.25264">
        <ele>211.8</ele>
        <time>2021-11-15T13:42:01Z</time>
      </trkpt>
      <trkpt lat="46.49359" lon="5.25302">
        <ele>211.2</ele>
        <time>2021-11-15T13:42:10Z</time>
      </trkpt>
      <trkpt lat="46.49365" lon="5.25306">
        <ele>211</ele>
        <time>2021-11-15T13:42:11Z</time>
      </trkpt>
      <trkpt lat="46.49401" lon="5.2532">
        <ele>211</ele>
        <time>2021-11-15T13:42:17Z</time>
      </trkpt>
      <trkpt lat="46.49456" lon="5.25333">
        <ele>211.4</ele>
        <time>2021-11-15T13:42:26Z</time>
      </trkpt>
      <trkpt lat="46.49509" lon="5.25345">
        <ele>212</ele>
        <time>2021-11-15T13:42:35Z</time>
      </trkpt>
      <trkpt lat="46.49539" lon="5.25351">
        <ele>212.4</ele>
        <time>2021-11-15T13:42:40Z</time>
      </trkpt>
      <trkpt lat="46.49557" lon="5.25356">
        <ele>212.4</ele>
        <time>2021-11-15T13:42:43Z</time>
      </trkpt>
      <trkpt lat="46.4961" lon="5.25366">
        <ele>214.8</ele>
        <time>2021-11-15T13:42:51Z</time>
      </trkpt>
      <trkpt lat="46.49655" lon="5.25376">
        <ele>211</ele>
        <time>2021-11-15T13:42:57Z</time>
      </trkpt>
      <trkpt lat="46.49663" lon="5.25379">
        <ele>210.8</ele>
        <time>2021-11-15T13:42:58Z</time>
      </trkpt>
      <trkpt lat="46.4968" lon="5.25388">
        <ele>210.2</ele>
        <time>2021-11-15T13:43:00Z</time>
      </trkpt>
      <trkpt lat="46.49696" lon="5.25402">
        <ele>209.8</ele>
        <time>2021-11-15T13:43:02Z</time>
      </trkpt>
      <trkpt lat="46.49712" lon="5.25419">
        <ele>208.6</ele>
        <time>2021-11-15T13:43:04Z</time>
      </trkpt>
      <trkpt lat="46.49728" lon="5.25436">
        <ele>207.4</ele>
        <time>2021-11-15T13:43:06Z</time>
      </trkpt>
      <trkpt lat="46.49746" lon="5.25452">
        <ele>206.2</ele>
        <time>2021-11-15T13:43:08Z</time>
      </trkpt>
      <trkpt lat="46.49755" lon="5.25459">
        <ele>205.2</ele>
        <time>2021-11-15T13:43:09Z</time>
      </trkpt>
      <trkpt lat="46.49774" lon="5.2547">
        <ele>203.8</ele>
        <time>2021-11-15T13:43:11Z</time>
      </trkpt>
      <trkpt lat="46.49784" lon="5.25474">
        <ele>203</ele>
        <time>2021-11-15T13:43:12Z</time>
      </trkpt>
      <trkpt lat="46.49793" lon="5.25478">
        <ele>202.6</ele>
        <time>2021-11-15T13:43:13Z</time>
      </trkpt>
      <trkpt lat="46.49811" lon="5.25486">
        <ele>201.4</ele>
        <time>2021-11-15T13:43:15Z</time>
      </trkpt>
      <trkpt lat="46.49827" lon="5.25492">
        <ele>200.2</ele>
        <time>2021-11-15T13:43:17Z</time>
      </trkpt>
      <trkpt lat="46.49868" lon="5.25511">
        <ele>199.6</ele>
        <time>2021-11-15T13:43:23Z</time>
      </trkpt>
      <trkpt lat="46.49913" lon="5.25531">
        <ele>199.8</ele>
        <time>2021-11-15T13:43:30Z</time>
      </trkpt>
      <trkpt lat="46.49932" lon="5.25536">
        <ele>200</ele>
        <time>2021-11-15T13:43:33Z</time>
      </trkpt>
      <trkpt lat="46.49945" lon="5.25537">
        <ele>200</ele>
        <time>2021-11-15T13:43:35Z</time>
      </trkpt>
      <trkpt lat="46.49991" lon="5.25526">
        <ele>200.2</ele>
        <time>2021-11-15T13:43:42Z</time>
      </trkpt>
      <trkpt lat="46.50049" lon="5.25506">
        <ele>199.8</ele>
        <time>2021-11-15T13:43:51Z</time>
      </trkpt>
      <trkpt lat="46.50103" lon="5.25489">
        <ele>200.2</ele>
        <time>2021-11-15T13:44:00Z</time>
      </trkpt>
      <trkpt lat="46.50115" lon="5.25485">
        <ele>200.2</ele>
        <time>2021-11-15T13:44:02Z</time>
      </trkpt>
      <trkpt lat="46.50168" lon="5.2547">
        <ele>199.8</ele>
        <time>2021-11-15T13:44:11Z</time>
      </trkpt>
      <trkpt lat="46.5018" lon="5.25466">
        <ele>199.6</ele>
        <time>2021-11-15T13:44:13Z</time>
      </trkpt>
      <trkpt lat="46.50233" lon="5.2545">
        <ele>200</ele>
        <time>2021-11-15T13:44:22Z</time>
      </trkpt>
      <trkpt lat="46.50239" lon="5.25448">
        <ele>200</ele>
        <time>2021-11-15T13:44:23Z</time>
      </trkpt>
      <trkpt lat="46.50295" lon="5.2543">
        <ele>200.8</ele>
        <time>2021-11-15T13:44:33Z</time>
      </trkpt>
      <trkpt lat="46.50306" lon="5.25427">
        <ele>200.8</ele>
        <time>2021-11-15T13:44:35Z</time>
      </trkpt>
      <trkpt lat="46.50327" lon="5.25421">
        <ele>201.2</ele>
        <time>2021-11-15T13:44:39Z</time>
      </trkpt>
      <trkpt lat="46.50344" lon="5.25416">
        <ele>201.2</ele>
        <time>2021-11-15T13:44:42Z</time>
      </trkpt>
      <trkpt lat="46.50361" lon="5.25411">
        <ele>201.4</ele>
        <time>2021-11-15T13:44:45Z</time>
      </trkpt>
      <trkpt lat="46.50413" lon="5.25402">
        <ele>201.8</ele>
        <time>2021-11-15T13:44:54Z</time>
      </trkpt>
      <trkpt lat="46.50452" lon="5.25409">
        <ele>202.4</ele>
        <time>2021-11-15T13:45:01Z</time>
      </trkpt>
      <trkpt lat="46.50493" lon="5.25419">
        <ele>203.2</ele>
        <time>2021-11-15T13:45:09Z</time>
      </trkpt>
      <trkpt lat="46.50509" lon="5.25423">
        <ele>203.6</ele>
        <time>2021-11-15T13:45:12Z</time>
      </trkpt>
      <trkpt lat="46.50524" lon="5.25427">
        <ele>204.2</ele>
        <time>2021-11-15T13:45:15Z</time>
      </trkpt>
      <trkpt lat="46.50536" lon="5.2543">
        <ele>204.6</ele>
        <time>2021-11-15T13:45:17Z</time>
      </trkpt>
      <trkpt lat="46.50576" lon="5.25439">
        <ele>205.6</ele>
        <time>2021-11-15T13:45:24Z</time>
      </trkpt>
      <trkpt lat="46.50582" lon="5.2544">
        <ele>205.6</ele>
        <time>2021-11-15T13:45:25Z</time>
      </trkpt>
      <trkpt lat="46.50632" lon="5.25453">
        <ele>206</ele>
        <time>2021-11-15T13:45:33Z</time>
      </trkpt>
      <trkpt lat="46.50673" lon="5.25463">
        <ele>205.6</ele>
        <time>2021-11-15T13:45:39Z</time>
      </trkpt>
      <trkpt lat="46.50714" lon="5.25484">
        <ele>205.2</ele>
        <time>2021-11-15T13:45:45Z</time>
      </trkpt>
      <trkpt lat="46.50738" lon="5.25505">
        <ele>204.4</ele>
        <time>2021-11-15T13:45:49Z</time>
      </trkpt>
      <trkpt lat="46.50754" lon="5.25521">
        <ele>204.2</ele>
        <time>2021-11-15T13:45:52Z</time>
      </trkpt>
      <trkpt lat="46.50799" lon="5.25567">
        <ele>204.4</ele>
        <time>2021-11-15T13:46:01Z</time>
      </trkpt>
      <trkpt lat="46.50803" lon="5.25571">
        <ele>204.4</ele>
        <time>2021-11-15T13:46:02Z</time>
      </trkpt>
      <trkpt lat="46.5083" lon="5.25598">
        <ele>205.2</ele>
        <time>2021-11-15T13:46:08Z</time>
      </trkpt>
      <trkpt lat="46.50839" lon="5.25606">
        <ele>205.6</ele>
        <time>2021-11-15T13:46:10Z</time>
      </trkpt>
      <trkpt lat="46.50866" lon="5.25623">
        <ele>206.2</ele>
        <time>2021-11-15T13:46:16Z</time>
      </trkpt>
      <trkpt lat="46.50886" lon="5.25634">
        <ele>206.6</ele>
        <time>2021-11-15T13:46:20Z</time>
      </trkpt>
      <trkpt lat="46.50907" lon="5.25643">
        <ele>206.8</ele>
        <time>2021-11-15T13:46:24Z</time>
      </trkpt>
      <trkpt lat="46.50928" lon="5.25652">
        <ele>207.8</ele>
        <time>2021-11-15T13:46:28Z</time>
      </trkpt>
      <trkpt lat="46.50964" lon="5.25669">
        <ele>208.8</ele>
        <time>2021-11-15T13:46:35Z</time>
      </trkpt>
      <trkpt lat="46.5097" lon="5.25672">
        <ele>209</ele>
        <time>2021-11-15T13:46:36Z</time>
      </trkpt>
      <trkpt lat="46.51013" lon="5.25696">
        <ele>209</ele>
        <time>2021-11-15T13:46:44Z</time>
      </trkpt>
      <trkpt lat="46.51056" lon="5.25731">
        <ele>208.2</ele>
        <time>2021-11-15T13:46:52Z</time>
      </trkpt>
      <trkpt lat="46.51104" lon="5.25772">
        <ele>207.8</ele>
        <time>2021-11-15T13:47:01Z</time>
      </trkpt>
      <trkpt lat="46.51152" lon="5.25822">
        <ele>207.8</ele>
        <time>2021-11-15T13:47:10Z</time>
      </trkpt>
      <trkpt lat="46.51162" lon="5.25832">
        <ele>207.6</ele>
        <time>2021-11-15T13:47:12Z</time>
      </trkpt>
      <trkpt lat="46.51193" lon="5.25865">
        <ele>207.4</ele>
        <time>2021-11-15T13:47:18Z</time>
      </trkpt>
      <trkpt lat="46.51239" lon="5.25903">
        <ele>206.6</ele>
        <time>2021-11-15T13:47:26Z</time>
      </trkpt>
      <trkpt lat="46.51293" lon="5.25928">
        <ele>206.4</ele>
        <time>2021-11-15T13:47:35Z</time>
      </trkpt>
      <trkpt lat="46.51346" lon="5.2595">
        <ele>207.2</ele>
        <time>2021-11-15T13:47:44Z</time>
      </trkpt>
      <trkpt lat="46.51352" lon="5.25953">
        <ele>207.4</ele>
        <time>2021-11-15T13:47:45Z</time>
      </trkpt>
      <trkpt lat="46.51407" lon="5.25976">
        <ele>207</ele>
        <time>2021-11-15T13:47:54Z</time>
      </trkpt>
      <trkpt lat="46.51461" lon="5.25999">
        <ele>206.6</ele>
        <time>2021-11-15T13:48:04Z</time>
      </trkpt>
      <trkpt lat="46.51473" lon="5.26004">
        <ele>206.6</ele>
        <time>2021-11-15T13:48:06Z</time>
      </trkpt>
      <trkpt lat="46.51526" lon="5.26027">
        <ele>206.4</ele>
        <time>2021-11-15T13:48:15Z</time>
      </trkpt>
      <trkpt lat="46.51569" lon="5.2605">
        <ele>205.6</ele>
        <time>2021-11-15T13:48:21Z</time>
      </trkpt>
      <trkpt lat="46.51592" lon="5.26064">
        <ele>204.4</ele>
        <time>2021-11-15T13:48:24Z</time>
      </trkpt>
      <trkpt lat="46.51617" lon="5.26077">
        <ele>203.2</ele>
        <time>2021-11-15T13:48:27Z</time>
      </trkpt>
      <trkpt lat="46.51642" lon="5.26092">
        <ele>202</ele>
        <time>2021-11-15T13:48:30Z</time>
      </trkpt>
      <trkpt lat="46.5166" lon="5.26102">
        <ele>200.6</ele>
        <time>2021-11-15T13:48:32Z</time>
      </trkpt>
      <trkpt lat="46.51678" lon="5.26112">
        <ele>199.6</ele>
        <time>2021-11-15T13:48:34Z</time>
      </trkpt>
      <trkpt lat="46.51696" lon="5.26122">
        <ele>198</ele>
        <time>2021-11-15T13:48:36Z</time>
      </trkpt>
      <trkpt lat="46.51715" lon="5.26132">
        <ele>197</ele>
        <time>2021-11-15T13:48:38Z</time>
      </trkpt>
      <trkpt lat="46.51733" lon="5.26143">
        <ele>195.4</ele>
        <time>2021-11-15T13:48:40Z</time>
      </trkpt>
      <trkpt lat="46.5176" lon="5.26157">
        <ele>194</ele>
        <time>2021-11-15T13:48:43Z</time>
      </trkpt>
      <trkpt lat="46.51768" lon="5.26162">
        <ele>193.4</ele>
        <time>2021-11-15T13:48:44Z</time>
      </trkpt>
      <trkpt lat="46.51776" lon="5.26166">
        <ele>192.4</ele>
        <time>2021-11-15T13:48:45Z</time>
      </trkpt>
      <trkpt lat="46.518" lon="5.26178">
        <ele>191.2</ele>
        <time>2021-11-15T13:48:48Z</time>
      </trkpt>
      <trkpt lat="46.51816" lon="5.26186">
        <ele>190.8</ele>
        <time>2021-11-15T13:48:50Z</time>
      </trkpt>
      <trkpt lat="46.51859" lon="5.262">
        <ele>190.4</ele>
        <time>2021-11-15T13:48:56Z</time>
      </trkpt>
      <trkpt lat="46.519" lon="5.26202">
        <ele>190.4</ele>
        <time>2021-11-15T13:49:02Z</time>
      </trkpt>
      <trkpt lat="46.51906" lon="5.26202">
        <ele>190.2</ele>
        <time>2021-11-15T13:49:03Z</time>
      </trkpt>
      <trkpt lat="46.51952" lon="5.262">
        <ele>189.6</ele>
        <time>2021-11-15T13:49:10Z</time>
      </trkpt>
      <trkpt lat="46.51997" lon="5.26198">
        <ele>189</ele>
        <time>2021-11-15T13:49:17Z</time>
      </trkpt>
      <trkpt lat="46.52023" lon="5.26196">
        <ele>188.6</ele>
        <time>2021-11-15T13:49:21Z</time>
      </trkpt>
      <trkpt lat="46.5207" lon="5.26194">
        <ele>188.2</ele>
        <time>2021-11-15T13:49:28Z</time>
      </trkpt>
      <trkpt lat="46.52128" lon="5.26189">
        <ele>188.2</ele>
        <time>2021-11-15T13:49:37Z</time>
      </trkpt>
      <trkpt lat="46.52134" lon="5.26189">
        <ele>188.2</ele>
        <time>2021-11-15T13:49:38Z</time>
      </trkpt>
      <trkpt lat="46.52167" lon="5.26191">
        <ele>188.6</ele>
        <time>2021-11-15T13:49:44Z</time>
      </trkpt>
      <trkpt lat="46.52172" lon="5.26192">
        <ele>188.6</ele>
        <time>2021-11-15T13:49:45Z</time>
      </trkpt>
      <trkpt lat="46.52192" lon="5.262">
        <ele>189.2</ele>
        <time>2021-11-15T13:49:49Z</time>
      </trkpt>
      <trkpt lat="46.52224" lon="5.2622">
        <ele>190.4</ele>
        <time>2021-11-15T13:49:56Z</time>
      </trkpt>
      <trkpt lat="46.52228" lon="5.26223">
        <ele>190.4</ele>
        <time>2021-11-15T13:49:57Z</time>
      </trkpt>
      <trkpt lat="46.52256" lon="5.26247">
        <ele>191.4</ele>
        <time>2021-11-15T13:50:03Z</time>
      </trkpt>
      <trkpt lat="46.52269" lon="5.26259">
        <ele>191.8</ele>
        <time>2021-11-15T13:50:06Z</time>
      </trkpt>
      <trkpt lat="46.52303" lon="5.26286">
        <ele>192.4</ele>
        <time>2021-11-15T13:50:13Z</time>
      </trkpt>
      <trkpt lat="46.52309" lon="5.26291">
        <ele>192.4</ele>
        <time>2021-11-15T13:50:14Z</time>
      </trkpt>
      <trkpt lat="46.52351" lon="5.26325">
        <ele>191.8</ele>
        <time>2021-11-15T13:50:21Z</time>
      </trkpt>
      <trkpt lat="46.52363" lon="5.26335">
        <ele>191</ele>
        <time>2021-11-15T13:50:23Z</time>
      </trkpt>
      <trkpt lat="46.52382" lon="5.2635">
        <ele>190</ele>
        <time>2021-11-15T13:50:26Z</time>
      </trkpt>
      <trkpt lat="46.52405" lon="5.26369">
        <ele>188.8</ele>
        <time>2021-11-15T13:50:30Z</time>
      </trkpt>
      <trkpt lat="46.52412" lon="5.26373">
        <ele>188</ele>
        <time>2021-11-15T13:50:32Z</time>
      </trkpt>
      <trkpt lat="46.52419" lon="5.26368">
        <ele>187.4</ele>
        <time>2021-11-15T13:50:34Z</time>
      </trkpt>
      <trkpt lat="46.52423" lon="5.26363">
        <ele>187.2</ele>
        <time>2021-11-15T13:50:35Z</time>
      </trkpt>
      <trkpt lat="46.52429" lon="5.26348">
        <ele>186.4</ele>
        <time>2021-11-15T13:50:37Z</time>
      </trkpt>
      <trkpt lat="46.52435" lon="5.26331">
        <ele>186.2</ele>
        <time>2021-11-15T13:50:39Z</time>
      </trkpt>
      <trkpt lat="46.52459" lon="5.26266">
        <ele>186</ele>
        <time>2021-11-15T13:50:47Z</time>
      </trkpt>
      <trkpt lat="46.52486" lon="5.26194">
        <ele>186</ele>
        <time>2021-11-15T13:50:56Z</time>
      </trkpt>
      <trkpt lat="46.52492" lon="5.26177">
        <ele>186</ele>
        <time>2021-11-15T13:50:58Z</time>
      </trkpt>
      <trkpt lat="46.52512" lon="5.26132">
        <ele>186</ele>
        <time>2021-11-15T13:51:04Z</time>
      </trkpt>
      <trkpt lat="46.52515" lon="5.26127">
        <ele>185.8</ele>
        <time>2021-11-15T13:51:05Z</time>
      </trkpt>
      <trkpt lat="46.52521" lon="5.26123">
        <ele>185.8</ele>
        <time>2021-11-15T13:51:06Z</time>
      </trkpt>
      <trkpt lat="46.52533" lon="5.2612">
        <ele>185.8</ele>
        <time>2021-11-15T13:51:08Z</time>
      </trkpt>
      <trkpt lat="46.52539" lon="5.26119">
        <ele>185.8</ele>
        <time>2021-11-15T13:51:09Z</time>
      </trkpt>
      <trkpt lat="46.5255" lon="5.2612">
        <ele>185.8</ele>
        <time>2021-11-15T13:51:11Z</time>
      </trkpt>
      <trkpt lat="46.52562" lon="5.26129">
        <ele>185.8</ele>
        <time>2021-11-15T13:51:13Z</time>
      </trkpt>
      <trkpt lat="46.52576" lon="5.26157">
        <ele>186</ele>
        <time>2021-11-15T13:51:17Z</time>
      </trkpt>
      <trkpt lat="46.52603" lon="5.26201">
        <ele>186.4</ele>
        <time>2021-11-15T13:51:24Z</time>
      </trkpt>
      <trkpt lat="46.52607" lon="5.26206">
        <ele>186.4</ele>
        <time>2021-11-15T13:51:25Z</time>
      </trkpt>
      <trkpt lat="46.5264" lon="5.26234">
        <ele>187.2</ele>
        <time>2021-11-15T13:51:32Z</time>
      </trkpt>
      <trkpt lat="46.5265" lon="5.26241">
        <ele>187.6</ele>
        <time>2021-11-15T13:51:34Z</time>
      </trkpt>
      <trkpt lat="46.52687" lon="5.2626">
        <ele>188</ele>
        <time>2021-11-15T13:51:41Z</time>
      </trkpt>
      <trkpt lat="46.5274" lon="5.26283">
        <ele>188.2</ele>
        <time>2021-11-15T13:51:51Z</time>
      </trkpt>
      <trkpt lat="46.52782" lon="5.26303">
        <ele>188.6</ele>
        <time>2021-11-15T13:51:59Z</time>
      </trkpt>
      <trkpt lat="46.52798" lon="5.26309">
        <ele>188.8</ele>
        <time>2021-11-15T13:52:02Z</time>
      </trkpt>
      <trkpt lat="46.5282" lon="5.26312">
        <ele>189</ele>
        <time>2021-11-15T13:52:06Z</time>
      </trkpt>
      <trkpt lat="46.52831" lon="5.26312">
        <ele>189.2</ele>
        <time>2021-11-15T13:52:08Z</time>
      </trkpt>
      <trkpt lat="46.52878" lon="5.2631">
        <ele>189.6</ele>
        <time>2021-11-15T13:52:16Z</time>
      </trkpt>
      <trkpt lat="46.52913" lon="5.26322">
        <ele>189.4</ele>
        <time>2021-11-15T13:52:22Z</time>
      </trkpt>
      <trkpt lat="46.52965" lon="5.26351">
        <ele>188.8</ele>
        <time>2021-11-15T13:52:31Z</time>
      </trkpt>
      <trkpt lat="46.52971" lon="5.26355">
        <ele>188.8</ele>
        <time>2021-11-15T13:52:32Z</time>
      </trkpt>
      <trkpt lat="46.53022" lon="5.26385">
        <ele>188</ele>
        <time>2021-11-15T13:52:41Z</time>
      </trkpt>
      <trkpt lat="46.53073" lon="5.26415">
        <ele>187.6</ele>
        <time>2021-11-15T13:52:50Z</time>
      </trkpt>
      <trkpt lat="46.53114" lon="5.26431">
        <ele>187.6</ele>
        <time>2021-11-15T13:52:57Z</time>
      </trkpt>
      <trkpt lat="46.53157" lon="5.26437">
        <ele>187.4</ele>
        <time>2021-11-15T13:53:04Z</time>
      </trkpt>
      <trkpt lat="46.53208" lon="5.26445">
        <ele>187.2</ele>
        <time>2021-11-15T13:53:12Z</time>
      </trkpt>
      <trkpt lat="46.53267" lon="5.26455">
        <ele>186.8</ele>
        <time>2021-11-15T13:53:21Z</time>
      </trkpt>
      <trkpt lat="46.5328" lon="5.26457">
        <ele>186.6</ele>
        <time>2021-11-15T13:53:23Z</time>
      </trkpt>
      <trkpt lat="46.53339" lon="5.26466">
        <ele>186.4</ele>
        <time>2021-11-15T13:53:32Z</time>
      </trkpt>
      <trkpt lat="46.53398" lon="5.26467">
        <ele>186.2</ele>
        <time>2021-11-15T13:53:41Z</time>
      </trkpt>
      <trkpt lat="46.53454" lon="5.26468">
        <ele>186.2</ele>
        <time>2021-11-15T13:53:50Z</time>
      </trkpt>
      <trkpt lat="46.53508" lon="5.26473">
        <ele>186.8</ele>
        <time>2021-11-15T13:53:59Z</time>
      </trkpt>
      <trkpt lat="46.53567" lon="5.26481">
        <ele>186.6</ele>
        <time>2021-11-15T13:54:09Z</time>
      </trkpt>
      <trkpt lat="46.53611" lon="5.26478">
        <ele>186.2</ele>
        <time>2021-11-15T13:54:16Z</time>
      </trkpt>
      <trkpt lat="46.5366" lon="5.26484">
        <ele>186.4</ele>
        <time>2021-11-15T13:54:24Z</time>
      </trkpt>
      <trkpt lat="46.53694" lon="5.26476">
        <ele>186.8</ele>
        <time>2021-11-15T13:54:30Z</time>
      </trkpt>
      <trkpt lat="46.53746" lon="5.26454">
        <ele>187</ele>
        <time>2021-11-15T13:54:39Z</time>
      </trkpt>
      <trkpt lat="46.53787" lon="5.26438">
        <ele>187.6</ele>
        <time>2021-11-15T13:54:46Z</time>
      </trkpt>
      <trkpt lat="46.53793" lon="5.26438">
        <ele>187.6</ele>
        <time>2021-11-15T13:54:47Z</time>
      </trkpt>
      <trkpt lat="46.53799" lon="5.26439">
        <ele>187.8</ele>
        <time>2021-11-15T13:54:48Z</time>
      </trkpt>
      <trkpt lat="46.53812" lon="5.26445">
        <ele>187.8</ele>
        <time>2021-11-15T13:54:50Z</time>
      </trkpt>
      <trkpt lat="46.53822" lon="5.26455">
        <ele>187.8</ele>
        <time>2021-11-15T13:54:52Z</time>
      </trkpt>
      <trkpt lat="46.53824" lon="5.26471">
        <ele>187.8</ele>
        <time>2021-11-15T13:54:54Z</time>
      </trkpt>
      <trkpt lat="46.53825" lon="5.26501">
        <ele>187.6</ele>
        <time>2021-11-15T13:54:57Z</time>
      </trkpt>
      <trkpt lat="46.53825" lon="5.2652">
        <ele>187.4</ele>
        <time>2021-11-15T13:54:59Z</time>
      </trkpt>
      <trkpt lat="46.53825" lon="5.26531">
        <ele>187.4</ele>
        <time>2021-11-15T13:55:00Z</time>
      </trkpt>
      <trkpt lat="46.53827" lon="5.26553">
        <ele>187.2</ele>
        <time>2021-11-15T13:55:02Z</time>
      </trkpt>
      <trkpt lat="46.53828" lon="5.26564">
        <ele>186.8</ele>
        <time>2021-11-15T13:55:03Z</time>
      </trkpt>
      <trkpt lat="46.5383" lon="5.26573">
        <ele>186.6</ele>
        <time>2021-11-15T13:55:04Z</time>
      </trkpt>
      <trkpt lat="46.53839" lon="5.26616">
        <ele>185.8</ele>
        <time>2021-11-15T13:55:08Z</time>
      </trkpt>
      <trkpt lat="46.53844" lon="5.26636">
        <ele>185.6</ele>
        <time>2021-11-15T13:55:10Z</time>
      </trkpt>
      <trkpt lat="46.53845" lon="5.26655">
        <ele>185.6</ele>
        <time>2021-11-15T13:55:12Z</time>
      </trkpt>
      <trkpt lat="46.53844" lon="5.26664">
        <ele>185.4</ele>
        <time>2021-11-15T13:55:13Z</time>
      </trkpt>
      <trkpt lat="46.53837" lon="5.26693">
        <ele>185.4</ele>
        <time>2021-11-15T13:55:16Z</time>
      </trkpt>
      <trkpt lat="46.53836" lon="5.26714">
        <ele>185</ele>
        <time>2021-11-15T13:55:18Z</time>
      </trkpt>
      <trkpt lat="46.53836" lon="5.26733">
        <ele>184.8</ele>
        <time>2021-11-15T13:55:20Z</time>
      </trkpt>
      <trkpt lat="46.5384" lon="5.26751">
        <ele>184.8</ele>
        <time>2021-11-15T13:55:22Z</time>
      </trkpt>
      <trkpt lat="46.53863" lon="5.26797">
        <ele>185</ele>
        <time>2021-11-15T13:55:28Z</time>
      </trkpt>
      <trkpt lat="46.53902" lon="5.2686">
        <ele>185.4</ele>
        <time>2021-11-15T13:55:37Z</time>
      </trkpt>
      <trkpt lat="46.53907" lon="5.26867">
        <ele>185.4</ele>
        <time>2021-11-15T13:55:38Z</time>
      </trkpt>
      <trkpt lat="46.53945" lon="5.26926">
        <ele>185.2</ele>
        <time>2021-11-15T13:55:47Z</time>
      </trkpt>
      <trkpt lat="46.53973" lon="5.26985">
        <ele>185.4</ele>
        <time>2021-11-15T13:55:55Z</time>
      </trkpt>
      <trkpt lat="46.5399" lon="5.27024">
        <ele>185.8</ele>
        <time>2021-11-15T13:56:01Z</time>
      </trkpt>
      <trkpt lat="46.53999" lon="5.27047">
        <ele>186.6</ele>
        <time>2021-11-15T13:56:05Z</time>
      </trkpt>
      <trkpt lat="46.5401" lon="5.27075">
        <ele>187.2</ele>
        <time>2021-11-15T13:56:10Z</time>
      </trkpt>
      <trkpt lat="46.54018" lon="5.27097">
        <ele>187.6</ele>
        <time>2021-11-15T13:56:14Z</time>
      </trkpt>
      <trkpt lat="46.5402" lon="5.27102">
        <ele>187.8</ele>
        <time>2021-11-15T13:56:15Z</time>
      </trkpt>
      <trkpt lat="46.54022" lon="5.27108">
        <ele>188</ele>
        <time>2021-11-15T13:56:16Z</time>
      </trkpt>
      <trkpt lat="46.5403" lon="5.2713">
        <ele>188.8</ele>
        <time>2021-11-15T13:56:20Z</time>
      </trkpt>
      <trkpt lat="46.54037" lon="5.27147">
        <ele>189.2</ele>
        <time>2021-11-15T13:56:23Z</time>
      </trkpt>
      <trkpt lat="46.54041" lon="5.27158">
        <ele>189.6</ele>
        <time>2021-11-15T13:56:25Z</time>
      </trkpt>
      <trkpt lat="46.54046" lon="5.27169">
        <ele>189.8</ele>
        <time>2021-11-15T13:56:27Z</time>
      </trkpt>
      <trkpt lat="46.54053" lon="5.27186">
        <ele>190.4</ele>
        <time>2021-11-15T13:56:30Z</time>
      </trkpt>
      <trkpt lat="46.54058" lon="5.27197">
        <ele>190.6</ele>
        <time>2021-11-15T13:56:32Z</time>
      </trkpt>
      <trkpt lat="46.54064" lon="5.27212">
        <ele>191</ele>
        <time>2021-11-15T13:56:35Z</time>
      </trkpt>
      <trkpt lat="46.54075" lon="5.27238">
        <ele>192.2</ele>
        <time>2021-11-15T13:56:40Z</time>
      </trkpt>
      <trkpt lat="46.54077" lon="5.27243">
        <ele>192.2</ele>
        <time>2021-11-15T13:56:41Z</time>
      </trkpt>
      <trkpt lat="46.54086" lon="5.27264">
        <ele>193.2</ele>
        <time>2021-11-15T13:56:45Z</time>
      </trkpt>
      <trkpt lat="46.54095" lon="5.27285">
        <ele>194.4</ele>
        <time>2021-11-15T13:56:49Z</time>
      </trkpt>
      <trkpt lat="46.54097" lon="5.2729">
        <ele>194.4</ele>
        <time>2021-11-15T13:56:50Z</time>
      </trkpt>
      <trkpt lat="46.54105" lon="5.2731">
        <ele>195.4</ele>
        <time>2021-11-15T13:56:54Z</time>
      </trkpt>
      <trkpt lat="46.54114" lon="5.2733">
        <ele>196.8</ele>
        <time>2021-11-15T13:56:58Z</time>
      </trkpt>
      <trkpt lat="46.54118" lon="5.2734">
        <ele>197.2</ele>
        <time>2021-11-15T13:57:00Z</time>
      </trkpt>
      <trkpt lat="46.54128" lon="5.27364">
        <ele>197.8</ele>
        <time>2021-11-15T13:57:05Z</time>
      </trkpt>
      <trkpt lat="46.54136" lon="5.27383">
        <ele>198.6</ele>
        <time>2021-11-15T13:57:09Z</time>
      </trkpt>
      <trkpt lat="46.5414" lon="5.27393">
        <ele>199</ele>
        <time>2021-11-15T13:57:11Z</time>
      </trkpt>
      <trkpt lat="46.5415" lon="5.27418">
        <ele>200.2</ele>
        <time>2021-11-15T13:57:16Z</time>
      </trkpt>
      <trkpt lat="46.54155" lon="5.27428">
        <ele>200.4</ele>
        <time>2021-11-15T13:57:18Z</time>
      </trkpt>
      <trkpt lat="46.54165" lon="5.27452">
        <ele>201.2</ele>
        <time>2021-11-15T13:57:23Z</time>
      </trkpt>
      <trkpt lat="46.54175" lon="5.27476">
        <ele>202.2</ele>
        <time>2021-11-15T13:57:28Z</time>
      </trkpt>
      <trkpt lat="46.54177" lon="5.27481">
        <ele>202.2</ele>
        <time>2021-11-15T13:57:29Z</time>
      </trkpt>
      <trkpt lat="46.54185" lon="5.275">
        <ele>203.4</ele>
        <time>2021-11-15T13:57:33Z</time>
      </trkpt>
      <trkpt lat="46.54195" lon="5.27518">
        <ele>204.4</ele>
        <time>2021-11-15T13:57:37Z</time>
      </trkpt>
      <trkpt lat="46.54212" lon="5.27542">
        <ele>205.6</ele>
        <time>2021-11-15T13:57:43Z</time>
      </trkpt>
      <trkpt lat="46.54229" lon="5.27563">
        <ele>206.6</ele>
        <time>2021-11-15T13:57:48Z</time>
      </trkpt>
      <trkpt lat="46.54236" lon="5.27572">
        <ele>206.8</ele>
        <time>2021-11-15T13:57:50Z</time>
      </trkpt>
      <trkpt lat="46.54253" lon="5.27594">
        <ele>207.2</ele>
        <time>2021-11-15T13:57:55Z</time>
      </trkpt>
      <trkpt lat="46.54259" lon="5.27603">
        <ele>207.6</ele>
        <time>2021-11-15T13:57:57Z</time>
      </trkpt>
      <trkpt lat="46.54297" lon="5.2765">
        <ele>208.4</ele>
        <time>2021-11-15T13:58:07Z</time>
      </trkpt>
      <trkpt lat="46.54334" lon="5.27698">
        <ele>208.6</ele>
        <time>2021-11-15T13:58:16Z</time>
      </trkpt>
      <trkpt lat="46.54339" lon="5.27703">
        <ele>208.6</ele>
        <time>2021-11-15T13:58:17Z</time>
      </trkpt>
      <trkpt lat="46.54377" lon="5.27752">
        <ele>208.6</ele>
        <time>2021-11-15T13:58:26Z</time>
      </trkpt>
      <trkpt lat="46.54411" lon="5.278">
        <ele>208.8</ele>
        <time>2021-11-15T13:58:34Z</time>
      </trkpt>
      <trkpt lat="46.5444" lon="5.27847">
        <ele>208.6</ele>
        <time>2021-11-15T13:58:41Z</time>
      </trkpt>
      <trkpt lat="46.54472" lon="5.27879">
        <ele>208.4</ele>
        <time>2021-11-15T13:58:47Z</time>
      </trkpt>
      <trkpt lat="46.54501" lon="5.27918">
        <ele>208</ele>
        <time>2021-11-15T13:58:53Z</time>
      </trkpt>
      <trkpt lat="46.54533" lon="5.27967">
        <ele>207.6</ele>
        <time>2021-11-15T13:59:00Z</time>
      </trkpt>
      <trkpt lat="46.54541" lon="5.27984">
        <ele>207.6</ele>
        <time>2021-11-15T13:59:02Z</time>
      </trkpt>
      <trkpt lat="46.54552" lon="5.28011">
        <ele>207.2</ele>
        <time>2021-11-15T13:59:05Z</time>
      </trkpt>
      <trkpt lat="46.54557" lon="5.2802">
        <ele>207</ele>
        <time>2021-11-15T13:59:06Z</time>
      </trkpt>
      <trkpt lat="46.54578" lon="5.28053">
        <ele>206.4</ele>
        <time>2021-11-15T13:59:10Z</time>
      </trkpt>
      <trkpt lat="46.54595" lon="5.28077">
        <ele>206</ele>
        <time>2021-11-15T13:59:13Z</time>
      </trkpt>
      <trkpt lat="46.54612" lon="5.28101">
        <ele>205.4</ele>
        <time>2021-11-15T13:59:16Z</time>
      </trkpt>
      <trkpt lat="46.54647" lon="5.28141">
        <ele>204.4</ele>
        <time>2021-11-15T13:59:22Z</time>
      </trkpt>
      <trkpt lat="46.54683" lon="5.28165">
        <ele>203.2</ele>
        <time>2021-11-15T13:59:27Z</time>
      </trkpt>
      <trkpt lat="46.54697" lon="5.28177">
        <ele>202.8</ele>
        <time>2021-11-15T13:59:29Z</time>
      </trkpt>
      <trkpt lat="46.54716" lon="5.28197">
        <ele>202</ele>
        <time>2021-11-15T13:59:32Z</time>
      </trkpt>
      <trkpt lat="46.54728" lon="5.28214">
        <ele>201.2</ele>
        <time>2021-11-15T13:59:34Z</time>
      </trkpt>
      <trkpt lat="46.54734" lon="5.28224">
        <ele>201</ele>
        <time>2021-11-15T13:59:35Z</time>
      </trkpt>
      <trkpt lat="46.54749" lon="5.28254">
        <ele>199.8</ele>
        <time>2021-11-15T13:59:38Z</time>
      </trkpt>
      <trkpt lat="46.54753" lon="5.28265">
        <ele>199.6</ele>
        <time>2021-11-15T13:59:39Z</time>
      </trkpt>
      <trkpt lat="46.54767" lon="5.28296">
        <ele>198.6</ele>
        <time>2021-11-15T13:59:42Z</time>
      </trkpt>
      <trkpt lat="46.54779" lon="5.28324">
        <ele>197.8</ele>
        <time>2021-11-15T13:59:45Z</time>
      </trkpt>
      <trkpt lat="46.54786" lon="5.2834">
        <ele>197.8</ele>
        <time>2021-11-15T13:59:47Z</time>
      </trkpt>
      <trkpt lat="46.54792" lon="5.28355">
        <ele>197.6</ele>
        <time>2021-11-15T13:59:49Z</time>
      </trkpt>
      <trkpt lat="46.54801" lon="5.28366">
        <ele>197.8</ele>
        <time>2021-11-15T13:59:51Z</time>
      </trkpt>
      <trkpt lat="46.54807" lon="5.28371">
        <ele>197.8</ele>
        <time>2021-11-15T13:59:52Z</time>
      </trkpt>
      <trkpt lat="46.54849" lon="5.28396">
        <ele>197.6</ele>
        <time>2021-11-15T13:59:58Z</time>
      </trkpt>
      <trkpt lat="46.54887" lon="5.28423">
        <ele>196.4</ele>
        <time>2021-11-15T14:00:03Z</time>
      </trkpt>
      <trkpt lat="46.54894" lon="5.28429">
        <ele>196.2</ele>
        <time>2021-11-15T14:00:04Z</time>
      </trkpt>
      <trkpt lat="46.54916" lon="5.28444">
        <ele>195.6</ele>
        <time>2021-11-15T14:00:07Z</time>
      </trkpt>
      <trkpt lat="46.54924" lon="5.28447">
        <ele>195.6</ele>
        <time>2021-11-15T14:00:08Z</time>
      </trkpt>
      <trkpt lat="46.54931" lon="5.28449">
        <ele>195.4</ele>
        <time>2021-11-15T14:00:09Z</time>
      </trkpt>
      <trkpt lat="46.54946" lon="5.28448">
        <ele>194.8</ele>
        <time>2021-11-15T14:00:11Z</time>
      </trkpt>
      <trkpt lat="46.54961" lon="5.28443">
        <ele>194.2</ele>
        <time>2021-11-15T14:00:13Z</time>
      </trkpt>
      <trkpt lat="46.54974" lon="5.28437">
        <ele>194</ele>
        <time>2021-11-15T14:00:15Z</time>
      </trkpt>
      <trkpt lat="46.54981" lon="5.28432">
        <ele>193.8</ele>
        <time>2021-11-15T14:00:16Z</time>
      </trkpt>
      <trkpt lat="46.55" lon="5.28419">
        <ele>193.2</ele>
        <time>2021-11-15T14:00:19Z</time>
      </trkpt>
      <trkpt lat="46.5502" lon="5.28407">
        <ele>193.2</ele>
        <time>2021-11-15T14:00:22Z</time>
      </trkpt>
      <trkpt lat="46.55076" lon="5.28386">
        <ele>193.2</ele>
        <time>2021-11-15T14:00:30Z</time>
      </trkpt>
      <trkpt lat="46.55084" lon="5.28384">
        <ele>193.4</ele>
        <time>2021-11-15T14:00:31Z</time>
      </trkpt>
      <trkpt lat="46.55098" lon="5.28382">
        <ele>193.4</ele>
        <time>2021-11-15T14:00:33Z</time>
      </trkpt>
      <trkpt lat="46.5512" lon="5.28386">
        <ele>193.2</ele>
        <time>2021-11-15T14:00:36Z</time>
      </trkpt>
      <trkpt lat="46.55165" lon="5.28403">
        <ele>193</ele>
        <time>2021-11-15T14:00:43Z</time>
      </trkpt>
      <trkpt lat="46.55216" lon="5.28423">
        <ele>193</ele>
        <time>2021-11-15T14:00:51Z</time>
      </trkpt>
      <trkpt lat="46.55237" lon="5.28428">
        <ele>193</ele>
        <time>2021-11-15T14:00:54Z</time>
      </trkpt>
      <trkpt lat="46.55245" lon="5.28427">
        <ele>193</ele>
        <time>2021-11-15T14:00:55Z</time>
      </trkpt>
      <trkpt lat="46.55252" lon="5.28424">
        <ele>193</ele>
        <time>2021-11-15T14:00:56Z</time>
      </trkpt>
      <trkpt lat="46.55265" lon="5.28412">
        <ele>192.4</ele>
        <time>2021-11-15T14:00:58Z</time>
      </trkpt>
      <trkpt lat="46.55271" lon="5.28405">
        <ele>192</ele>
        <time>2021-11-15T14:00:59Z</time>
      </trkpt>
      <trkpt lat="46.55287" lon="5.2838">
        <ele>191</ele>
        <time>2021-11-15T14:01:02Z</time>
      </trkpt>
      <trkpt lat="46.55302" lon="5.28353">
        <ele>189.8</ele>
        <time>2021-11-15T14:01:05Z</time>
      </trkpt>
      <trkpt lat="46.55322" lon="5.28318">
        <ele>188.6</ele>
        <time>2021-11-15T14:01:09Z</time>
      </trkpt>
      <trkpt lat="46.55332" lon="5.28301">
        <ele>188.4</ele>
        <time>2021-11-15T14:01:11Z</time>
      </trkpt>
      <trkpt lat="46.55357" lon="5.2826">
        <ele>187.6</ele>
        <time>2021-11-15T14:01:16Z</time>
      </trkpt>
      <trkpt lat="46.55363" lon="5.28253">
        <ele>187.4</ele>
        <time>2021-11-15T14:01:17Z</time>
      </trkpt>
      <trkpt lat="46.554" lon="5.28217">
        <ele>186.6</ele>
        <time>2021-11-15T14:01:23Z</time>
      </trkpt>
      <trkpt lat="46.55406" lon="5.28212">
        <ele>186.4</ele>
        <time>2021-11-15T14:01:24Z</time>
      </trkpt>
      <trkpt lat="46.55448" lon="5.2818">
        <ele>185.8</ele>
        <time>2021-11-15T14:01:31Z</time>
      </trkpt>
      <trkpt lat="46.55459" lon="5.28167">
        <ele>185.8</ele>
        <time>2021-11-15T14:01:33Z</time>
      </trkpt>
      <trkpt lat="46.55465" lon="5.28151">
        <ele>185.8</ele>
        <time>2021-11-15T14:01:35Z</time>
      </trkpt>
      <trkpt lat="46.55472" lon="5.28105">
        <ele>185.6</ele>
        <time>2021-11-15T14:01:40Z</time>
      </trkpt>
      <trkpt lat="46.5548" lon="5.2809">
        <ele>185.6</ele>
        <time>2021-11-15T14:01:42Z</time>
      </trkpt>
      <trkpt lat="46.55484" lon="5.28084">
        <ele>185.6</ele>
        <time>2021-11-15T14:01:43Z</time>
      </trkpt>
      <trkpt lat="46.55517" lon="5.28043">
        <ele>185.6</ele>
        <time>2021-11-15T14:01:50Z</time>
      </trkpt>
      <trkpt lat="46.55521" lon="5.28037">
        <ele>185.4</ele>
        <time>2021-11-15T14:01:51Z</time>
      </trkpt>
      <trkpt lat="46.55536" lon="5.28019">
        <ele>185.6</ele>
        <time>2021-11-15T14:01:54Z</time>
      </trkpt>
      <trkpt lat="46.55546" lon="5.2801">
        <ele>185.6</ele>
        <time>2021-11-15T14:01:56Z</time>
      </trkpt>
      <trkpt lat="46.55564" lon="5.28001">
        <ele>185.6</ele>
        <time>2021-11-15T14:01:59Z</time>
      </trkpt>
      <trkpt lat="46.55575" lon="5.27994">
        <ele>185.6</ele>
        <time>2021-11-15T14:02:01Z</time>
      </trkpt>
      <trkpt lat="46.5562" lon="5.27958">
        <ele>185.6</ele>
        <time>2021-11-15T14:02:09Z</time>
      </trkpt>
      <trkpt lat="46.55657" lon="5.27927">
        <ele>185.4</ele>
        <time>2021-11-15T14:02:16Z</time>
      </trkpt>
      <trkpt lat="46.55663" lon="5.27925">
        <ele>185.2</ele>
        <time>2021-11-15T14:02:17Z</time>
      </trkpt>
      <trkpt lat="46.55669" lon="5.27926">
        <ele>185.2</ele>
        <time>2021-11-15T14:02:18Z</time>
      </trkpt>
      <trkpt lat="46.5568" lon="5.27932">
        <ele>185.2</ele>
        <time>2021-11-15T14:02:20Z</time>
      </trkpt>
      <trkpt lat="46.55689" lon="5.27944">
        <ele>185.4</ele>
        <time>2021-11-15T14:02:22Z</time>
      </trkpt>
      <trkpt lat="46.55696" lon="5.27959">
        <ele>185.4</ele>
        <time>2021-11-15T14:02:24Z</time>
      </trkpt>
      <trkpt lat="46.55718" lon="5.28001">
        <ele>185.8</ele>
        <time>2021-11-15T14:02:30Z</time>
      </trkpt>
      <trkpt lat="46.55749" lon="5.28067">
        <ele>186.2</ele>
        <time>2021-11-15T14:02:39Z</time>
      </trkpt>
      <trkpt lat="46.55753" lon="5.28074">
        <ele>186.2</ele>
        <time>2021-11-15T14:02:40Z</time>
      </trkpt>
      <trkpt lat="46.5577" lon="5.28108">
        <ele>186.2</ele>
        <time>2021-11-15T14:02:45Z</time>
      </trkpt>
      <trkpt lat="46.55792" lon="5.28155">
        <ele>186.4</ele>
        <time>2021-11-15T14:02:52Z</time>
      </trkpt>
      <trkpt lat="46.55801" lon="5.2816">
        <ele>186.6</ele>
        <time>2021-11-15T14:02:54Z</time>
      </trkpt>
      <trkpt lat="46.55806" lon="5.2816">
        <ele>186.8</ele>
        <time>2021-11-15T14:02:55Z</time>
      </trkpt>
      <trkpt lat="46.55811" lon="5.28158">
        <ele>186.8</ele>
        <time>2021-11-15T14:02:56Z</time>
      </trkpt>
      <trkpt lat="46.55822" lon="5.28154">
        <ele>187</ele>
        <time>2021-11-15T14:02:58Z</time>
      </trkpt>
      <trkpt lat="46.55834" lon="5.28152">
        <ele>187.4</ele>
        <time>2021-11-15T14:03:00Z</time>
      </trkpt>
      <trkpt lat="46.5584" lon="5.28151">
        <ele>187.4</ele>
        <time>2021-11-15T14:03:01Z</time>
      </trkpt>
      <trkpt lat="46.55858" lon="5.28154">
        <ele>187.6</ele>
        <time>2021-11-15T14:03:04Z</time>
      </trkpt>
      <trkpt lat="46.55864" lon="5.28157">
        <ele>187.8</ele>
        <time>2021-11-15T14:03:05Z</time>
      </trkpt>
      <trkpt lat="46.55898" lon="5.28179">
        <ele>188.2</ele>
        <time>2021-11-15T14:03:11Z</time>
      </trkpt>
      <trkpt lat="46.55922" lon="5.28207">
        <ele>188.2</ele>
        <time>2021-11-15T14:03:16Z</time>
      </trkpt>
      <trkpt lat="46.55927" lon="5.28213">
        <ele>188.2</ele>
        <time>2021-11-15T14:03:17Z</time>
      </trkpt>
      <trkpt lat="46.55939" lon="5.28221">
        <ele>188</ele>
        <time>2021-11-15T14:03:19Z</time>
      </trkpt>
      <trkpt lat="46.55946" lon="5.28223">
        <ele>188</ele>
        <time>2021-11-15T14:03:20Z</time>
      </trkpt>
      <trkpt lat="46.55993" lon="5.28227">
        <ele>187.2</ele>
        <time>2021-11-15T14:03:27Z</time>
      </trkpt>
      <trkpt lat="46.56033" lon="5.28224">
        <ele>186.6</ele>
        <time>2021-11-15T14:03:33Z</time>
      </trkpt>
      <trkpt lat="46.5604" lon="5.28223">
        <ele>186.6</ele>
        <time>2021-11-15T14:03:34Z</time>
      </trkpt>
      <trkpt lat="46.56088" lon="5.28216">
        <ele>186.4</ele>
        <time>2021-11-15T14:03:42Z</time>
      </trkpt>
      <trkpt lat="46.56127" lon="5.28212">
        <ele>187.2</ele>
        <time>2021-11-15T14:03:49Z</time>
      </trkpt>
      <trkpt lat="46.56149" lon="5.28206">
        <ele>187.6</ele>
        <time>2021-11-15T14:03:53Z</time>
      </trkpt>
      <trkpt lat="46.56159" lon="5.28201">
        <ele>188</ele>
        <time>2021-11-15T14:03:55Z</time>
      </trkpt>
      <trkpt lat="46.56168" lon="5.28192">
        <ele>188.2</ele>
        <time>2021-11-15T14:03:57Z</time>
      </trkpt>
      <trkpt lat="46.56174" lon="5.28182">
        <ele>188.2</ele>
        <time>2021-11-15T14:03:59Z</time>
      </trkpt>
      <trkpt lat="46.56181" lon="5.28164">
        <ele>188.8</ele>
        <time>2021-11-15T14:04:02Z</time>
      </trkpt>
      <trkpt lat="46.56193" lon="5.2814">
        <ele>189.8</ele>
        <time>2021-11-15T14:04:06Z</time>
      </trkpt>
      <trkpt lat="46.56197" lon="5.28135">
        <ele>190.2</ele>
        <time>2021-11-15T14:04:07Z</time>
      </trkpt>
      <trkpt lat="46.5621" lon="5.2812">
        <ele>190.8</ele>
        <time>2021-11-15T14:04:10Z</time>
      </trkpt>
      <trkpt lat="46.56214" lon="5.28117">
        <ele>191</ele>
        <time>2021-11-15T14:04:11Z</time>
      </trkpt>
      <trkpt lat="46.56219" lon="5.28113">
        <ele>191.2</ele>
        <time>2021-11-15T14:04:12Z</time>
      </trkpt>
      <trkpt lat="46.56246" lon="5.2809">
        <ele>192</ele>
        <time>2021-11-15T14:04:18Z</time>
      </trkpt>
      <trkpt lat="46.56254" lon="5.28082">
        <ele>192.2</ele>
        <time>2021-11-15T14:04:20Z</time>
      </trkpt>
      <trkpt lat="46.56269" lon="5.28066">
        <ele>192.6</ele>
        <time>2021-11-15T14:04:24Z</time>
      </trkpt>
      <trkpt lat="46.56281" lon="5.28044">
        <ele>193.2</ele>
        <time>2021-11-15T14:04:28Z</time>
      </trkpt>
      <trkpt lat="46.56284" lon="5.28038">
        <ele>193.4</ele>
        <time>2021-11-15T14:04:29Z</time>
      </trkpt>
      <trkpt lat="46.56287" lon="5.28031">
        <ele>193.4</ele>
        <time>2021-11-15T14:04:30Z</time>
      </trkpt>
      <trkpt lat="46.56291" lon="5.28024">
        <ele>193.4</ele>
        <time>2021-11-15T14:04:31Z</time>
      </trkpt>
      <trkpt lat="46.56304" lon="5.28004">
        <ele>193.4</ele>
        <time>2021-11-15T14:04:34Z</time>
      </trkpt>
      <trkpt lat="46.56338" lon="5.27957">
        <ele>192</ele>
        <time>2021-11-15T14:04:41Z</time>
      </trkpt>
      <trkpt lat="46.56343" lon="5.2795">
        <ele>192</ele>
        <time>2021-11-15T14:04:42Z</time>
      </trkpt>
      <trkpt lat="46.56377" lon="5.27916">
        <ele>191.4</ele>
        <time>2021-11-15T14:04:48Z</time>
      </trkpt>
      <trkpt lat="46.56383" lon="5.27911">
        <ele>191</ele>
        <time>2021-11-15T14:04:49Z</time>
      </trkpt>
      <trkpt lat="46.56407" lon="5.2789">
        <ele>189.8</ele>
        <time>2021-11-15T14:04:53Z</time>
      </trkpt>
      <trkpt lat="46.56432" lon="5.27867">
        <ele>189.2</ele>
        <time>2021-11-15T14:04:57Z</time>
      </trkpt>
      <trkpt lat="46.56444" lon="5.27856">
        <ele>188.6</ele>
        <time>2021-11-15T14:04:59Z</time>
      </trkpt>
      <trkpt lat="46.5649" lon="5.27817">
        <ele>187.6</ele>
        <time>2021-11-15T14:05:06Z</time>
      </trkpt>
      <trkpt lat="46.56533" lon="5.27785">
        <ele>186.6</ele>
        <time>2021-11-15T14:05:12Z</time>
      </trkpt>
      <trkpt lat="46.56554" lon="5.27772">
        <ele>185.8</ele>
        <time>2021-11-15T14:05:15Z</time>
      </trkpt>
      <trkpt lat="46.56585" lon="5.27753">
        <ele>185.8</ele>
        <time>2021-11-15T14:05:20Z</time>
      </trkpt>
      <trkpt lat="46.56612" lon="5.27727">
        <ele>185.8</ele>
        <time>2021-11-15T14:05:25Z</time>
      </trkpt>
      <trkpt lat="46.56627" lon="5.277">
        <ele>186.4</ele>
        <time>2021-11-15T14:05:29Z</time>
      </trkpt>
      <trkpt lat="46.5663" lon="5.27694">
        <ele>186.4</ele>
        <time>2021-11-15T14:05:30Z</time>
      </trkpt>
      <trkpt lat="46.56643" lon="5.27649">
        <ele>187</ele>
        <time>2021-11-15T14:05:36Z</time>
      </trkpt>
      <trkpt lat="46.56654" lon="5.276">
        <ele>187.8</ele>
        <time>2021-11-15T14:05:43Z</time>
      </trkpt>
      <trkpt lat="46.56661" lon="5.27573">
        <ele>188.4</ele>
        <time>2021-11-15T14:05:47Z</time>
      </trkpt>
      <trkpt lat="46.56667" lon="5.27554">
        <ele>189</ele>
        <time>2021-11-15T14:05:50Z</time>
      </trkpt>
      <trkpt lat="46.56675" lon="5.27533">
        <ele>189.8</ele>
        <time>2021-11-15T14:05:54Z</time>
      </trkpt>
      <trkpt lat="46.56677" lon="5.27527">
        <ele>190</ele>
        <time>2021-11-15T14:05:55Z</time>
      </trkpt>
      <trkpt lat="46.56679" lon="5.27522">
        <ele>190</ele>
        <time>2021-11-15T14:05:56Z</time>
      </trkpt>
      <trkpt lat="46.56686" lon="5.27502">
        <ele>191</ele>
        <time>2021-11-15T14:06:00Z</time>
      </trkpt>
      <trkpt lat="46.56688" lon="5.27497">
        <ele>191.4</ele>
        <time>2021-11-15T14:06:01Z</time>
      </trkpt>
      <trkpt lat="46.56694" lon="5.27481">
        <ele>192.6</ele>
        <time>2021-11-15T14:06:05Z</time>
      </trkpt>
      <trkpt lat="46.56697" lon="5.27469">
        <ele>193.4</ele>
        <time>2021-11-15T14:06:08Z</time>
      </trkpt>
      <trkpt lat="46.567" lon="5.27457">
        <ele>194.2</ele>
        <time>2021-11-15T14:06:11Z</time>
      </trkpt>
      <trkpt lat="46.56701" lon="5.27453">
        <ele>194.4</ele>
        <time>2021-11-15T14:06:12Z</time>
      </trkpt>
      <trkpt lat="46.56706" lon="5.27437">
        <ele>195.6</ele>
        <time>2021-11-15T14:06:16Z</time>
      </trkpt>
      <trkpt lat="46.56708" lon="5.27428">
        <ele>196.4</ele>
        <time>2021-11-15T14:06:18Z</time>
      </trkpt>
      <trkpt lat="46.56711" lon="5.27417">
        <ele>197.2</ele>
        <time>2021-11-15T14:06:20Z</time>
      </trkpt>
      <trkpt lat="46.56717" lon="5.27395">
        <ele>198.2</ele>
        <time>2021-11-15T14:06:24Z</time>
      </trkpt>
      <trkpt lat="46.56721" lon="5.27384">
        <ele>199</ele>
        <time>2021-11-15T14:06:26Z</time>
      </trkpt>
      <trkpt lat="46.56723" lon="5.27374">
        <ele>199.4</ele>
        <time>2021-11-15T14:06:28Z</time>
      </trkpt>
      <trkpt lat="46.56727" lon="5.27358">
        <ele>200</ele>
        <time>2021-11-15T14:06:31Z</time>
      </trkpt>
      <trkpt lat="46.56729" lon="5.27352">
        <ele>200.4</ele>
        <time>2021-11-15T14:06:32Z</time>
      </trkpt>
      <trkpt lat="46.56732" lon="5.27335">
        <ele>201.6</ele>
        <time>2021-11-15T14:06:35Z</time>
      </trkpt>
      <trkpt lat="46.56733" lon="5.27316">
        <ele>202.8</ele>
        <time>2021-11-15T14:06:38Z</time>
      </trkpt>
      <trkpt lat="46.56735" lon="5.2731">
        <ele>203</ele>
        <time>2021-11-15T14:06:39Z</time>
      </trkpt>
      <trkpt lat="46.56741" lon="5.27275">
        <ele>204</ele>
        <time>2021-11-15T14:06:44Z</time>
      </trkpt>
      <trkpt lat="46.56742" lon="5.27267">
        <ele>204.2</ele>
        <time>2021-11-15T14:06:45Z</time>
      </trkpt>
      <trkpt lat="46.56751" lon="5.27216">
        <ele>204.4</ele>
        <time>2021-11-15T14:06:51Z</time>
      </trkpt>
      <trkpt lat="46.5676" lon="5.27178">
        <ele>204</ele>
        <time>2021-11-15T14:06:55Z</time>
      </trkpt>
      <trkpt lat="46.56767" lon="5.27161">
        <ele>203.6</ele>
        <time>2021-11-15T14:06:57Z</time>
      </trkpt>
      <trkpt lat="46.56778" lon="5.27135">
        <ele>202.6</ele>
        <time>2021-11-15T14:07:00Z</time>
      </trkpt>
      <trkpt lat="46.56795" lon="5.27098">
        <ele>202.4</ele>
        <time>2021-11-15T14:07:04Z</time>
      </trkpt>
      <trkpt lat="46.56811" lon="5.27059">
        <ele>201.6</ele>
        <time>2021-11-15T14:07:08Z</time>
      </trkpt>
      <trkpt lat="46.56822" lon="5.27031">
        <ele>201</ele>
        <time>2021-11-15T14:07:11Z</time>
      </trkpt>
      <trkpt lat="46.56846" lon="5.26968">
        <ele>200.6</ele>
        <time>2021-11-15T14:07:18Z</time>
      </trkpt>
      <trkpt lat="46.5687" lon="5.26913">
        <ele>201.2</ele>
        <time>2021-11-15T14:07:25Z</time>
      </trkpt>
      <trkpt lat="46.56883" lon="5.26887">
        <ele>201.8</ele>
        <time>2021-11-15T14:07:29Z</time>
      </trkpt>
      <trkpt lat="46.56886" lon="5.26881">
        <ele>202</ele>
        <time>2021-11-15T14:07:30Z</time>
      </trkpt>
      <trkpt lat="46.56902" lon="5.26844">
        <ele>202.6</ele>
        <time>2021-11-15T14:07:36Z</time>
      </trkpt>
      <trkpt lat="46.5691" lon="5.26825">
        <ele>202.6</ele>
        <time>2021-11-15T14:07:39Z</time>
      </trkpt>
      <trkpt lat="46.56924" lon="5.26783">
        <ele>203.4</ele>
        <time>2021-11-15T14:07:45Z</time>
      </trkpt>
      <trkpt lat="46.56929" lon="5.26767">
        <ele>203.8</ele>
        <time>2021-11-15T14:07:47Z</time>
      </trkpt>
      <trkpt lat="46.56938" lon="5.26726">
        <ele>204.8</ele>
        <time>2021-11-15T14:07:52Z</time>
      </trkpt>
      <trkpt lat="46.56945" lon="5.26698">
        <ele>205</ele>
        <time>2021-11-15T14:07:55Z</time>
      </trkpt>
      <trkpt lat="46.56953" lon="5.26679">
        <ele>204.8</ele>
        <time>2021-11-15T14:07:57Z</time>
      </trkpt>
      <trkpt lat="46.56979" lon="5.26633">
        <ele>203.6</ele>
        <time>2021-11-15T14:08:02Z</time>
      </trkpt>
      <trkpt lat="46.56991" lon="5.26615">
        <ele>202.6</ele>
        <time>2021-11-15T14:08:04Z</time>
      </trkpt>
      <trkpt lat="46.57009" lon="5.26584">
        <ele>201.4</ele>
        <time>2021-11-15T14:08:07Z</time>
      </trkpt>
      <trkpt lat="46.5702" lon="5.26561">
        <ele>200.2</ele>
        <time>2021-11-15T14:08:09Z</time>
      </trkpt>
      <trkpt lat="46.5703" lon="5.26536">
        <ele>199</ele>
        <time>2021-11-15T14:08:11Z</time>
      </trkpt>
      <trkpt lat="46.57046" lon="5.26499">
        <ele>197.4</ele>
        <time>2021-11-15T14:08:14Z</time>
      </trkpt>
      <trkpt lat="46.57057" lon="5.26473">
        <ele>196.4</ele>
        <time>2021-11-15T14:08:16Z</time>
      </trkpt>
      <trkpt lat="46.57077" lon="5.26429">
        <ele>195.2</ele>
        <time>2021-11-15T14:08:20Z</time>
      </trkpt>
      <trkpt lat="46.57081" lon="5.26419">
        <ele>195.2</ele>
        <time>2021-11-15T14:08:21Z</time>
      </trkpt>
      <trkpt lat="46.57105" lon="5.26377">
        <ele>194.8</ele>
        <time>2021-11-15T14:08:26Z</time>
      </trkpt>
      <trkpt lat="46.57127" lon="5.26351">
        <ele>195</ele>
        <time>2021-11-15T14:08:31Z</time>
      </trkpt>
      <trkpt lat="46.57135" lon="5.26344">
        <ele>195</ele>
        <time>2021-11-15T14:08:33Z</time>
      </trkpt>
      <trkpt lat="46.5715" lon="5.26332">
        <ele>196.4</ele>
        <time>2021-11-15T14:08:37Z</time>
      </trkpt>
      <trkpt lat="46.57154" lon="5.26329">
        <ele>196.8</ele>
        <time>2021-11-15T14:08:38Z</time>
      </trkpt>
      <trkpt lat="46.57158" lon="5.26326">
        <ele>197.4</ele>
        <time>2021-11-15T14:08:39Z</time>
      </trkpt>
      <trkpt lat="46.57165" lon="5.26319">
        <ele>198</ele>
        <time>2021-11-15T14:08:41Z</time>
      </trkpt>
      <trkpt lat="46.57173" lon="5.26312">
        <ele>198.6</ele>
        <time>2021-11-15T14:08:43Z</time>
      </trkpt>
      <trkpt lat="46.57188" lon="5.26295">
        <ele>199.6</ele>
        <time>2021-11-15T14:08:47Z</time>
      </trkpt>
      <trkpt lat="46.57199" lon="5.26283">
        <ele>200.6</ele>
        <time>2021-11-15T14:08:50Z</time>
      </trkpt>
      <trkpt lat="46.57202" lon="5.26279">
        <ele>200.6</ele>
        <time>2021-11-15T14:08:51Z</time>
      </trkpt>
      <trkpt lat="46.57212" lon="5.26268">
        <ele>201.8</ele>
        <time>2021-11-15T14:08:54Z</time>
      </trkpt>
      <trkpt lat="46.57219" lon="5.2626">
        <ele>202.2</ele>
        <time>2021-11-15T14:08:56Z</time>
      </trkpt>
      <trkpt lat="46.57229" lon="5.26247">
        <ele>202.8</ele>
        <time>2021-11-15T14:08:59Z</time>
      </trkpt>
      <trkpt lat="46.57241" lon="5.2623">
        <ele>203.8</ele>
        <time>2021-11-15T14:09:03Z</time>
      </trkpt>
      <trkpt lat="46.57245" lon="5.26225">
        <ele>204</ele>
        <time>2021-11-15T14:09:04Z</time>
      </trkpt>
      <trkpt lat="46.57267" lon="5.26203">
        <ele>205</ele>
        <time>2021-11-15T14:09:10Z</time>
      </trkpt>
      <trkpt lat="46.5727" lon="5.262">
        <ele>205.4</ele>
        <time>2021-11-15T14:09:11Z</time>
      </trkpt>
      <trkpt lat="46.57287" lon="5.26184">
        <ele>206.2</ele>
        <time>2021-11-15T14:09:15Z</time>
      </trkpt>
      <trkpt lat="46.57295" lon="5.26176">
        <ele>206.6</ele>
        <time>2021-11-15T14:09:17Z</time>
      </trkpt>
      <trkpt lat="46.57307" lon="5.26163">
        <ele>207.4</ele>
        <time>2021-11-15T14:09:20Z</time>
      </trkpt>
      <trkpt lat="46.57331" lon="5.26136">
        <ele>208</ele>
        <time>2021-11-15T14:09:26Z</time>
      </trkpt>
      <trkpt lat="46.57367" lon="5.26098">
        <ele>208.2</ele>
        <time>2021-11-15T14:09:35Z</time>
      </trkpt>
      <trkpt lat="46.57371" lon="5.26094">
        <ele>208.4</ele>
        <time>2021-11-15T14:09:36Z</time>
      </trkpt>
      <trkpt lat="46.57403" lon="5.26059">
        <ele>208</ele>
        <time>2021-11-15T14:09:43Z</time>
      </trkpt>
      <trkpt lat="46.57444" lon="5.26015">
        <ele>207.4</ele>
        <time>2021-11-15T14:09:51Z</time>
      </trkpt>
      <trkpt lat="46.57449" lon="5.26008">
        <ele>207.2</ele>
        <time>2021-11-15T14:09:52Z</time>
      </trkpt>
      <trkpt lat="46.57463" lon="5.25983">
        <ele>206.8</ele>
        <time>2021-11-15T14:09:55Z</time>
      </trkpt>
      <trkpt lat="46.57467" lon="5.25973">
        <ele>206.4</ele>
        <time>2021-11-15T14:09:56Z</time>
      </trkpt>
      <trkpt lat="46.57472" lon="5.25953">
        <ele>206</ele>
        <time>2021-11-15T14:09:58Z</time>
      </trkpt>
      <trkpt lat="46.57478" lon="5.25926">
        <ele>205.4</ele>
        <time>2021-11-15T14:10:00Z</time>
      </trkpt>
      <trkpt lat="46.57482" lon="5.25902">
        <ele>205</ele>
        <time>2021-11-15T14:10:02Z</time>
      </trkpt>
      <trkpt lat="46.57486" lon="5.25876">
        <ele>203.8</ele>
        <time>2021-11-15T14:10:04Z</time>
      </trkpt>
      <trkpt lat="46.57493" lon="5.25838">
        <ele>202.6</ele>
        <time>2021-11-15T14:10:07Z</time>
      </trkpt>
      <trkpt lat="46.57507" lon="5.25779">
        <ele>201.6</ele>
        <time>2021-11-15T14:10:12Z</time>
      </trkpt>
      <trkpt lat="46.5751" lon="5.25768">
        <ele>201.6</ele>
        <time>2021-11-15T14:10:13Z</time>
      </trkpt>
      <trkpt lat="46.57533" lon="5.25707">
        <ele>200.8</ele>
        <time>2021-11-15T14:10:19Z</time>
      </trkpt>
      <trkpt lat="46.5754" lon="5.25687">
        <ele>200.4</ele>
        <time>2021-11-15T14:10:21Z</time>
      </trkpt>
      <trkpt lat="46.5756" lon="5.25631">
        <ele>199.4</ele>
        <time>2021-11-15T14:10:27Z</time>
      </trkpt>
      <trkpt lat="46.57568" lon="5.25605">
        <ele>199</ele>
        <time>2021-11-15T14:10:30Z</time>
      </trkpt>
      <trkpt lat="46.57576" lon="5.25595">
        <ele>199</ele>
        <time>2021-11-15T14:10:32Z</time>
      </trkpt>
      <trkpt lat="46.57583" lon="5.25597">
        <ele>198.8</ele>
        <time>2021-11-15T14:10:34Z</time>
      </trkpt>
      <trkpt lat="46.57586" lon="5.256">
        <ele>198.8</ele>
        <time>2021-11-15T14:10:35Z</time>
      </trkpt>
      <trkpt lat="46.57587" lon="5.25605">
        <ele>198.8</ele>
        <time>2021-11-15T14:10:36Z</time>
      </trkpt>
      <trkpt lat="46.57589" lon="5.25615">
        <ele>198.8</ele>
        <time>2021-11-15T14:10:38Z</time>
      </trkpt>
      <trkpt lat="46.57597" lon="5.25646">
        <ele>199.8</ele>
        <time>2021-11-15T14:10:44Z</time>
      </trkpt>
      <trkpt lat="46.57602" lon="5.25662">
        <ele>200.8</ele>
        <time>2021-11-15T14:10:47Z</time>
      </trkpt>
      <trkpt lat="46.57604" lon="5.25672">
        <ele>201.8</ele>
        <time>2021-11-15T14:10:49Z</time>
      </trkpt>
      <trkpt lat="46.5761" lon="5.25699">
        <ele>203.2</ele>
        <time>2021-11-15T14:10:54Z</time>
      </trkpt>
      <trkpt lat="46.57613" lon="5.25711">
        <ele>203.6</ele>
        <time>2021-11-15T14:10:56Z</time>
      </trkpt>
      <trkpt lat="46.57619" lon="5.25732">
        <ele>204.2</ele>
        <time>2021-11-15T14:10:59Z</time>
      </trkpt>
      <trkpt lat="46.5763" lon="5.25771">
        <ele>205.4</ele>
        <time>2021-11-15T14:11:05Z</time>
      </trkpt>
      <trkpt lat="46.57635" lon="5.25784">
        <ele>205.4</ele>
        <time>2021-11-15T14:11:07Z</time>
      </trkpt>
      <trkpt lat="46.57645" lon="5.25814">
        <ele>206</ele>
        <time>2021-11-15T14:11:11Z</time>
      </trkpt>
      <trkpt lat="46.57654" lon="5.25842">
        <ele>206.4</ele>
        <time>2021-11-15T14:11:15Z</time>
      </trkpt>
      <trkpt lat="46.57659" lon="5.25858">
        <ele>206.4</ele>
        <time>2021-11-15T14:11:17Z</time>
      </trkpt>
      <trkpt lat="46.57664" lon="5.25874">
        <ele>206.4</ele>
        <time>2021-11-15T14:11:19Z</time>
      </trkpt>
      <trkpt lat="46.57677" lon="5.25919">
        <ele>206.2</ele>
        <time>2021-11-15T14:11:24Z</time>
      </trkpt>
      <trkpt lat="46.577" lon="5.25991">
        <ele>205.4</ele>
        <time>2021-11-15T14:11:32Z</time>
      </trkpt>
      <trkpt lat="46.57703" lon="5.26001">
        <ele>205.4</ele>
        <time>2021-11-15T14:11:33Z</time>
      </trkpt>
      <trkpt lat="46.5771" lon="5.26021">
        <ele>205.2</ele>
        <time>2021-11-15T14:11:35Z</time>
      </trkpt>
      <trkpt lat="46.57722" lon="5.26053">
        <ele>204.8</ele>
        <time>2021-11-15T14:11:38Z</time>
      </trkpt>
      <trkpt lat="46.57735" lon="5.26087">
        <ele>204</ele>
        <time>2021-11-15T14:11:41Z</time>
      </trkpt>
      <trkpt lat="46.57748" lon="5.26121">
        <ele>202.8</ele>
        <time>2021-11-15T14:11:44Z</time>
      </trkpt>
      <trkpt lat="46.57751" lon="5.2613">
        <ele>202.6</ele>
        <time>2021-11-15T14:11:45Z</time>
      </trkpt>
      <trkpt lat="46.57763" lon="5.26162">
        <ele>201.8</ele>
        <time>2021-11-15T14:11:48Z</time>
      </trkpt>
      <trkpt lat="46.57786" lon="5.26222">
        <ele>201.2</ele>
        <time>2021-11-15T14:11:54Z</time>
      </trkpt>
      <trkpt lat="46.57805" lon="5.26271">
        <ele>200.8</ele>
        <time>2021-11-15T14:11:59Z</time>
      </trkpt>
      <trkpt lat="46.57817" lon="5.26305">
        <ele>200.6</ele>
        <time>2021-11-15T14:12:03Z</time>
      </trkpt>
      <trkpt lat="46.5783" lon="5.2634">
        <ele>201.2</ele>
        <time>2021-11-15T14:12:08Z</time>
      </trkpt>
      <trkpt lat="46.57837" lon="5.2636">
        <ele>202</ele>
        <time>2021-11-15T14:12:11Z</time>
      </trkpt>
      <trkpt lat="46.57843" lon="5.26378">
        <ele>202.6</ele>
        <time>2021-11-15T14:12:14Z</time>
      </trkpt>
      <trkpt lat="46.57849" lon="5.26396">
        <ele>203</ele>
        <time>2021-11-15T14:12:17Z</time>
      </trkpt>
      <trkpt lat="46.57858" lon="5.26419">
        <ele>204</ele>
        <time>2021-11-15T14:12:21Z</time>
      </trkpt>
      <trkpt lat="46.57861" lon="5.26425">
        <ele>204.2</ele>
        <time>2021-11-15T14:12:22Z</time>
      </trkpt>
      <trkpt lat="46.57873" lon="5.26459">
        <ele>205.4</ele>
        <time>2021-11-15T14:12:27Z</time>
      </trkpt>
      <trkpt lat="46.57876" lon="5.26466">
        <ele>205.6</ele>
        <time>2021-11-15T14:12:28Z</time>
      </trkpt>
      <trkpt lat="46.57878" lon="5.26473">
        <ele>205.8</ele>
        <time>2021-11-15T14:12:29Z</time>
      </trkpt>
      <trkpt lat="46.57889" lon="5.26501">
        <ele>206.4</ele>
        <time>2021-11-15T14:12:33Z</time>
      </trkpt>
      <trkpt lat="46.57894" lon="5.26516">
        <ele>206.6</ele>
        <time>2021-11-15T14:12:35Z</time>
      </trkpt>
      <trkpt lat="46.57912" lon="5.26565">
        <ele>207</ele>
        <time>2021-11-15T14:12:42Z</time>
      </trkpt>
      <trkpt lat="46.57937" lon="5.26622">
        <ele>207.4</ele>
        <time>2021-11-15T14:12:50Z</time>
      </trkpt>
      <trkpt lat="46.57944" lon="5.26636">
        <ele>207.6</ele>
        <time>2021-11-15T14:12:52Z</time>
      </trkpt>
      <trkpt lat="46.57979" lon="5.26691">
        <ele>207.6</ele>
        <time>2021-11-15T14:13:00Z</time>
      </trkpt>
      <trkpt lat="46.58003" lon="5.26728">
        <ele>207.2</ele>
        <time>2021-11-15T14:13:05Z</time>
      </trkpt>
      <trkpt lat="46.58043" lon="5.2679">
        <ele>206.8</ele>
        <time>2021-11-15T14:13:13Z</time>
      </trkpt>
      <trkpt lat="46.58052" lon="5.26804">
        <ele>206.6</ele>
        <time>2021-11-15T14:13:15Z</time>
      </trkpt>
      <trkpt lat="46.58092" lon="5.26866">
        <ele>206.6</ele>
        <time>2021-11-15T14:13:23Z</time>
      </trkpt>
      <trkpt lat="46.58097" lon="5.26874">
        <ele>206.4</ele>
        <time>2021-11-15T14:13:25Z</time>
      </trkpt>
      <trkpt lat="46.58135" lon="5.26934">
        <ele>206.4</ele>
        <time>2021-11-15T14:13:32Z</time>
      </trkpt>
      <trkpt lat="46.5816" lon="5.26972">
        <ele>206.6</ele>
        <time>2021-11-15T14:13:37Z</time>
      </trkpt>
      <trkpt lat="46.58201" lon="5.27034">
        <ele>206.8</ele>
        <time>2021-11-15T14:13:46Z</time>
      </trkpt>
      <trkpt lat="46.58236" lon="5.27091">
        <ele>206.8</ele>
        <time>2021-11-15T14:13:55Z</time>
      </trkpt>
      <trkpt lat="46.58242" lon="5.27102">
        <ele>206.8</ele>
        <time>2021-11-15T14:13:57Z</time>
      </trkpt>
      <trkpt lat="46.58244" lon="5.2711">
        <ele>206.6</ele>
        <time>2021-11-15T14:13:59Z</time>
      </trkpt>
      <trkpt lat="46.58247" lon="5.27117">
        <ele>206.4</ele>
        <time>2021-11-15T14:14:02Z</time>
      </trkpt>
      <trkpt lat="46.58249" lon="5.27119">
        <ele>206.4</ele>
        <time>2021-11-15T14:14:03Z</time>
      </trkpt>
      <trkpt lat="46.58257" lon="5.27124">
        <ele>206.2</ele>
        <time>2021-11-15T14:14:05Z</time>
      </trkpt>
      <trkpt lat="46.58261" lon="5.2713">
        <ele>206.2</ele>
        <time>2021-11-15T14:14:06Z</time>
      </trkpt>
      <trkpt lat="46.58284" lon="5.27163">
        <ele>206</ele>
        <time>2021-11-15T14:14:11Z</time>
      </trkpt>
      <trkpt lat="46.58316" lon="5.27202">
        <ele>206.2</ele>
        <time>2021-11-15T14:14:17Z</time>
      </trkpt>
      <trkpt lat="46.58363" lon="5.27251">
        <ele>207</ele>
        <time>2021-11-15T14:14:26Z</time>
      </trkpt>
      <trkpt lat="46.58406" lon="5.27292">
        <ele>207</ele>
        <time>2021-11-15T14:14:34Z</time>
      </trkpt>
      <trkpt lat="46.58448" lon="5.27342">
        <ele>206.6</ele>
        <time>2021-11-15T14:14:42Z</time>
      </trkpt>
      <trkpt lat="46.58484" lon="5.274">
        <ele>206</ele>
        <time>2021-11-15T14:14:50Z</time>
      </trkpt>
      <trkpt lat="46.58488" lon="5.27408">
        <ele>206</ele>
        <time>2021-11-15T14:14:51Z</time>
      </trkpt>
      <trkpt lat="46.58521" lon="5.2748">
        <ele>206.2</ele>
        <time>2021-11-15T14:15:00Z</time>
      </trkpt>
      <trkpt lat="46.58538" lon="5.27521">
        <ele>206.4</ele>
        <time>2021-11-15T14:15:05Z</time>
      </trkpt>
      <trkpt lat="46.58542" lon="5.27538">
        <ele>206.4</ele>
        <time>2021-11-15T14:15:07Z</time>
      </trkpt>
      <trkpt lat="46.58543" lon="5.27557">
        <ele>206.2</ele>
        <time>2021-11-15T14:15:09Z</time>
      </trkpt>
      <trkpt lat="46.58542" lon="5.27574">
        <ele>206.2</ele>
        <time>2021-11-15T14:15:11Z</time>
      </trkpt>
      <trkpt lat="46.58529" lon="5.27659">
        <ele>205.8</ele>
        <time>2021-11-15T14:15:20Z</time>
      </trkpt>
      <trkpt lat="46.58528" lon="5.27669">
        <ele>205.8</ele>
        <time>2021-11-15T14:15:21Z</time>
      </trkpt>
      <trkpt lat="46.58513" lon="5.27739">
        <ele>205.4</ele>
        <time>2021-11-15T14:15:28Z</time>
      </trkpt>
      <trkpt lat="46.585" lon="5.27796">
        <ele>204.8</ele>
        <time>2021-11-15T14:15:33Z</time>
      </trkpt>
      <trkpt lat="46.58497" lon="5.27808">
        <ele>204.2</ele>
        <time>2021-11-15T14:15:34Z</time>
      </trkpt>
      <trkpt lat="46.58484" lon="5.27861">
        <ele>203</ele>
        <time>2021-11-15T14:15:38Z</time>
      </trkpt>
      <trkpt lat="46.58481" lon="5.27875">
        <ele>202.4</ele>
        <time>2021-11-15T14:15:39Z</time>
      </trkpt>
      <trkpt lat="46.58475" lon="5.27904">
        <ele>201.2</ele>
        <time>2021-11-15T14:15:41Z</time>
      </trkpt>
      <trkpt lat="46.58472" lon="5.27918">
        <ele>200.8</ele>
        <time>2021-11-15T14:15:42Z</time>
      </trkpt>
      <trkpt lat="46.58468" lon="5.27933">
        <ele>200</ele>
        <time>2021-11-15T14:15:43Z</time>
      </trkpt>
      <trkpt lat="46.58464" lon="5.27948">
        <ele>199.2</ele>
        <time>2021-11-15T14:15:44Z</time>
      </trkpt>
      <trkpt lat="46.5846" lon="5.27964">
        <ele>198.8</ele>
        <time>2021-11-15T14:15:45Z</time>
      </trkpt>
      <trkpt lat="46.58454" lon="5.27996">
        <ele>197.4</ele>
        <time>2021-11-15T14:15:47Z</time>
      </trkpt>
      <trkpt lat="46.58452" lon="5.28027">
        <ele>196.2</ele>
        <time>2021-11-15T14:15:49Z</time>
      </trkpt>
      <trkpt lat="46.58456" lon="5.28058">
        <ele>195</ele>
        <time>2021-11-15T14:15:51Z</time>
      </trkpt>
      <trkpt lat="46.5846" lon="5.28072">
        <ele>194.2</ele>
        <time>2021-11-15T14:15:52Z</time>
      </trkpt>
      <trkpt lat="46.58465" lon="5.28085">
        <ele>193.6</ele>
        <time>2021-11-15T14:15:53Z</time>
      </trkpt>
      <trkpt lat="46.58484" lon="5.28119">
        <ele>192.4</ele>
        <time>2021-11-15T14:15:56Z</time>
      </trkpt>
      <trkpt lat="46.58502" lon="5.2815">
        <ele>191.4</ele>
        <time>2021-11-15T14:15:59Z</time>
      </trkpt>
      <trkpt lat="46.58513" lon="5.28169">
        <ele>191</ele>
        <time>2021-11-15T14:16:01Z</time>
      </trkpt>
      <trkpt lat="46.58544" lon="5.2822">
        <ele>191</ele>
        <time>2021-11-15T14:16:07Z</time>
      </trkpt>
      <trkpt lat="46.58568" lon="5.28258">
        <ele>191.2</ele>
        <time>2021-11-15T14:16:12Z</time>
      </trkpt>
      <trkpt lat="46.58602" lon="5.28315">
        <ele>191.4</ele>
        <time>2021-11-15T14:16:20Z</time>
      </trkpt>
      <trkpt lat="46.58638" lon="5.28376">
        <ele>192.4</ele>
        <time>2021-11-15T14:16:29Z</time>
      </trkpt>
      <trkpt lat="46.58645" lon="5.28387">
        <ele>192.6</ele>
        <time>2021-11-15T14:16:31Z</time>
      </trkpt>
      <trkpt lat="46.58675" lon="5.28437">
        <ele>193</ele>
        <time>2021-11-15T14:16:39Z</time>
      </trkpt>
      <trkpt lat="46.58687" lon="5.28456">
        <ele>193.6</ele>
        <time>2021-11-15T14:16:42Z</time>
      </trkpt>
      <trkpt lat="46.58699" lon="5.28478">
        <ele>194</ele>
        <time>2021-11-15T14:16:46Z</time>
      </trkpt>
      <trkpt lat="46.58708" lon="5.28493">
        <ele>194.8</ele>
        <time>2021-11-15T14:16:49Z</time>
      </trkpt>
      <trkpt lat="46.58721" lon="5.28513">
        <ele>195.8</ele>
        <time>2021-11-15T14:16:53Z</time>
      </trkpt>
      <trkpt lat="46.58733" lon="5.28534">
        <ele>197</ele>
        <time>2021-11-15T14:16:57Z</time>
      </trkpt>
      <trkpt lat="46.58744" lon="5.28555">
        <ele>198</ele>
        <time>2021-11-15T14:17:01Z</time>
      </trkpt>
      <trkpt lat="46.58763" lon="5.28584">
        <ele>199</ele>
        <time>2021-11-15T14:17:07Z</time>
      </trkpt>
      <trkpt lat="46.58768" lon="5.28594">
        <ele>199.6</ele>
        <time>2021-11-15T14:17:09Z</time>
      </trkpt>
      <trkpt lat="46.58776" lon="5.28609">
        <ele>200.2</ele>
        <time>2021-11-15T14:17:12Z</time>
      </trkpt>
      <trkpt lat="46.58785" lon="5.28625">
        <ele>201.2</ele>
        <time>2021-11-15T14:17:15Z</time>
      </trkpt>
      <trkpt lat="46.58788" lon="5.2863">
        <ele>201.4</ele>
        <time>2021-11-15T14:17:16Z</time>
      </trkpt>
      <trkpt lat="46.58801" lon="5.28651">
        <ele>202.4</ele>
        <time>2021-11-15T14:17:20Z</time>
      </trkpt>
      <trkpt lat="46.58812" lon="5.28665">
        <ele>203</ele>
        <time>2021-11-15T14:17:23Z</time>
      </trkpt>
      <trkpt lat="46.58822" lon="5.28674">
        <ele>203.4</ele>
        <time>2021-11-15T14:17:25Z</time>
      </trkpt>
      <trkpt lat="46.58831" lon="5.2868">
        <ele>203.4</ele>
        <time>2021-11-15T14:17:27Z</time>
      </trkpt>
      <trkpt lat="46.58836" lon="5.28683">
        <ele>203.6</ele>
        <time>2021-11-15T14:17:28Z</time>
      </trkpt>
      <trkpt lat="46.58883" lon="5.28707">
        <ele>204</ele>
        <time>2021-11-15T14:17:37Z</time>
      </trkpt>
      <trkpt lat="46.58917" lon="5.28731">
        <ele>204</ele>
        <time>2021-11-15T14:17:43Z</time>
      </trkpt>
      <trkpt lat="46.58928" lon="5.28743">
        <ele>203.8</ele>
        <time>2021-11-15T14:17:45Z</time>
      </trkpt>
      <trkpt lat="46.58936" lon="5.28758">
        <ele>203.8</ele>
        <time>2021-11-15T14:17:47Z</time>
      </trkpt>
      <trkpt lat="46.58957" lon="5.28796">
        <ele>203.8</ele>
        <time>2021-11-15T14:17:52Z</time>
      </trkpt>
      <trkpt lat="46.58967" lon="5.28808">
        <ele>203.8</ele>
        <time>2021-11-15T14:17:54Z</time>
      </trkpt>
      <trkpt lat="46.58979" lon="5.28818">
        <ele>203.6</ele>
        <time>2021-11-15T14:17:56Z</time>
      </trkpt>
      <trkpt lat="46.58991" lon="5.28824">
        <ele>203.6</ele>
        <time>2021-11-15T14:17:58Z</time>
      </trkpt>
      <trkpt lat="46.59048" lon="5.28841">
        <ele>203.2</ele>
        <time>2021-11-15T14:18:07Z</time>
      </trkpt>
      <trkpt lat="46.59103" lon="5.28857">
        <ele>203.2</ele>
        <time>2021-11-15T14:18:16Z</time>
      </trkpt>
      <trkpt lat="46.59109" lon="5.28859">
        <ele>203.2</ele>
        <time>2021-11-15T14:18:17Z</time>
      </trkpt>
      <trkpt lat="46.59154" lon="5.28882">
        <ele>202.8</ele>
        <time>2021-11-15T14:18:24Z</time>
      </trkpt>
      <trkpt lat="46.5917" lon="5.28891">
        <ele>202.2</ele>
        <time>2021-11-15T14:18:26Z</time>
      </trkpt>
      <trkpt lat="46.59202" lon="5.2891">
        <ele>201.4</ele>
        <time>2021-11-15T14:18:30Z</time>
      </trkpt>
      <trkpt lat="46.59209" lon="5.28914">
        <ele>201</ele>
        <time>2021-11-15T14:18:31Z</time>
      </trkpt>
      <trkpt lat="46.59232" lon="5.28929">
        <ele>199.6</ele>
        <time>2021-11-15T14:18:34Z</time>
      </trkpt>
      <trkpt lat="46.59254" lon="5.28942">
        <ele>199</ele>
        <time>2021-11-15T14:18:37Z</time>
      </trkpt>
      <trkpt lat="46.59297" lon="5.28966">
        <ele>199.4</ele>
        <time>2021-11-15T14:18:44Z</time>
      </trkpt>
      <trkpt lat="46.59325" lon="5.28984">
        <ele>199.6</ele>
        <time>2021-11-15T14:18:49Z</time>
      </trkpt>
      <trkpt lat="46.59366" lon="5.29008">
        <ele>201</ele>
        <time>2021-11-15T14:18:57Z</time>
      </trkpt>
      <trkpt lat="46.59376" lon="5.29014">
        <ele>201.4</ele>
        <time>2021-11-15T14:18:59Z</time>
      </trkpt>
      <trkpt lat="46.59391" lon="5.29022">
        <ele>202</ele>
        <time>2021-11-15T14:19:02Z</time>
      </trkpt>
      <trkpt lat="46.59425" lon="5.29044">
        <ele>202.8</ele>
        <time>2021-11-15T14:19:08Z</time>
      </trkpt>
      <trkpt lat="46.59462" lon="5.29081">
        <ele>203</ele>
        <time>2021-11-15T14:19:15Z</time>
      </trkpt>
      <trkpt lat="46.59507" lon="5.29133">
        <ele>202.8</ele>
        <time>2021-11-15T14:19:23Z</time>
      </trkpt>
      <trkpt lat="46.59513" lon="5.29138">
        <ele>202.8</ele>
        <time>2021-11-15T14:19:24Z</time>
      </trkpt>
      <trkpt lat="46.59551" lon="5.29183">
        <ele>203</ele>
        <time>2021-11-15T14:19:32Z</time>
      </trkpt>
      <trkpt lat="46.59588" lon="5.29217">
        <ele>203</ele>
        <time>2021-11-15T14:19:39Z</time>
      </trkpt>
      <trkpt lat="46.59621" lon="5.2923">
        <ele>202.8</ele>
        <time>2021-11-15T14:19:45Z</time>
      </trkpt>
      <trkpt lat="46.59666" lon="5.29239">
        <ele>202</ele>
        <time>2021-11-15T14:19:52Z</time>
      </trkpt>
      <trkpt lat="46.5968" lon="5.29242">
        <ele>201.8</ele>
        <time>2021-11-15T14:19:54Z</time>
      </trkpt>
      <trkpt lat="46.59739" lon="5.29255">
        <ele>201</ele>
        <time>2021-11-15T14:20:03Z</time>
      </trkpt>
      <trkpt lat="46.59774" lon="5.29277">
        <ele>200.4</ele>
        <time>2021-11-15T14:20:09Z</time>
      </trkpt>
      <trkpt lat="46.59813" lon="5.29314">
        <ele>200</ele>
        <time>2021-11-15T14:20:16Z</time>
      </trkpt>
      <trkpt lat="46.59825" lon="5.29327">
        <ele>199.6</ele>
        <time>2021-11-15T14:20:18Z</time>
      </trkpt>
      <trkpt lat="46.5983" lon="5.29346">
        <ele>199.2</ele>
        <time>2021-11-15T14:20:20Z</time>
      </trkpt>
      <trkpt lat="46.59832" lon="5.2936">
        <ele>199</ele>
        <time>2021-11-15T14:20:21Z</time>
      </trkpt>
      <trkpt lat="46.59833" lon="5.2937">
        <ele>198.4</ele>
        <time>2021-11-15T14:20:22Z</time>
      </trkpt>
      <trkpt lat="46.59836" lon="5.29407">
        <ele>197.4</ele>
        <time>2021-11-15T14:20:25Z</time>
      </trkpt>
      <trkpt lat="46.59841" lon="5.29457">
        <ele>196.4</ele>
        <time>2021-11-15T14:20:29Z</time>
      </trkpt>
      <trkpt lat="46.59844" lon="5.29483">
        <ele>196.2</ele>
        <time>2021-11-15T14:20:31Z</time>
      </trkpt>
      <trkpt lat="46.59851" lon="5.2955">
        <ele>195.6</ele>
        <time>2021-11-15T14:20:37Z</time>
      </trkpt>
      <trkpt lat="46.59853" lon="5.2958">
        <ele>195</ele>
        <time>2021-11-15T14:20:40Z</time>
      </trkpt>
      <trkpt lat="46.59856" lon="5.29614">
        <ele>194.4</ele>
        <time>2021-11-15T14:20:43Z</time>
      </trkpt>
      <trkpt lat="46.59856" lon="5.29626">
        <ele>193.8</ele>
        <time>2021-11-15T14:20:44Z</time>
      </trkpt>
      <trkpt lat="46.59855" lon="5.2965">
        <ele>192.6</ele>
        <time>2021-11-15T14:20:46Z</time>
      </trkpt>
      <trkpt lat="46.59853" lon="5.29666">
        <ele>192.2</ele>
        <time>2021-11-15T14:20:47Z</time>
      </trkpt>
      <trkpt lat="46.59843" lon="5.29718">
        <ele>191.2</ele>
        <time>2021-11-15T14:20:51Z</time>
      </trkpt>
      <trkpt lat="46.59837" lon="5.29742">
        <ele>190.4</ele>
        <time>2021-11-15T14:20:53Z</time>
      </trkpt>
      <trkpt lat="46.59834" lon="5.29756">
        <ele>189.8</ele>
        <time>2021-11-15T14:20:54Z</time>
      </trkpt>
      <trkpt lat="46.5982" lon="5.29809">
        <ele>188.2</ele>
        <time>2021-11-15T14:20:58Z</time>
      </trkpt>
      <trkpt lat="46.59808" lon="5.29848">
        <ele>187.2</ele>
        <time>2021-11-15T14:21:01Z</time>
      </trkpt>
      <trkpt lat="46.59803" lon="5.2987">
        <ele>187</ele>
        <time>2021-11-15T14:21:03Z</time>
      </trkpt>
      <trkpt lat="46.59795" lon="5.29905">
        <ele>187</ele>
        <time>2021-11-15T14:21:06Z</time>
      </trkpt>
      <trkpt lat="46.5979" lon="5.2996">
        <ele>187.2</ele>
        <time>2021-11-15T14:21:11Z</time>
      </trkpt>
      <trkpt lat="46.59784" lon="5.30043">
        <ele>187.2</ele>
        <time>2021-11-15T14:21:18Z</time>
      </trkpt>
      <trkpt lat="46.59782" lon="5.30067">
        <ele>187.2</ele>
        <time>2021-11-15T14:21:20Z</time>
      </trkpt>
      <trkpt lat="46.59771" lon="5.30149">
        <ele>186.2</ele>
        <time>2021-11-15T14:21:27Z</time>
      </trkpt>
      <trkpt lat="46.59768" lon="5.3016">
        <ele>186</ele>
        <time>2021-11-15T14:21:28Z</time>
      </trkpt>
      <trkpt lat="46.59753" lon="5.30223">
        <ele>185.6</ele>
        <time>2021-11-15T14:21:34Z</time>
      </trkpt>
      <trkpt lat="46.59748" lon="5.30258">
        <ele>185.6</ele>
        <time>2021-11-15T14:21:37Z</time>
      </trkpt>
      <trkpt lat="46.59748" lon="5.3028">
        <ele>185.6</ele>
        <time>2021-11-15T14:21:39Z</time>
      </trkpt>
      <trkpt lat="46.59748" lon="5.30291">
        <ele>185.6</ele>
        <time>2021-11-15T14:21:40Z</time>
      </trkpt>
      <trkpt lat="46.59754" lon="5.30323">
        <ele>185.2</ele>
        <time>2021-11-15T14:21:43Z</time>
      </trkpt>
      <trkpt lat="46.59774" lon="5.30366">
        <ele>185.4</ele>
        <time>2021-11-15T14:21:48Z</time>
      </trkpt>
      <trkpt lat="46.598" lon="5.30413">
        <ele>185.8</ele>
        <time>2021-11-15T14:21:54Z</time>
      </trkpt>
      <trkpt lat="46.59803" lon="5.30421">
        <ele>186</ele>
        <time>2021-11-15T14:21:55Z</time>
      </trkpt>
      <trkpt lat="46.59822" lon="5.30479">
        <ele>186.6</ele>
        <time>2021-11-15T14:22:02Z</time>
      </trkpt>
      <trkpt lat="46.59835" lon="5.30524">
        <ele>187</ele>
        <time>2021-11-15T14:22:08Z</time>
      </trkpt>
      <trkpt lat="46.59837" lon="5.30531">
        <ele>187.2</ele>
        <time>2021-11-15T14:22:09Z</time>
      </trkpt>
      <trkpt lat="46.59842" lon="5.30544">
        <ele>187.4</ele>
        <time>2021-11-15T14:22:11Z</time>
      </trkpt>
      <trkpt lat="46.59847" lon="5.30565">
        <ele>188</ele>
        <time>2021-11-15T14:22:14Z</time>
      </trkpt>
      <trkpt lat="46.59849" lon="5.30572">
        <ele>188.2</ele>
        <time>2021-11-15T14:22:15Z</time>
      </trkpt>
      <trkpt lat="46.59851" lon="5.30595">
        <ele>188.8</ele>
        <time>2021-11-15T14:22:18Z</time>
      </trkpt>
      <trkpt lat="46.59849" lon="5.30609">
        <ele>189.2</ele>
        <time>2021-11-15T14:22:20Z</time>
      </trkpt>
      <trkpt lat="46.59836" lon="5.30635">
        <ele>190.2</ele>
        <time>2021-11-15T14:22:24Z</time>
      </trkpt>
      <trkpt lat="46.59834" lon="5.30642">
        <ele>190.4</ele>
        <time>2021-11-15T14:22:25Z</time>
      </trkpt>
      <trkpt lat="46.59831" lon="5.30649">
        <ele>190.6</ele>
        <time>2021-11-15T14:22:26Z</time>
      </trkpt>
      <trkpt lat="46.59826" lon="5.30671">
        <ele>191.2</ele>
        <time>2021-11-15T14:22:29Z</time>
      </trkpt>
      <trkpt lat="46.59824" lon="5.30687">
        <ele>191.4</ele>
        <time>2021-11-15T14:22:31Z</time>
      </trkpt>
      <trkpt lat="46.59816" lon="5.30733">
        <ele>192.6</ele>
        <time>2021-11-15T14:22:37Z</time>
      </trkpt>
      <trkpt lat="46.59815" lon="5.30741">
        <ele>192.8</ele>
        <time>2021-11-15T14:22:38Z</time>
      </trkpt>
      <trkpt lat="46.59809" lon="5.30781">
        <ele>193.6</ele>
        <time>2021-11-15T14:22:44Z</time>
      </trkpt>
      <trkpt lat="46.59808" lon="5.30795">
        <ele>194.2</ele>
        <time>2021-11-15T14:22:48Z</time>
      </trkpt>
      <trkpt lat="46.59808" lon="5.30795">
        <ele>194.4</ele>
        <time>2021-11-15T14:22:50Z</time>
      </trkpt>
      <trkpt lat="46.5981" lon="5.30802">
        <ele>194.4</ele>
        <time>2021-11-15T14:23:03Z</time>
      </trkpt>
      <trkpt lat="46.59812" lon="5.30804">
        <ele>194.4</ele>
        <time>2021-11-15T14:23:04Z</time>
      </trkpt>
      <trkpt lat="46.59827" lon="5.30809">
        <ele>194.6</ele>
        <time>2021-11-15T14:23:08Z</time>
      </trkpt>
      <trkpt lat="46.59855" lon="5.30817">
        <ele>195</ele>
        <time>2021-11-15T14:23:13Z</time>
      </trkpt>
      <trkpt lat="46.59873" lon="5.30823">
        <ele>195</ele>
        <time>2021-11-15T14:23:16Z</time>
      </trkpt>
      <trkpt lat="46.59891" lon="5.30827">
        <ele>195.8</ele>
        <time>2021-11-15T14:23:19Z</time>
      </trkpt>
      <trkpt lat="46.5993" lon="5.30834">
        <ele>196.8</ele>
        <time>2021-11-15T14:23:26Z</time>
      </trkpt>
      <trkpt lat="46.59935" lon="5.30835">
        <ele>197</ele>
        <time>2021-11-15T14:23:27Z</time>
      </trkpt>
      <trkpt lat="46.59956" lon="5.30841">
        <ele>197.8</ele>
        <time>2021-11-15T14:23:31Z</time>
      </trkpt>
      <trkpt lat="46.59961" lon="5.30843">
        <ele>198</ele>
        <time>2021-11-15T14:23:32Z</time>
      </trkpt>
      <trkpt lat="46.59966" lon="5.30847">
        <ele>198</ele>
        <time>2021-11-15T14:23:33Z</time>
      </trkpt>
      <trkpt lat="46.59971" lon="5.30851">
        <ele>198</ele>
        <time>2021-11-15T14:23:34Z</time>
      </trkpt>
      <trkpt lat="46.59987" lon="5.30869">
        <ele>198.8</ele>
        <time>2021-11-15T14:23:38Z</time>
      </trkpt>
      <trkpt lat="46.59995" lon="5.30878">
        <ele>199</ele>
        <time>2021-11-15T14:23:40Z</time>
      </trkpt>
      <trkpt lat="46.60018" lon="5.30903">
        <ele>199.8</ele>
        <time>2021-11-15T14:23:46Z</time>
      </trkpt>
      <trkpt lat="46.60022" lon="5.30907">
        <ele>200</ele>
        <time>2021-11-15T14:23:47Z</time>
      </trkpt>
      <trkpt lat="46.60049" lon="5.30938">
        <ele>201</ele>
        <time>2021-11-15T14:23:54Z</time>
      </trkpt>
      <trkpt lat="46.60058" lon="5.30948">
        <ele>201.2</ele>
        <time>2021-11-15T14:23:56Z</time>
      </trkpt>
      <trkpt lat="46.60086" lon="5.30981">
        <ele>202</ele>
        <time>2021-11-15T14:24:03Z</time>
      </trkpt>
      <trkpt lat="46.6009" lon="5.30986">
        <ele>202</ele>
        <time>2021-11-15T14:24:04Z</time>
      </trkpt>
      <trkpt lat="46.60092" lon="5.30992">
        <ele>202.2</ele>
        <time>2021-11-15T14:24:05Z</time>
      </trkpt>
      <trkpt lat="46.6009" lon="5.31007">
        <ele>202.4</ele>
        <time>2021-11-15T14:24:07Z</time>
      </trkpt>
      <trkpt lat="46.60086" lon="5.31031">
        <ele>202.8</ele>
        <time>2021-11-15T14:24:10Z</time>
      </trkpt>
      <trkpt lat="46.60087" lon="5.31043">
        <ele>202.8</ele>
        <time>2021-11-15T14:24:12Z</time>
      </trkpt>
      <trkpt lat="46.60085" lon="5.31055">
        <ele>202.8</ele>
        <time>2021-11-15T14:24:14Z</time>
      </trkpt>
      <trkpt lat="46.60082" lon="5.31062">
        <ele>202.8</ele>
        <time>2021-11-15T14:24:15Z</time>
      </trkpt>
      <trkpt lat="46.60079" lon="5.31069">
        <ele>202.8</ele>
        <time>2021-11-15T14:24:16Z</time>
      </trkpt>
      <trkpt lat="46.60071" lon="5.31093">
        <ele>202.8</ele>
        <time>2021-11-15T14:24:19Z</time>
      </trkpt>
      <trkpt lat="46.60067" lon="5.3113">
        <ele>203</ele>
        <time>2021-11-15T14:24:23Z</time>
      </trkpt>
      <trkpt lat="46.60066" lon="5.31139">
        <ele>203</ele>
        <time>2021-11-15T14:24:24Z</time>
      </trkpt>
      <trkpt lat="46.60061" lon="5.31217">
        <ele>203.2</ele>
        <time>2021-11-15T14:24:32Z</time>
      </trkpt>
      <trkpt lat="46.6006" lon="5.31227">
        <ele>203.2</ele>
        <time>2021-11-15T14:24:33Z</time>
      </trkpt>
      <trkpt lat="46.60056" lon="5.31311">
        <ele>203</ele>
        <time>2021-11-15T14:24:41Z</time>
      </trkpt>
      <trkpt lat="46.60055" lon="5.31322">
        <ele>203</ele>
        <time>2021-11-15T14:24:42Z</time>
      </trkpt>
      <trkpt lat="46.6005" lon="5.31399">
        <ele>202.6</ele>
        <time>2021-11-15T14:24:49Z</time>
      </trkpt>
      <trkpt lat="46.60052" lon="5.31465">
        <ele>202</ele>
        <time>2021-11-15T14:24:55Z</time>
      </trkpt>
      <trkpt lat="46.60054" lon="5.31476">
        <ele>202</ele>
        <time>2021-11-15T14:24:56Z</time>
      </trkpt>
      <trkpt lat="46.60067" lon="5.31518">
        <ele>201.8</ele>
        <time>2021-11-15T14:25:00Z</time>
      </trkpt>
      <trkpt lat="46.60071" lon="5.31528">
        <ele>201.6</ele>
        <time>2021-11-15T14:25:01Z</time>
      </trkpt>
      <trkpt lat="46.60085" lon="5.31555">
        <ele>201.4</ele>
        <time>2021-11-15T14:25:05Z</time>
      </trkpt>
      <trkpt lat="46.60113" lon="5.3161">
        <ele>200.8</ele>
        <time>2021-11-15T14:25:10Z</time>
      </trkpt>
      <trkpt lat="46.60132" lon="5.31649">
        <ele>200.6</ele>
        <time>2021-11-15T14:25:14Z</time>
      </trkpt>
      <trkpt lat="46.6016" lon="5.31704">
        <ele>200.8</ele>
        <time>2021-11-15T14:25:21Z</time>
      </trkpt>
      <trkpt lat="46.6019" lon="5.3176">
        <ele>201.4</ele>
        <time>2021-11-15T14:25:29Z</time>
      </trkpt>
      <trkpt lat="46.602" lon="5.31781">
        <ele>202</ele>
        <time>2021-11-15T14:25:32Z</time>
      </trkpt>
      <trkpt lat="46.60219" lon="5.31816">
        <ele>202.8</ele>
        <time>2021-11-15T14:25:37Z</time>
      </trkpt>
      <trkpt lat="46.60226" lon="5.3183">
        <ele>203</ele>
        <time>2021-11-15T14:25:39Z</time>
      </trkpt>
      <trkpt lat="46.60244" lon="5.31867">
        <ele>204.2</ele>
        <time>2021-11-15T14:25:44Z</time>
      </trkpt>
      <trkpt lat="46.60255" lon="5.3189">
        <ele>204.4</ele>
        <time>2021-11-15T14:25:47Z</time>
      </trkpt>
      <trkpt lat="46.60288" lon="5.31956">
        <ele>204.8</ele>
        <time>2021-11-15T14:25:56Z</time>
      </trkpt>
      <trkpt lat="46.60292" lon="5.31964">
        <ele>205</ele>
        <time>2021-11-15T14:25:57Z</time>
      </trkpt>
      <trkpt lat="46.60306" lon="5.31993">
        <ele>205.2</ele>
        <time>2021-11-15T14:26:01Z</time>
      </trkpt>
      <trkpt lat="46.60331" lon="5.32045">
        <ele>205.6</ele>
        <time>2021-11-15T14:26:08Z</time>
      </trkpt>
      <trkpt lat="46.60364" lon="5.3211">
        <ele>205.8</ele>
        <time>2021-11-15T14:26:16Z</time>
      </trkpt>
      <trkpt lat="46.60372" lon="5.32124">
        <ele>205.8</ele>
        <time>2021-11-15T14:26:18Z</time>
      </trkpt>
      <trkpt lat="46.60406" lon="5.32191">
        <ele>205.6</ele>
        <time>2021-11-15T14:26:26Z</time>
      </trkpt>
      <trkpt lat="46.60425" lon="5.32228">
        <ele>205.4</ele>
        <time>2021-11-15T14:26:31Z</time>
      </trkpt>
      <trkpt lat="46.60455" lon="5.32294">
        <ele>205.2</ele>
        <time>2021-11-15T14:26:39Z</time>
      </trkpt>
      <trkpt lat="46.60458" lon="5.32302">
        <ele>205.4</ele>
        <time>2021-11-15T14:26:40Z</time>
      </trkpt>
      <trkpt lat="46.60482" lon="5.32371">
        <ele>205.6</ele>
        <time>2021-11-15T14:26:48Z</time>
      </trkpt>
      <trkpt lat="46.60507" lon="5.32451">
        <ele>206</ele>
        <time>2021-11-15T14:26:57Z</time>
      </trkpt>
      <trkpt lat="46.6051" lon="5.3246">
        <ele>206</ele>
        <time>2021-11-15T14:26:58Z</time>
      </trkpt>
      <trkpt lat="46.60534" lon="5.32534">
        <ele>206.2</ele>
        <time>2021-11-15T14:27:06Z</time>
      </trkpt>
      <trkpt lat="46.60537" lon="5.32543">
        <ele>206.2</ele>
        <time>2021-11-15T14:27:07Z</time>
      </trkpt>
      <trkpt lat="46.60543" lon="5.32563">
        <ele>206.2</ele>
        <time>2021-11-15T14:27:09Z</time>
      </trkpt>
      <trkpt lat="46.60553" lon="5.32611">
        <ele>206.2</ele>
        <time>2021-11-15T14:27:14Z</time>
      </trkpt>
      <trkpt lat="46.60553" lon="5.32619">
        <ele>206.2</ele>
        <time>2021-11-15T14:27:15Z</time>
      </trkpt>
      <trkpt lat="46.60553" lon="5.32704">
        <ele>205.8</ele>
        <time>2021-11-15T14:27:23Z</time>
      </trkpt>
      <trkpt lat="46.60552" lon="5.32784">
        <ele>205</ele>
        <time>2021-11-15T14:27:30Z</time>
      </trkpt>
      <trkpt lat="46.60552" lon="5.32796">
        <ele>204.8</ele>
        <time>2021-11-15T14:27:31Z</time>
      </trkpt>
      <trkpt lat="46.60552" lon="5.32834">
        <ele>203.8</ele>
        <time>2021-11-15T14:27:34Z</time>
      </trkpt>
      <trkpt lat="46.60552" lon="5.32897">
        <ele>202.6</ele>
        <time>2021-11-15T14:27:39Z</time>
      </trkpt>
      <trkpt lat="46.60553" lon="5.32978">
        <ele>201.8</ele>
        <time>2021-11-15T14:27:46Z</time>
      </trkpt>
      <trkpt lat="46.60553" lon="5.33047">
        <ele>202.2</ele>
        <time>2021-11-15T14:27:53Z</time>
      </trkpt>
      <trkpt lat="46.60554" lon="5.33109">
        <ele>203.2</ele>
        <time>2021-11-15T14:28:00Z</time>
      </trkpt>
      <trkpt lat="46.60552" lon="5.33127">
        <ele>203.6</ele>
        <time>2021-11-15T14:28:02Z</time>
      </trkpt>
      <trkpt lat="46.60546" lon="5.33182">
        <ele>204.6</ele>
        <time>2021-11-15T14:28:08Z</time>
      </trkpt>
      <trkpt lat="46.60544" lon="5.33191">
        <ele>205</ele>
        <time>2021-11-15T14:28:09Z</time>
      </trkpt>
      <trkpt lat="46.60532" lon="5.33242">
        <ele>205.2</ele>
        <time>2021-11-15T14:28:14Z</time>
      </trkpt>
      <trkpt lat="46.60512" lon="5.33323">
        <ele>204.6</ele>
        <time>2021-11-15T14:28:22Z</time>
      </trkpt>
      <trkpt lat="46.60501" lon="5.33368">
        <ele>204.8</ele>
        <time>2021-11-15T14:28:27Z</time>
      </trkpt>
      <trkpt lat="46.60485" lon="5.33429">
        <ele>205.6</ele>
        <time>2021-11-15T14:28:34Z</time>
      </trkpt>
      <trkpt lat="46.60483" lon="5.33437">
        <ele>205.8</ele>
        <time>2021-11-15T14:28:35Z</time>
      </trkpt>
      <trkpt lat="46.60467" lon="5.33508">
        <ele>206.4</ele>
        <time>2021-11-15T14:28:43Z</time>
      </trkpt>
      <trkpt lat="46.60462" lon="5.33526">
        <ele>206.8</ele>
        <time>2021-11-15T14:28:45Z</time>
      </trkpt>
      <trkpt lat="46.60448" lon="5.33591">
        <ele>207.4</ele>
        <time>2021-11-15T14:28:52Z</time>
      </trkpt>
      <trkpt lat="46.60437" lon="5.33671">
        <ele>207.6</ele>
        <time>2021-11-15T14:29:00Z</time>
      </trkpt>
      <trkpt lat="46.60434" lon="5.33692">
        <ele>207.6</ele>
        <time>2021-11-15T14:29:02Z</time>
      </trkpt>
      <trkpt lat="46.60427" lon="5.3378">
        <ele>207.4</ele>
        <time>2021-11-15T14:29:10Z</time>
      </trkpt>
      <trkpt lat="46.60426" lon="5.33789">
        <ele>207.4</ele>
        <time>2021-11-15T14:29:11Z</time>
      </trkpt>
      <trkpt lat="46.60419" lon="5.33874">
        <ele>207.2</ele>
        <time>2021-11-15T14:29:19Z</time>
      </trkpt>
      <trkpt lat="46.60421" lon="5.33936">
        <ele>207.2</ele>
        <time>2021-11-15T14:29:25Z</time>
      </trkpt>
      <trkpt lat="46.6043" lon="5.33997">
        <ele>207.8</ele>
        <time>2021-11-15T14:29:31Z</time>
      </trkpt>
      <trkpt lat="46.60434" lon="5.34017">
        <ele>207.8</ele>
        <time>2021-11-15T14:29:33Z</time>
      </trkpt>
      <trkpt lat="46.60454" lon="5.34084">
        <ele>208</ele>
        <time>2021-11-15T14:29:40Z</time>
      </trkpt>
      <trkpt lat="46.60487" lon="5.3414">
        <ele>208</ele>
        <time>2021-11-15T14:29:47Z</time>
      </trkpt>
      <trkpt lat="46.60506" lon="5.34174">
        <ele>207.6</ele>
        <time>2021-11-15T14:29:51Z</time>
      </trkpt>
      <trkpt lat="46.60513" lon="5.34195">
        <ele>207.2</ele>
        <time>2021-11-15T14:29:53Z</time>
      </trkpt>
      <trkpt lat="46.60516" lon="5.34218">
        <ele>206.6</ele>
        <time>2021-11-15T14:29:55Z</time>
      </trkpt>
      <trkpt lat="46.60517" lon="5.34243">
        <ele>206.4</ele>
        <time>2021-11-15T14:29:57Z</time>
      </trkpt>
      <trkpt lat="46.6052" lon="5.34308">
        <ele>205</ele>
        <time>2021-11-15T14:30:02Z</time>
      </trkpt>
      <trkpt lat="46.60521" lon="5.34335">
        <ele>204.2</ele>
        <time>2021-11-15T14:30:04Z</time>
      </trkpt>
      <trkpt lat="46.60522" lon="5.34349">
        <ele>203.8</ele>
        <time>2021-11-15T14:30:05Z</time>
      </trkpt>
      <trkpt lat="46.60524" lon="5.34407">
        <ele>202.2</ele>
        <time>2021-11-15T14:30:09Z</time>
      </trkpt>
      <trkpt lat="46.60525" lon="5.34422">
        <ele>202</ele>
        <time>2021-11-15T14:30:10Z</time>
      </trkpt>
      <trkpt lat="46.60525" lon="5.34437">
        <ele>200.8</ele>
        <time>2021-11-15T14:30:11Z</time>
      </trkpt>
      <trkpt lat="46.60528" lon="5.34483">
        <ele>199</ele>
        <time>2021-11-15T14:30:14Z</time>
      </trkpt>
      <trkpt lat="46.6053" lon="5.34527">
        <ele>197.6</ele>
        <time>2021-11-15T14:30:17Z</time>
      </trkpt>
      <trkpt lat="46.60531" lon="5.34555">
        <ele>196.8</ele>
        <time>2021-11-15T14:30:19Z</time>
      </trkpt>
      <trkpt lat="46.60532" lon="5.34568">
        <ele>196.6</ele>
        <time>2021-11-15T14:30:20Z</time>
      </trkpt>
      <trkpt lat="46.60535" lon="5.34631">
        <ele>195.6</ele>
        <time>2021-11-15T14:30:25Z</time>
      </trkpt>
      <trkpt lat="46.60536" lon="5.34655">
        <ele>195.4</ele>
        <time>2021-11-15T14:30:27Z</time>
      </trkpt>
      <trkpt lat="46.6054" lon="5.34727">
        <ele>195.2</ele>
        <time>2021-11-15T14:30:33Z</time>
      </trkpt>
      <trkpt lat="46.60543" lon="5.3479">
        <ele>194.6</ele>
        <time>2021-11-15T14:30:38Z</time>
      </trkpt>
      <trkpt lat="46.60546" lon="5.34842">
        <ele>193.8</ele>
        <time>2021-11-15T14:30:42Z</time>
      </trkpt>
      <trkpt lat="46.60547" lon="5.34855">
        <ele>193.2</ele>
        <time>2021-11-15T14:30:43Z</time>
      </trkpt>
      <trkpt lat="46.6055" lon="5.34921">
        <ele>192</ele>
        <time>2021-11-15T14:30:48Z</time>
      </trkpt>
      <trkpt lat="46.60551" lon="5.34959">
        <ele>191.6</ele>
        <time>2021-11-15T14:30:51Z</time>
      </trkpt>
      <trkpt lat="46.60554" lon="5.35014">
        <ele>191.6</ele>
        <time>2021-11-15T14:30:56Z</time>
      </trkpt>
      <trkpt lat="46.60558" lon="5.35089">
        <ele>192.6</ele>
        <time>2021-11-15T14:31:04Z</time>
      </trkpt>
      <trkpt lat="46.60559" lon="5.35108">
        <ele>193.2</ele>
        <time>2021-11-15T14:31:06Z</time>
      </trkpt>
      <trkpt lat="46.60559" lon="5.35137">
        <ele>193.6</ele>
        <time>2021-11-15T14:31:09Z</time>
      </trkpt>
      <trkpt lat="46.60557" lon="5.35157">
        <ele>194</ele>
        <time>2021-11-15T14:31:11Z</time>
      </trkpt>
      <trkpt lat="46.60556" lon="5.35167">
        <ele>194</ele>
        <time>2021-11-15T14:31:12Z</time>
      </trkpt>
      <trkpt lat="46.60554" lon="5.35177">
        <ele>194.2</ele>
        <time>2021-11-15T14:31:13Z</time>
      </trkpt>
      <trkpt lat="46.60548" lon="5.35197">
        <ele>194.2</ele>
        <time>2021-11-15T14:31:15Z</time>
      </trkpt>
      <trkpt lat="46.60526" lon="5.35236">
        <ele>194.2</ele>
        <time>2021-11-15T14:31:19Z</time>
      </trkpt>
      <trkpt lat="46.60495" lon="5.35287">
        <ele>192.6</ele>
        <time>2021-11-15T14:31:24Z</time>
      </trkpt>
      <trkpt lat="46.60476" lon="5.35317">
        <ele>191.2</ele>
        <time>2021-11-15T14:31:27Z</time>
      </trkpt>
      <trkpt lat="46.6044" lon="5.35371">
        <ele>190</ele>
        <time>2021-11-15T14:31:33Z</time>
      </trkpt>
      <trkpt lat="46.60402" lon="5.35427">
        <ele>190.2</ele>
        <time>2021-11-15T14:31:40Z</time>
      </trkpt>
      <trkpt lat="46.60396" lon="5.35435">
        <ele>190.2</ele>
        <time>2021-11-15T14:31:41Z</time>
      </trkpt>
      <trkpt lat="46.60354" lon="5.35495">
        <ele>190.4</ele>
        <time>2021-11-15T14:31:49Z</time>
      </trkpt>
      <trkpt lat="46.60326" lon="5.35544">
        <ele>190.2</ele>
        <time>2021-11-15T14:31:55Z</time>
      </trkpt>
      <trkpt lat="46.60308" lon="5.35602">
        <ele>190.4</ele>
        <time>2021-11-15T14:32:01Z</time>
      </trkpt>
      <trkpt lat="46.60303" lon="5.35654">
        <ele>190.4</ele>
        <time>2021-11-15T14:32:06Z</time>
      </trkpt>
      <trkpt lat="46.60307" lon="5.35713">
        <ele>191</ele>
        <time>2021-11-15T14:32:12Z</time>
      </trkpt>
      <trkpt lat="46.60308" lon="5.35723">
        <ele>191.2</ele>
        <time>2021-11-15T14:32:13Z</time>
      </trkpt>
      <trkpt lat="46.60318" lon="5.35782">
        <ele>191.6</ele>
        <time>2021-11-15T14:32:20Z</time>
      </trkpt>
      <trkpt lat="46.6032" lon="5.3579">
        <ele>191.6</ele>
        <time>2021-11-15T14:32:21Z</time>
      </trkpt>
      <trkpt lat="46.60326" lon="5.35823">
        <ele>192</ele>
        <time>2021-11-15T14:32:25Z</time>
      </trkpt>
      <trkpt lat="46.60328" lon="5.3584">
        <ele>192.2</ele>
        <time>2021-11-15T14:32:27Z</time>
      </trkpt>
      <trkpt lat="46.60334" lon="5.35882">
        <ele>192.8</ele>
        <time>2021-11-15T14:32:32Z</time>
      </trkpt>
      <trkpt lat="46.60336" lon="5.35909">
        <ele>193.4</ele>
        <time>2021-11-15T14:32:35Z</time>
      </trkpt>
      <trkpt lat="46.60339" lon="5.35953">
        <ele>194</ele>
        <time>2021-11-15T14:32:40Z</time>
      </trkpt>
      <trkpt lat="46.60337" lon="5.35989">
        <ele>194.6</ele>
        <time>2021-11-15T14:32:44Z</time>
      </trkpt>
      <trkpt lat="46.60336" lon="5.36007">
        <ele>194.6</ele>
        <time>2021-11-15T14:32:46Z</time>
      </trkpt>
      <trkpt lat="46.60322" lon="5.36074">
        <ele>194.2</ele>
        <time>2021-11-15T14:32:53Z</time>
      </trkpt>
      <trkpt lat="46.60299" lon="5.3615">
        <ele>193.4</ele>
        <time>2021-11-15T14:33:01Z</time>
      </trkpt>
      <trkpt lat="46.60294" lon="5.36168">
        <ele>193.2</ele>
        <time>2021-11-15T14:33:03Z</time>
      </trkpt>
      <trkpt lat="46.60276" lon="5.3624">
        <ele>192.4</ele>
        <time>2021-11-15T14:33:10Z</time>
      </trkpt>
      <trkpt lat="46.60274" lon="5.3625">
        <ele>192.2</ele>
        <time>2021-11-15T14:33:11Z</time>
      </trkpt>
      <trkpt lat="46.60269" lon="5.36279">
        <ele>192</ele>
        <time>2021-11-15T14:33:14Z</time>
      </trkpt>
      <trkpt lat="46.60266" lon="5.36295">
        <ele>192</ele>
        <time>2021-11-15T14:33:16Z</time>
      </trkpt>
      <trkpt lat="46.60261" lon="5.36317">
        <ele>192</ele>
        <time>2021-11-15T14:33:18Z</time>
      </trkpt>
      <trkpt lat="46.60258" lon="5.36336">
        <ele>191.8</ele>
        <time>2021-11-15T14:33:20Z</time>
      </trkpt>
      <trkpt lat="46.60252" lon="5.3639">
        <ele>192</ele>
        <time>2021-11-15T14:33:26Z</time>
      </trkpt>
      <trkpt lat="46.60252" lon="5.36407">
        <ele>192.2</ele>
        <time>2021-11-15T14:33:28Z</time>
      </trkpt>
      <trkpt lat="46.60256" lon="5.36441">
        <ele>192.6</ele>
        <time>2021-11-15T14:33:32Z</time>
      </trkpt>
      <trkpt lat="46.60264" lon="5.36471">
        <ele>193.4</ele>
        <time>2021-11-15T14:33:36Z</time>
      </trkpt>
      <trkpt lat="46.60269" lon="5.36484">
        <ele>193.8</ele>
        <time>2021-11-15T14:33:38Z</time>
      </trkpt>
      <trkpt lat="46.60277" lon="5.36503">
        <ele>194.4</ele>
        <time>2021-11-15T14:33:41Z</time>
      </trkpt>
      <trkpt lat="46.6028" lon="5.36509">
        <ele>194.6</ele>
        <time>2021-11-15T14:33:42Z</time>
      </trkpt>
      <trkpt lat="46.60283" lon="5.36514">
        <ele>194.8</ele>
        <time>2021-11-15T14:33:43Z</time>
      </trkpt>
      <trkpt lat="46.60298" lon="5.36533">
        <ele>195.6</ele>
        <time>2021-11-15T14:33:47Z</time>
      </trkpt>
      <trkpt lat="46.60314" lon="5.36548">
        <ele>196.4</ele>
        <time>2021-11-15T14:33:51Z</time>
      </trkpt>
      <trkpt lat="46.60319" lon="5.3655">
        <ele>196.6</ele>
        <time>2021-11-15T14:33:52Z</time>
      </trkpt>
      <trkpt lat="46.60328" lon="5.36548">
        <ele>197</ele>
        <time>2021-11-15T14:33:54Z</time>
      </trkpt>
      <trkpt lat="46.6034" lon="5.36535">
        <ele>197.8</ele>
        <time>2021-11-15T14:33:58Z</time>
      </trkpt>
      <trkpt lat="46.60343" lon="5.36526">
        <ele>197.8</ele>
        <time>2021-11-15T14:34:00Z</time>
      </trkpt>
      <trkpt lat="46.60343" lon="5.36523">
        <ele>197.8</ele>
        <time>2021-11-15T14:34:02Z</time>
      </trkpt>
      <trkpt lat="46.60344" lon="5.36523">
        <ele>197.8</ele>
        <time>2021-11-15T14:34:04Z</time>
      </trkpt>
      <trkpt lat="46.60344" lon="5.36527">
        <ele>197.4</ele>
        <time>2021-11-15T14:34:58Z</time>
      </trkpt>
      <trkpt lat="46.60342" lon="5.36531">
        <ele>197.4</ele>
        <time>2021-11-15T14:34:59Z</time>
      </trkpt>
      <trkpt lat="46.60336" lon="5.3655">
        <ele>197.4</ele>
        <time>2021-11-15T14:35:03Z</time>
      </trkpt>
      <trkpt lat="46.6034" lon="5.36567">
        <ele>197.6</ele>
        <time>2021-11-15T14:35:06Z</time>
      </trkpt>
      <trkpt lat="46.60361" lon="5.36588">
        <ele>198</ele>
        <time>2021-11-15T14:35:11Z</time>
      </trkpt>
      <trkpt lat="46.60374" lon="5.36601">
        <ele>198.6</ele>
        <time>2021-11-15T14:35:14Z</time>
      </trkpt>
      <trkpt lat="46.60392" lon="5.36618">
        <ele>199</ele>
        <time>2021-11-15T14:35:18Z</time>
      </trkpt>
      <trkpt lat="46.60404" lon="5.36631">
        <ele>199.8</ele>
        <time>2021-11-15T14:35:21Z</time>
      </trkpt>
      <trkpt lat="46.60418" lon="5.36654">
        <ele>200.4</ele>
        <time>2021-11-15T14:35:25Z</time>
      </trkpt>
      <trkpt lat="46.60428" lon="5.36674">
        <ele>200.8</ele>
        <time>2021-11-15T14:35:28Z</time>
      </trkpt>
      <trkpt lat="46.60439" lon="5.36705">
        <ele>201.6</ele>
        <time>2021-11-15T14:35:32Z</time>
      </trkpt>
      <trkpt lat="46.60443" lon="5.36722">
        <ele>201.8</ele>
        <time>2021-11-15T14:35:34Z</time>
      </trkpt>
      <trkpt lat="46.60449" lon="5.36759">
        <ele>202</ele>
        <time>2021-11-15T14:35:38Z</time>
      </trkpt>
      <trkpt lat="46.60453" lon="5.36823">
        <ele>200.8</ele>
        <time>2021-11-15T14:35:44Z</time>
      </trkpt>
      <trkpt lat="46.60453" lon="5.36834">
        <ele>200.8</ele>
        <time>2021-11-15T14:35:45Z</time>
      </trkpt>
      <trkpt lat="46.60453" lon="5.36882">
        <ele>200</ele>
        <time>2021-11-15T14:35:49Z</time>
      </trkpt>
      <trkpt lat="46.60452" lon="5.36894">
        <ele>199.2</ele>
        <time>2021-11-15T14:35:50Z</time>
      </trkpt>
      <trkpt lat="46.60447" lon="5.36932">
        <ele>197.8</ele>
        <time>2021-11-15T14:35:53Z</time>
      </trkpt>
      <trkpt lat="46.60445" lon="5.36945">
        <ele>197.4</ele>
        <time>2021-11-15T14:35:54Z</time>
      </trkpt>
      <trkpt lat="46.60439" lon="5.36985">
        <ele>196.6</ele>
        <time>2021-11-15T14:35:57Z</time>
      </trkpt>
      <trkpt lat="46.60432" lon="5.37036">
        <ele>195.8</ele>
        <time>2021-11-15T14:36:01Z</time>
      </trkpt>
      <trkpt lat="46.6043" lon="5.37048">
        <ele>195.6</ele>
        <time>2021-11-15T14:36:02Z</time>
      </trkpt>
      <trkpt lat="46.60422" lon="5.37105">
        <ele>195.2</ele>
        <time>2021-11-15T14:36:07Z</time>
      </trkpt>
      <trkpt lat="46.60415" lon="5.37163">
        <ele>195.6</ele>
        <time>2021-11-15T14:36:13Z</time>
      </trkpt>
      <trkpt lat="46.6041" lon="5.37223">
        <ele>196.6</ele>
        <time>2021-11-15T14:36:20Z</time>
      </trkpt>
      <trkpt lat="46.60399" lon="5.37278">
        <ele>197.2</ele>
        <time>2021-11-15T14:36:27Z</time>
      </trkpt>
      <trkpt lat="46.60391" lon="5.37298">
        <ele>197.6</ele>
        <time>2021-11-15T14:36:30Z</time>
      </trkpt>
      <trkpt lat="46.60388" lon="5.37303">
        <ele>197.8</ele>
        <time>2021-11-15T14:36:31Z</time>
      </trkpt>
      <trkpt lat="46.60385" lon="5.37309">
        <ele>198</ele>
        <time>2021-11-15T14:36:32Z</time>
      </trkpt>
      <trkpt lat="46.60377" lon="5.37318">
        <ele>198.4</ele>
        <time>2021-11-15T14:36:34Z</time>
      </trkpt>
      <trkpt lat="46.60369" lon="5.37325">
        <ele>199</ele>
        <time>2021-11-15T14:36:36Z</time>
      </trkpt>
      <trkpt lat="46.60364" lon="5.37327">
        <ele>199.2</ele>
        <time>2021-11-15T14:36:37Z</time>
      </trkpt>
      <trkpt lat="46.6035" lon="5.37333">
        <ele>200.6</ele>
        <time>2021-11-15T14:36:40Z</time>
      </trkpt>
      <trkpt lat="46.60336" lon="5.37337">
        <ele>201.6</ele>
        <time>2021-11-15T14:36:43Z</time>
      </trkpt>
      <trkpt lat="46.60326" lon="5.37339">
        <ele>202</ele>
        <time>2021-11-15T14:36:45Z</time>
      </trkpt>
      <trkpt lat="46.60312" lon="5.37343">
        <ele>203</ele>
        <time>2021-11-15T14:36:48Z</time>
      </trkpt>
      <trkpt lat="46.60293" lon="5.37348">
        <ele>204.2</ele>
        <time>2021-11-15T14:36:52Z</time>
      </trkpt>
      <trkpt lat="46.60279" lon="5.37351">
        <ele>205.2</ele>
        <time>2021-11-15T14:36:55Z</time>
      </trkpt>
      <trkpt lat="46.60274" lon="5.37354">
        <ele>205.6</ele>
        <time>2021-11-15T14:36:56Z</time>
      </trkpt>
      <trkpt lat="46.6027" lon="5.37358">
        <ele>205.8</ele>
        <time>2021-11-15T14:36:57Z</time>
      </trkpt>
      <trkpt lat="46.60265" lon="5.37362">
        <ele>206</ele>
        <time>2021-11-15T14:36:58Z</time>
      </trkpt>
      <trkpt lat="46.60261" lon="5.37368">
        <ele>206.2</ele>
        <time>2021-11-15T14:36:59Z</time>
      </trkpt>
      <trkpt lat="46.6025" lon="5.3739">
        <ele>206.6</ele>
        <time>2021-11-15T14:37:02Z</time>
      </trkpt>
      <trkpt lat="46.60247" lon="5.37399">
        <ele>206.6</ele>
        <time>2021-11-15T14:37:03Z</time>
      </trkpt>
      <trkpt lat="46.60231" lon="5.3745">
        <ele>206.6</ele>
        <time>2021-11-15T14:37:08Z</time>
      </trkpt>
      <trkpt lat="46.60217" lon="5.37499">
        <ele>205.2</ele>
        <time>2021-11-15T14:37:12Z</time>
      </trkpt>
      <trkpt lat="46.60211" lon="5.37525">
        <ele>204.2</ele>
        <time>2021-11-15T14:37:14Z</time>
      </trkpt>
      <trkpt lat="46.60203" lon="5.37565">
        <ele>203</ele>
        <time>2021-11-15T14:37:17Z</time>
      </trkpt>
      <trkpt lat="46.60197" lon="5.37593">
        <ele>202</ele>
        <time>2021-11-15T14:37:19Z</time>
      </trkpt>
      <trkpt lat="46.60189" lon="5.37635">
        <ele>200.8</ele>
        <time>2021-11-15T14:37:22Z</time>
      </trkpt>
      <trkpt lat="46.6018" lon="5.37691">
        <ele>199.6</ele>
        <time>2021-11-15T14:37:26Z</time>
      </trkpt>
      <trkpt lat="46.60172" lon="5.37732">
        <ele>197.6</ele>
        <time>2021-11-15T14:37:29Z</time>
      </trkpt>
      <trkpt lat="46.60167" lon="5.37759">
        <ele>197</ele>
        <time>2021-11-15T14:37:31Z</time>
      </trkpt>
      <trkpt lat="46.6016" lon="5.37796">
        <ele>196.6</ele>
        <time>2021-11-15T14:37:34Z</time>
      </trkpt>
      <trkpt lat="46.60155" lon="5.37819">
        <ele>196.4</ele>
        <time>2021-11-15T14:37:36Z</time>
      </trkpt>
      <trkpt lat="46.60141" lon="5.37892">
        <ele>195.8</ele>
        <time>2021-11-15T14:37:43Z</time>
      </trkpt>
      <trkpt lat="46.60127" lon="5.37963">
        <ele>196.6</ele>
        <time>2021-11-15T14:37:51Z</time>
      </trkpt>
      <trkpt lat="46.60118" lon="5.38006">
        <ele>197.8</ele>
        <time>2021-11-15T14:37:56Z</time>
      </trkpt>
      <trkpt lat="46.60109" lon="5.3806">
        <ele>198.6</ele>
        <time>2021-11-15T14:38:02Z</time>
      </trkpt>
      <trkpt lat="46.60108" lon="5.38069">
        <ele>198.8</ele>
        <time>2021-11-15T14:38:03Z</time>
      </trkpt>
      <trkpt lat="46.60099" lon="5.38137">
        <ele>199</ele>
        <time>2021-11-15T14:38:10Z</time>
      </trkpt>
      <trkpt lat="46.60093" lon="5.38218">
        <ele>198.4</ele>
        <time>2021-11-15T14:38:18Z</time>
      </trkpt>
      <trkpt lat="46.60092" lon="5.38238">
        <ele>198.2</ele>
        <time>2021-11-15T14:38:20Z</time>
      </trkpt>
      <trkpt lat="46.60092" lon="5.38289">
        <ele>197.8</ele>
        <time>2021-11-15T14:38:25Z</time>
      </trkpt>
      <trkpt lat="46.60093" lon="5.38347">
        <ele>197.6</ele>
        <time>2021-11-15T14:38:31Z</time>
      </trkpt>
      <trkpt lat="46.60093" lon="5.38433">
        <ele>198</ele>
        <time>2021-11-15T14:38:40Z</time>
      </trkpt>
      <trkpt lat="46.60093" lon="5.38442">
        <ele>198</ele>
        <time>2021-11-15T14:38:41Z</time>
      </trkpt>
      <trkpt lat="46.6009" lon="5.38521">
        <ele>198.4</ele>
        <time>2021-11-15T14:38:49Z</time>
      </trkpt>
      <trkpt lat="46.6009" lon="5.38531">
        <ele>198.2</ele>
        <time>2021-11-15T14:38:50Z</time>
      </trkpt>
      <trkpt lat="46.6008" lon="5.38606">
        <ele>197.2</ele>
        <time>2021-11-15T14:38:57Z</time>
      </trkpt>
      <trkpt lat="46.6007" lon="5.38647">
        <ele>196.6</ele>
        <time>2021-11-15T14:39:01Z</time>
      </trkpt>
      <trkpt lat="46.60061" lon="5.38689">
        <ele>196.2</ele>
        <time>2021-11-15T14:39:05Z</time>
      </trkpt>
      <trkpt lat="46.60048" lon="5.38742">
        <ele>196.2</ele>
        <time>2021-11-15T14:39:11Z</time>
      </trkpt>
      <trkpt lat="46.60037" lon="5.38785">
        <ele>197.2</ele>
        <time>2021-11-15T14:39:17Z</time>
      </trkpt>
      <trkpt lat="46.60033" lon="5.38798">
        <ele>198</ele>
        <time>2021-11-15T14:39:19Z</time>
      </trkpt>
      <trkpt lat="46.60028" lon="5.38811">
        <ele>198.4</ele>
        <time>2021-11-15T14:39:21Z</time>
      </trkpt>
      <trkpt lat="46.60023" lon="5.38823">
        <ele>198.8</ele>
        <time>2021-11-15T14:39:23Z</time>
      </trkpt>
      <trkpt lat="46.60021" lon="5.38829">
        <ele>199.4</ele>
        <time>2021-11-15T14:39:24Z</time>
      </trkpt>
      <trkpt lat="46.60014" lon="5.38847">
        <ele>200.8</ele>
        <time>2021-11-15T14:39:27Z</time>
      </trkpt>
      <trkpt lat="46.60007" lon="5.38864">
        <ele>202</ele>
        <time>2021-11-15T14:39:30Z</time>
      </trkpt>
      <trkpt lat="46.60002" lon="5.38875">
        <ele>202.6</ele>
        <time>2021-11-15T14:39:32Z</time>
      </trkpt>
      <trkpt lat="46.6" lon="5.3888">
        <ele>203.2</ele>
        <time>2021-11-15T14:39:33Z</time>
      </trkpt>
      <trkpt lat="46.59991" lon="5.38908">
        <ele>204.2</ele>
        <time>2021-11-15T14:39:38Z</time>
      </trkpt>
      <trkpt lat="46.5999" lon="5.38913">
        <ele>204.4</ele>
        <time>2021-11-15T14:39:39Z</time>
      </trkpt>
      <trkpt lat="46.59986" lon="5.38931">
        <ele>205.4</ele>
        <time>2021-11-15T14:39:42Z</time>
      </trkpt>
      <trkpt lat="46.59982" lon="5.38956">
        <ele>206.6</ele>
        <time>2021-11-15T14:39:46Z</time>
      </trkpt>
      <trkpt lat="46.59981" lon="5.38963">
        <ele>207</ele>
        <time>2021-11-15T14:39:47Z</time>
      </trkpt>
      <trkpt lat="46.59979" lon="5.38984">
        <ele>207.8</ele>
        <time>2021-11-15T14:39:50Z</time>
      </trkpt>
      <trkpt lat="46.59975" lon="5.39011">
        <ele>209.2</ele>
        <time>2021-11-15T14:39:54Z</time>
      </trkpt>
      <trkpt lat="46.59974" lon="5.39018">
        <ele>209.2</ele>
        <time>2021-11-15T14:39:55Z</time>
      </trkpt>
      <trkpt lat="46.59968" lon="5.39059">
        <ele>210.2</ele>
        <time>2021-11-15T14:40:01Z</time>
      </trkpt>
      <trkpt lat="46.59965" lon="5.39085">
        <ele>211</ele>
        <time>2021-11-15T14:40:05Z</time>
      </trkpt>
      <trkpt lat="46.59963" lon="5.39092">
        <ele>211.2</ele>
        <time>2021-11-15T14:40:06Z</time>
      </trkpt>
      <trkpt lat="46.59961" lon="5.39098">
        <ele>211.4</ele>
        <time>2021-11-15T14:40:07Z</time>
      </trkpt>
      <trkpt lat="46.59959" lon="5.39104">
        <ele>211.8</ele>
        <time>2021-11-15T14:40:08Z</time>
      </trkpt>
      <trkpt lat="46.59955" lon="5.3911">
        <ele>211.8</ele>
        <time>2021-11-15T14:40:09Z</time>
      </trkpt>
      <trkpt lat="46.59946" lon="5.39126">
        <ele>212.6</ele>
        <time>2021-11-15T14:40:12Z</time>
      </trkpt>
      <trkpt lat="46.59922" lon="5.39168">
        <ele>213.8</ele>
        <time>2021-11-15T14:40:19Z</time>
      </trkpt>
      <trkpt lat="46.59912" lon="5.39179">
        <ele>213.8</ele>
        <time>2021-11-15T14:40:21Z</time>
      </trkpt>
      <trkpt lat="46.59901" lon="5.39187">
        <ele>213.8</ele>
        <time>2021-11-15T14:40:23Z</time>
      </trkpt>
      <trkpt lat="46.59872" lon="5.39195">
        <ele>213.8</ele>
        <time>2021-11-15T14:40:28Z</time>
      </trkpt>
      <trkpt lat="46.59836" lon="5.39192">
        <ele>213.8</ele>
        <time>2021-11-15T14:40:34Z</time>
      </trkpt>
      <trkpt lat="46.598" lon="5.39189">
        <ele>214.2</ele>
        <time>2021-11-15T14:40:40Z</time>
      </trkpt>
      <trkpt lat="46.59794" lon="5.39191">
        <ele>214.4</ele>
        <time>2021-11-15T14:40:41Z</time>
      </trkpt>
      <trkpt lat="46.59754" lon="5.39207">
        <ele>214.6</ele>
        <time>2021-11-15T14:40:48Z</time>
      </trkpt>
      <trkpt lat="46.59748" lon="5.3921">
        <ele>214.6</ele>
        <time>2021-11-15T14:40:49Z</time>
      </trkpt>
      <trkpt lat="46.59736" lon="5.39209">
        <ele>214.8</ele>
        <time>2021-11-15T14:40:51Z</time>
      </trkpt>
      <trkpt lat="46.5973" lon="5.39207">
        <ele>214.8</ele>
        <time>2021-11-15T14:40:52Z</time>
      </trkpt>
      <trkpt lat="46.59681" lon="5.39193">
        <ele>215.4</ele>
        <time>2021-11-15T14:41:00Z</time>
      </trkpt>
      <trkpt lat="46.59645" lon="5.39185">
        <ele>215.8</ele>
        <time>2021-11-15T14:41:05Z</time>
      </trkpt>
      <trkpt lat="46.59638" lon="5.39184">
        <ele>215.8</ele>
        <time>2021-11-15T14:41:06Z</time>
      </trkpt>
      <trkpt lat="46.596" lon="5.3919">
        <ele>215.4</ele>
        <time>2021-11-15T14:41:11Z</time>
      </trkpt>
      <trkpt lat="46.5957" lon="5.39204">
        <ele>215.2</ele>
        <time>2021-11-15T14:41:15Z</time>
      </trkpt>
      <trkpt lat="46.59554" lon="5.39207">
        <ele>215</ele>
        <time>2021-11-15T14:41:17Z</time>
      </trkpt>
      <trkpt lat="46.59531" lon="5.39206">
        <ele>214.8</ele>
        <time>2021-11-15T14:41:20Z</time>
      </trkpt>
      <trkpt lat="46.59523" lon="5.39203">
        <ele>214.8</ele>
        <time>2021-11-15T14:41:21Z</time>
      </trkpt>
      <trkpt lat="46.59516" lon="5.39198">
        <ele>214.8</ele>
        <time>2021-11-15T14:41:22Z</time>
      </trkpt>
      <trkpt lat="46.59505" lon="5.39181">
        <ele>214.6</ele>
        <time>2021-11-15T14:41:24Z</time>
      </trkpt>
      <trkpt lat="46.595" lon="5.3916">
        <ele>214.6</ele>
        <time>2021-11-15T14:41:26Z</time>
      </trkpt>
      <trkpt lat="46.59498" lon="5.39148">
        <ele>214.6</ele>
        <time>2021-11-15T14:41:27Z</time>
      </trkpt>
      <trkpt lat="46.59488" lon="5.39069">
        <ele>214.2</ele>
        <time>2021-11-15T14:41:34Z</time>
      </trkpt>
      <trkpt lat="46.59485" lon="5.39035">
        <ele>213.8</ele>
        <time>2021-11-15T14:41:37Z</time>
      </trkpt>
      <trkpt lat="46.59481" lon="5.39002">
        <ele>213.6</ele>
        <time>2021-11-15T14:41:40Z</time>
      </trkpt>
      <trkpt lat="46.59471" lon="5.38949">
        <ele>213.4</ele>
        <time>2021-11-15T14:41:45Z</time>
      </trkpt>
      <trkpt lat="46.59452" lon="5.38891">
        <ele>213.2</ele>
        <time>2021-11-15T14:41:51Z</time>
      </trkpt>
      <trkpt lat="46.59446" lon="5.38837">
        <ele>213.2</ele>
        <time>2021-11-15T14:41:56Z</time>
      </trkpt>
      <trkpt lat="46.59443" lon="5.38816">
        <ele>213.6</ele>
        <time>2021-11-15T14:41:58Z</time>
      </trkpt>
      <trkpt lat="46.59438" lon="5.38796">
        <ele>213.8</ele>
        <time>2021-11-15T14:42:00Z</time>
      </trkpt>
      <trkpt lat="46.59429" lon="5.38778">
        <ele>214</ele>
        <time>2021-11-15T14:42:02Z</time>
      </trkpt>
      <trkpt lat="46.59423" lon="5.38771">
        <ele>214</ele>
        <time>2021-11-15T14:42:03Z</time>
      </trkpt>
      <trkpt lat="46.59386" lon="5.38731">
        <ele>214</ele>
        <time>2021-11-15T14:42:09Z</time>
      </trkpt>
      <trkpt lat="46.59337" lon="5.38678">
        <ele>213.6</ele>
        <time>2021-11-15T14:42:17Z</time>
      </trkpt>
      <trkpt lat="46.59325" lon="5.38664">
        <ele>213.6</ele>
        <time>2021-11-15T14:42:19Z</time>
      </trkpt>
      <trkpt lat="46.59284" lon="5.3862">
        <ele>213</ele>
        <time>2021-11-15T14:42:26Z</time>
      </trkpt>
      <trkpt lat="46.59236" lon="5.38569">
        <ele>213</ele>
        <time>2021-11-15T14:42:34Z</time>
      </trkpt>
      <trkpt lat="46.5923" lon="5.38562">
        <ele>213</ele>
        <time>2021-11-15T14:42:35Z</time>
      </trkpt>
      <trkpt lat="46.59184" lon="5.38511">
        <ele>213.6</ele>
        <time>2021-11-15T14:42:43Z</time>
      </trkpt>
      <trkpt lat="46.5916" lon="5.38478">
        <ele>213.6</ele>
        <time>2021-11-15T14:42:47Z</time>
      </trkpt>
      <trkpt lat="46.59133" lon="5.38431">
        <ele>212.4</ele>
        <time>2021-11-15T14:42:52Z</time>
      </trkpt>
      <trkpt lat="46.5912" lon="5.38414">
        <ele>212</ele>
        <time>2021-11-15T14:42:54Z</time>
      </trkpt>
      <trkpt lat="46.59104" lon="5.38399">
        <ele>211.4</ele>
        <time>2021-11-15T14:42:56Z</time>
      </trkpt>
      <trkpt lat="46.59081" lon="5.38378">
        <ele>210.2</ele>
        <time>2021-11-15T14:42:59Z</time>
      </trkpt>
      <trkpt lat="46.59056" lon="5.38358">
        <ele>209.2</ele>
        <time>2021-11-15T14:43:02Z</time>
      </trkpt>
      <trkpt lat="46.59033" lon="5.38339">
        <ele>208</ele>
        <time>2021-11-15T14:43:05Z</time>
      </trkpt>
      <trkpt lat="46.59016" lon="5.38325">
        <ele>207.4</ele>
        <time>2021-11-15T14:43:07Z</time>
      </trkpt>
      <trkpt lat="46.59016" lon="5.38325">
        <ele>206.8</ele>
        <time>2021-11-15T14:43:08Z</time>
      </trkpt>
      <trkpt lat="46.58967" lon="5.38286">
        <ele>205.8</ele>
        <time>2021-11-15T14:43:13Z</time>
      </trkpt>
      <trkpt lat="46.58953" lon="5.38273">
        <ele>205.8</ele>
        <time>2021-11-15T14:43:15Z</time>
      </trkpt>
      <trkpt lat="46.58945" lon="5.38265">
        <ele>205.8</ele>
        <time>2021-11-15T14:43:16Z</time>
      </trkpt>
      <trkpt lat="46.58927" lon="5.38248">
        <ele>205.8</ele>
        <time>2021-11-15T14:43:19Z</time>
      </trkpt>
      <trkpt lat="46.58893" lon="5.38207">
        <ele>206.8</ele>
        <time>2021-11-15T14:43:25Z</time>
      </trkpt>
      <trkpt lat="46.5886" lon="5.38164">
        <ele>208</ele>
        <time>2021-11-15T14:43:31Z</time>
      </trkpt>
      <trkpt lat="46.58838" lon="5.38137">
        <ele>208.6</ele>
        <time>2021-11-15T14:43:35Z</time>
      </trkpt>
      <trkpt lat="46.58822" lon="5.38117">
        <ele>209</ele>
        <time>2021-11-15T14:43:38Z</time>
      </trkpt>
      <trkpt lat="46.58804" lon="5.38095">
        <ele>209.4</ele>
        <time>2021-11-15T14:43:41Z</time>
      </trkpt>
      <trkpt lat="46.58792" lon="5.3808">
        <ele>209.6</ele>
        <time>2021-11-15T14:43:43Z</time>
      </trkpt>
      <trkpt lat="46.58785" lon="5.38074">
        <ele>209.8</ele>
        <time>2021-11-15T14:43:44Z</time>
      </trkpt>
      <trkpt lat="46.5877" lon="5.38065">
        <ele>210</ele>
        <time>2021-11-15T14:43:46Z</time>
      </trkpt>
      <trkpt lat="46.58764" lon="5.38063">
        <ele>210</ele>
        <time>2021-11-15T14:43:47Z</time>
      </trkpt>
      <trkpt lat="46.58716" lon="5.38055">
        <ele>210</ele>
        <time>2021-11-15T14:43:53Z</time>
      </trkpt>
      <trkpt lat="46.58657" lon="5.38051">
        <ele>209</ele>
        <time>2021-11-15T14:44:00Z</time>
      </trkpt>
      <trkpt lat="46.58633" lon="5.38046">
        <ele>208.8</ele>
        <time>2021-11-15T14:44:03Z</time>
      </trkpt>
      <trkpt lat="46.58611" lon="5.38035">
        <ele>208.6</ele>
        <time>2021-11-15T14:44:06Z</time>
      </trkpt>
      <trkpt lat="46.58605" lon="5.3803">
        <ele>208.4</ele>
        <time>2021-11-15T14:44:07Z</time>
      </trkpt>
      <trkpt lat="46.58577" lon="5.38004">
        <ele>207.8</ele>
        <time>2021-11-15T14:44:11Z</time>
      </trkpt>
      <trkpt lat="46.5857" lon="5.38001">
        <ele>207.6</ele>
        <time>2021-11-15T14:44:12Z</time>
      </trkpt>
      <trkpt lat="46.58561" lon="5.38">
        <ele>207.6</ele>
        <time>2021-11-15T14:44:13Z</time>
      </trkpt>
      <trkpt lat="46.58546" lon="5.38005">
        <ele>207.2</ele>
        <time>2021-11-15T14:44:15Z</time>
      </trkpt>
      <trkpt lat="46.58522" lon="5.3802">
        <ele>206.6</ele>
        <time>2021-11-15T14:44:18Z</time>
      </trkpt>
      <trkpt lat="46.58508" lon="5.38027">
        <ele>206.4</ele>
        <time>2021-11-15T14:44:20Z</time>
      </trkpt>
      <trkpt lat="46.5849" lon="5.38029">
        <ele>206.8</ele>
        <time>2021-11-15T14:44:22Z</time>
      </trkpt>
      <trkpt lat="46.58482" lon="5.38027">
        <ele>206.8</ele>
        <time>2021-11-15T14:44:23Z</time>
      </trkpt>
      <trkpt lat="46.58438" lon="5.38013">
        <ele>206.4</ele>
        <time>2021-11-15T14:44:28Z</time>
      </trkpt>
      <trkpt lat="46.584" lon="5.37997">
        <ele>205.6</ele>
        <time>2021-11-15T14:44:32Z</time>
      </trkpt>
      <trkpt lat="46.58371" lon="5.37986">
        <ele>204.6</ele>
        <time>2021-11-15T14:44:35Z</time>
      </trkpt>
      <trkpt lat="46.58342" lon="5.37974">
        <ele>203.4</ele>
        <time>2021-11-15T14:44:38Z</time>
      </trkpt>
      <trkpt lat="46.58323" lon="5.37965">
        <ele>202</ele>
        <time>2021-11-15T14:44:40Z</time>
      </trkpt>
      <trkpt lat="46.58305" lon="5.37955">
        <ele>201.6</ele>
        <time>2021-11-15T14:44:42Z</time>
      </trkpt>
      <trkpt lat="46.58281" lon="5.37939">
        <ele>201.2</ele>
        <time>2021-11-15T14:44:45Z</time>
      </trkpt>
      <trkpt lat="46.58253" lon="5.37922">
        <ele>200</ele>
        <time>2021-11-15T14:44:48Z</time>
      </trkpt>
      <trkpt lat="46.58246" lon="5.37917">
        <ele>199.8</ele>
        <time>2021-11-15T14:44:49Z</time>
      </trkpt>
      <trkpt lat="46.5821" lon="5.37894">
        <ele>199</ele>
        <time>2021-11-15T14:44:53Z</time>
      </trkpt>
      <trkpt lat="46.58181" lon="5.37877">
        <ele>198.2</ele>
        <time>2021-11-15T14:44:56Z</time>
      </trkpt>
      <trkpt lat="46.58172" lon="5.37875">
        <ele>198</ele>
        <time>2021-11-15T14:44:57Z</time>
      </trkpt>
      <trkpt lat="46.58164" lon="5.37874">
        <ele>197.8</ele>
        <time>2021-11-15T14:44:58Z</time>
      </trkpt>
      <trkpt lat="46.58155" lon="5.37876">
        <ele>197.8</ele>
        <time>2021-11-15T14:44:59Z</time>
      </trkpt>
      <trkpt lat="46.58129" lon="5.37895">
        <ele>197</ele>
        <time>2021-11-15T14:45:02Z</time>
      </trkpt>
      <trkpt lat="46.58114" lon="5.37906">
        <ele>196.8</ele>
        <time>2021-11-15T14:45:04Z</time>
      </trkpt>
      <trkpt lat="46.58104" lon="5.3791">
        <ele>196.8</ele>
        <time>2021-11-15T14:45:05Z</time>
      </trkpt>
      <trkpt lat="46.58096" lon="5.37914">
        <ele>196.6</ele>
        <time>2021-11-15T14:45:06Z</time>
      </trkpt>
      <trkpt lat="46.58038" lon="5.37932">
        <ele>196.2</ele>
        <time>2021-11-15T14:45:13Z</time>
      </trkpt>
      <trkpt lat="46.58021" lon="5.37938">
        <ele>196</ele>
        <time>2021-11-15T14:45:15Z</time>
      </trkpt>
      <trkpt lat="46.57992" lon="5.37953">
        <ele>196</ele>
        <time>2021-11-15T14:45:19Z</time>
      </trkpt>
      <trkpt lat="46.57954" lon="5.37982">
        <ele>196</ele>
        <time>2021-11-15T14:45:25Z</time>
      </trkpt>
      <trkpt lat="46.57921" lon="5.38006">
        <ele>196.6</ele>
        <time>2021-11-15T14:45:31Z</time>
      </trkpt>
      <trkpt lat="46.57912" lon="5.38018">
        <ele>197.2</ele>
        <time>2021-11-15T14:45:33Z</time>
      </trkpt>
      <trkpt lat="46.57903" lon="5.38038">
        <ele>197.8</ele>
        <time>2021-11-15T14:45:36Z</time>
      </trkpt>
      <trkpt lat="46.57899" lon="5.38046">
        <ele>197.8</ele>
        <time>2021-11-15T14:45:37Z</time>
      </trkpt>
      <trkpt lat="46.57886" lon="5.38088">
        <ele>199</ele>
        <time>2021-11-15T14:45:42Z</time>
      </trkpt>
      <trkpt lat="46.57883" lon="5.38097">
        <ele>199.2</ele>
        <time>2021-11-15T14:45:43Z</time>
      </trkpt>
      <trkpt lat="46.57863" lon="5.38158">
        <ele>199.8</ele>
        <time>2021-11-15T14:45:50Z</time>
      </trkpt>
      <trkpt lat="46.57849" lon="5.38188">
        <ele>199.6</ele>
        <time>2021-11-15T14:45:54Z</time>
      </trkpt>
      <trkpt lat="46.57838" lon="5.38203">
        <ele>199.6</ele>
        <time>2021-11-15T14:45:56Z</time>
      </trkpt>
      <trkpt lat="46.57832" lon="5.38208">
        <ele>199.6</ele>
        <time>2021-11-15T14:45:57Z</time>
      </trkpt>
      <trkpt lat="46.57795" lon="5.38244">
        <ele>199.6</ele>
        <time>2021-11-15T14:46:04Z</time>
      </trkpt>
      <trkpt lat="46.57774" lon="5.38265">
        <ele>200</ele>
        <time>2021-11-15T14:46:08Z</time>
      </trkpt>
      <trkpt lat="46.57751" lon="5.38286">
        <ele>200.4</ele>
        <time>2021-11-15T14:46:12Z</time>
      </trkpt>
      <trkpt lat="46.57745" lon="5.3829">
        <ele>200.6</ele>
        <time>2021-11-15T14:46:13Z</time>
      </trkpt>
      <trkpt lat="46.5771" lon="5.38304">
        <ele>200.8</ele>
        <time>2021-11-15T14:46:19Z</time>
      </trkpt>
      <trkpt lat="46.57663" lon="5.38314">
        <ele>201</ele>
        <time>2021-11-15T14:46:26Z</time>
      </trkpt>
      <trkpt lat="46.57656" lon="5.38315">
        <ele>201</ele>
        <time>2021-11-15T14:46:27Z</time>
      </trkpt>
      <trkpt lat="46.57651" lon="5.38317">
        <ele>201</ele>
        <time>2021-11-15T14:46:28Z</time>
      </trkpt>
      <trkpt lat="46.57637" lon="5.38323">
        <ele>200.8</ele>
        <time>2021-11-15T14:46:30Z</time>
      </trkpt>
      <trkpt lat="46.5763" lon="5.38324">
        <ele>200.6</ele>
        <time>2021-11-15T14:46:31Z</time>
      </trkpt>
      <trkpt lat="46.57624" lon="5.38323">
        <ele>200.6</ele>
        <time>2021-11-15T14:46:32Z</time>
      </trkpt>
      <trkpt lat="46.57614" lon="5.38309">
        <ele>200.4</ele>
        <time>2021-11-15T14:46:34Z</time>
      </trkpt>
      <trkpt lat="46.57607" lon="5.38288">
        <ele>200</ele>
        <time>2021-11-15T14:46:36Z</time>
      </trkpt>
      <trkpt lat="46.57603" lon="5.3828">
        <ele>200</ele>
        <time>2021-11-15T14:46:37Z</time>
      </trkpt>
      <trkpt lat="46.57597" lon="5.38269">
        <ele>199.4</ele>
        <time>2021-11-15T14:46:38Z</time>
      </trkpt>
      <trkpt lat="46.57584" lon="5.38247">
        <ele>198.6</ele>
        <time>2021-11-15T14:46:40Z</time>
      </trkpt>
      <trkpt lat="46.57577" lon="5.38238">
        <ele>198.4</ele>
        <time>2021-11-15T14:46:41Z</time>
      </trkpt>
      <trkpt lat="46.5757" lon="5.3823">
        <ele>198.2</ele>
        <time>2021-11-15T14:46:42Z</time>
      </trkpt>
      <trkpt lat="46.57555" lon="5.38216">
        <ele>197.6</ele>
        <time>2021-11-15T14:46:44Z</time>
      </trkpt>
      <trkpt lat="46.57534" lon="5.38198">
        <ele>197</ele>
        <time>2021-11-15T14:46:47Z</time>
      </trkpt>
      <trkpt lat="46.57518" lon="5.38185">
        <ele>196.6</ele>
        <time>2021-11-15T14:46:49Z</time>
      </trkpt>
      <trkpt lat="46.57482" lon="5.38156">
        <ele>196</ele>
        <time>2021-11-15T14:46:54Z</time>
      </trkpt>
      <trkpt lat="46.57434" lon="5.38119">
        <ele>196</ele>
        <time>2021-11-15T14:47:01Z</time>
      </trkpt>
      <trkpt lat="46.57428" lon="5.38114">
        <ele>196</ele>
        <time>2021-11-15T14:47:02Z</time>
      </trkpt>
      <trkpt lat="46.57395" lon="5.38088">
        <ele>196</ele>
        <time>2021-11-15T14:47:07Z</time>
      </trkpt>
      <trkpt lat="46.57384" lon="5.38075">
        <ele>196.2</ele>
        <time>2021-11-15T14:47:09Z</time>
      </trkpt>
      <trkpt lat="46.57367" lon="5.38044">
        <ele>196.4</ele>
        <time>2021-11-15T14:47:13Z</time>
      </trkpt>
      <trkpt lat="46.57354" lon="5.38015">
        <ele>197.4</ele>
        <time>2021-11-15T14:47:17Z</time>
      </trkpt>
      <trkpt lat="46.57348" lon="5.38001">
        <ele>198</ele>
        <time>2021-11-15T14:47:19Z</time>
      </trkpt>
      <trkpt lat="46.57329" lon="5.37962">
        <ele>199.2</ele>
        <time>2021-11-15T14:47:25Z</time>
      </trkpt>
      <trkpt lat="46.57325" lon="5.37955">
        <ele>199.8</ele>
        <time>2021-11-15T14:47:26Z</time>
      </trkpt>
      <trkpt lat="46.57318" lon="5.37942">
        <ele>200.4</ele>
        <time>2021-11-15T14:47:28Z</time>
      </trkpt>
      <trkpt lat="46.57304" lon="5.37914">
        <ele>201.2</ele>
        <time>2021-11-15T14:47:32Z</time>
      </trkpt>
      <trkpt lat="46.573" lon="5.37907">
        <ele>201.6</ele>
        <time>2021-11-15T14:47:33Z</time>
      </trkpt>
      <trkpt lat="46.57286" lon="5.3788">
        <ele>202.8</ele>
        <time>2021-11-15T14:47:37Z</time>
      </trkpt>
      <trkpt lat="46.57272" lon="5.3785">
        <ele>203.8</ele>
        <time>2021-11-15T14:47:42Z</time>
      </trkpt>
      <trkpt lat="46.57269" lon="5.37844">
        <ele>204</ele>
        <time>2021-11-15T14:47:43Z</time>
      </trkpt>
      <trkpt lat="46.57258" lon="5.37821">
        <ele>204.8</ele>
        <time>2021-11-15T14:47:47Z</time>
      </trkpt>
      <trkpt lat="46.57247" lon="5.37799">
        <ele>206.2</ele>
        <time>2021-11-15T14:47:51Z</time>
      </trkpt>
      <trkpt lat="46.57244" lon="5.37793">
        <ele>206.2</ele>
        <time>2021-11-15T14:47:52Z</time>
      </trkpt>
      <trkpt lat="46.57232" lon="5.37771">
        <ele>207.4</ele>
        <time>2021-11-15T14:47:56Z</time>
      </trkpt>
      <trkpt lat="46.57226" lon="5.37761">
        <ele>207.8</ele>
        <time>2021-11-15T14:47:58Z</time>
      </trkpt>
      <trkpt lat="46.57222" lon="5.37757">
        <ele>207.8</ele>
        <time>2021-11-15T14:47:59Z</time>
      </trkpt>
      <trkpt lat="46.57218" lon="5.37755">
        <ele>208</ele>
        <time>2021-11-15T14:48:00Z</time>
      </trkpt>
      <trkpt lat="46.57209" lon="5.37756">
        <ele>208.2</ele>
        <time>2021-11-15T14:48:02Z</time>
      </trkpt>
      <trkpt lat="46.57205" lon="5.37759">
        <ele>208.4</ele>
        <time>2021-11-15T14:48:03Z</time>
      </trkpt>
      <trkpt lat="46.57202" lon="5.37762">
        <ele>209</ele>
        <time>2021-11-15T14:48:04Z</time>
      </trkpt>
      <trkpt lat="46.57197" lon="5.37768">
        <ele>209.4</ele>
        <time>2021-11-15T14:48:05Z</time>
      </trkpt>
      <trkpt lat="46.57192" lon="5.37772">
        <ele>209.6</ele>
        <time>2021-11-15T14:48:06Z</time>
      </trkpt>
      <trkpt lat="46.57164" lon="5.37807">
        <ele>210</ele>
        <time>2021-11-15T14:48:12Z</time>
      </trkpt>
      <trkpt lat="46.5713" lon="5.37844">
        <ele>208.4</ele>
        <time>2021-11-15T14:48:18Z</time>
      </trkpt>
      <trkpt lat="46.57117" lon="5.37857">
        <ele>208.2</ele>
        <time>2021-11-15T14:48:20Z</time>
      </trkpt>
      <trkpt lat="46.57096" lon="5.37876">
        <ele>207</ele>
        <time>2021-11-15T14:48:23Z</time>
      </trkpt>
      <trkpt lat="46.57048" lon="5.37917">
        <ele>206</ele>
        <time>2021-11-15T14:48:30Z</time>
      </trkpt>
      <trkpt lat="46.57002" lon="5.37952">
        <ele>206</ele>
        <time>2021-11-15T14:48:37Z</time>
      </trkpt>
      <trkpt lat="46.56952" lon="5.37984">
        <ele>207</ele>
        <time>2021-11-15T14:48:45Z</time>
      </trkpt>
      <trkpt lat="46.56946" lon="5.37986">
        <ele>207</ele>
        <time>2021-11-15T14:48:46Z</time>
      </trkpt>
      <trkpt lat="46.56933" lon="5.37988">
        <ele>207.4</ele>
        <time>2021-11-15T14:48:48Z</time>
      </trkpt>
      <trkpt lat="46.56927" lon="5.37988">
        <ele>207.6</ele>
        <time>2021-11-15T14:48:49Z</time>
      </trkpt>
      <trkpt lat="46.56909" lon="5.37985">
        <ele>208</ele>
        <time>2021-11-15T14:48:52Z</time>
      </trkpt>
      <trkpt lat="46.56891" lon="5.37981">
        <ele>208.6</ele>
        <time>2021-11-15T14:48:55Z</time>
      </trkpt>
      <trkpt lat="46.56872" lon="5.37979">
        <ele>209.2</ele>
        <time>2021-11-15T14:48:58Z</time>
      </trkpt>
      <trkpt lat="46.56866" lon="5.37978">
        <ele>209.4</ele>
        <time>2021-11-15T14:48:59Z</time>
      </trkpt>
      <trkpt lat="46.56849" lon="5.37974">
        <ele>210</ele>
        <time>2021-11-15T14:49:02Z</time>
      </trkpt>
      <trkpt lat="46.56842" lon="5.37973">
        <ele>210</ele>
        <time>2021-11-15T14:49:03Z</time>
      </trkpt>
      <trkpt lat="46.56836" lon="5.37971">
        <ele>210.2</ele>
        <time>2021-11-15T14:49:04Z</time>
      </trkpt>
      <trkpt lat="46.56815" lon="5.37964">
        <ele>210.4</ele>
        <time>2021-11-15T14:49:07Z</time>
      </trkpt>
      <trkpt lat="46.56762" lon="5.37951">
        <ele>211</ele>
        <time>2021-11-15T14:49:15Z</time>
      </trkpt>
      <trkpt lat="46.5673" lon="5.37943">
        <ele>211.2</ele>
        <time>2021-11-15T14:49:20Z</time>
      </trkpt>
      <trkpt lat="46.56695" lon="5.37936">
        <ele>211.6</ele>
        <time>2021-11-15T14:49:25Z</time>
      </trkpt>
      <trkpt lat="46.56639" lon="5.37923">
        <ele>212.2</ele>
        <time>2021-11-15T14:49:34Z</time>
      </trkpt>
      <trkpt lat="46.5658" lon="5.37914">
        <ele>213</ele>
        <time>2021-11-15T14:49:43Z</time>
      </trkpt>
      <trkpt lat="46.56574" lon="5.37914">
        <ele>213.4</ele>
        <time>2021-11-15T14:49:44Z</time>
      </trkpt>
      <trkpt lat="46.56567" lon="5.37915">
        <ele>213.4</ele>
        <time>2021-11-15T14:49:45Z</time>
      </trkpt>
      <trkpt lat="46.56547" lon="5.37925">
        <ele>213.2</ele>
        <time>2021-11-15T14:49:48Z</time>
      </trkpt>
      <trkpt lat="46.56512" lon="5.37947">
        <ele>213</ele>
        <time>2021-11-15T14:49:53Z</time>
      </trkpt>
      <trkpt lat="46.56505" lon="5.37949">
        <ele>212.8</ele>
        <time>2021-11-15T14:49:54Z</time>
      </trkpt>
      <trkpt lat="46.56497" lon="5.3795">
        <ele>212.8</ele>
        <time>2021-11-15T14:49:55Z</time>
      </trkpt>
      <trkpt lat="46.56473" lon="5.37946">
        <ele>212.2</ele>
        <time>2021-11-15T14:49:58Z</time>
      </trkpt>
      <trkpt lat="46.56417" lon="5.37932">
        <ele>211.6</ele>
        <time>2021-11-15T14:50:05Z</time>
      </trkpt>
      <trkpt lat="46.56409" lon="5.3793">
        <ele>211.2</ele>
        <time>2021-11-15T14:50:06Z</time>
      </trkpt>
      <trkpt lat="46.56399" lon="5.37928">
        <ele>211</ele>
        <time>2021-11-15T14:50:07Z</time>
      </trkpt>
      <trkpt lat="46.56391" lon="5.37928">
        <ele>210.8</ele>
        <time>2021-11-15T14:50:08Z</time>
      </trkpt>
      <trkpt lat="46.56367" lon="5.37938">
        <ele>210.6</ele>
        <time>2021-11-15T14:50:11Z</time>
      </trkpt>
      <trkpt lat="46.56342" lon="5.37949">
        <ele>210.4</ele>
        <time>2021-11-15T14:50:14Z</time>
      </trkpt>
      <trkpt lat="46.56333" lon="5.3795">
        <ele>210.2</ele>
        <time>2021-11-15T14:50:15Z</time>
      </trkpt>
      <trkpt lat="46.56324" lon="5.37951">
        <ele>210</ele>
        <time>2021-11-15T14:50:16Z</time>
      </trkpt>
      <trkpt lat="46.56299" lon="5.37948">
        <ele>209.8</ele>
        <time>2021-11-15T14:50:19Z</time>
      </trkpt>
      <trkpt lat="46.56291" lon="5.37949">
        <ele>209.8</ele>
        <time>2021-11-15T14:50:20Z</time>
      </trkpt>
      <trkpt lat="46.56259" lon="5.37961">
        <ele>209.2</ele>
        <time>2021-11-15T14:50:24Z</time>
      </trkpt>
      <trkpt lat="46.56222" lon="5.3798">
        <ele>209.2</ele>
        <time>2021-11-15T14:50:29Z</time>
      </trkpt>
      <trkpt lat="46.5621" lon="5.37989">
        <ele>209</ele>
        <time>2021-11-15T14:50:31Z</time>
      </trkpt>
      <trkpt lat="46.56197" lon="5.38004">
        <ele>209</ele>
        <time>2021-11-15T14:50:33Z</time>
      </trkpt>
      <trkpt lat="46.56192" lon="5.38012">
        <ele>209.2</ele>
        <time>2021-11-15T14:50:34Z</time>
      </trkpt>
      <trkpt lat="46.56162" lon="5.38071">
        <ele>209.6</ele>
        <time>2021-11-15T14:50:41Z</time>
      </trkpt>
      <trkpt lat="46.56134" lon="5.38107">
        <ele>210.2</ele>
        <time>2021-11-15T14:50:46Z</time>
      </trkpt>
      <trkpt lat="46.56084" lon="5.38143">
        <ele>210.4</ele>
        <time>2021-11-15T14:50:54Z</time>
      </trkpt>
      <trkpt lat="46.56038" lon="5.38176">
        <ele>211.2</ele>
        <time>2021-11-15T14:51:02Z</time>
      </trkpt>
      <trkpt lat="46.5602" lon="5.38191">
        <ele>211.4</ele>
        <time>2021-11-15T14:51:05Z</time>
      </trkpt>
      <trkpt lat="46.56011" lon="5.38205">
        <ele>211.4</ele>
        <time>2021-11-15T14:51:07Z</time>
      </trkpt>
      <trkpt lat="46.56007" lon="5.38221">
        <ele>211.4</ele>
        <time>2021-11-15T14:51:09Z</time>
      </trkpt>
      <trkpt lat="46.56003" lon="5.38243">
        <ele>211.4</ele>
        <time>2021-11-15T14:51:11Z</time>
      </trkpt>
      <trkpt lat="46.55994" lon="5.38309">
        <ele>211.2</ele>
        <time>2021-11-15T14:51:18Z</time>
      </trkpt>
      <trkpt lat="46.55993" lon="5.38316">
        <ele>211.2</ele>
        <time>2021-11-15T14:51:19Z</time>
      </trkpt>
      <trkpt lat="46.55988" lon="5.3835">
        <ele>211.6</ele>
        <time>2021-11-15T14:51:23Z</time>
      </trkpt>
      <trkpt lat="46.5598" lon="5.38402">
        <ele>212.2</ele>
        <time>2021-11-15T14:51:29Z</time>
      </trkpt>
      <trkpt lat="46.55978" lon="5.38418">
        <ele>212.2</ele>
        <time>2021-11-15T14:51:31Z</time>
      </trkpt>
      <trkpt lat="46.55974" lon="5.38466">
        <ele>213.2</ele>
        <time>2021-11-15T14:51:37Z</time>
      </trkpt>
      <trkpt lat="46.55975" lon="5.38482">
        <ele>213.8</ele>
        <time>2021-11-15T14:51:39Z</time>
      </trkpt>
      <trkpt lat="46.55975" lon="5.3849">
        <ele>214.2</ele>
        <time>2021-11-15T14:51:40Z</time>
      </trkpt>
      <trkpt lat="46.55982" lon="5.38545">
        <ele>215</ele>
        <time>2021-11-15T14:51:46Z</time>
      </trkpt>
      <trkpt lat="46.55991" lon="5.38609">
        <ele>214.4</ele>
        <time>2021-11-15T14:51:53Z</time>
      </trkpt>
      <trkpt lat="46.56002" lon="5.38679">
        <ele>214.4</ele>
        <time>2021-11-15T14:52:01Z</time>
      </trkpt>
      <trkpt lat="46.56003" lon="5.38727">
        <ele>214.4</ele>
        <time>2021-11-15T14:52:07Z</time>
      </trkpt>
      <trkpt lat="46.56009" lon="5.3879">
        <ele>213.8</ele>
        <time>2021-11-15T14:52:14Z</time>
      </trkpt>
      <trkpt lat="46.56006" lon="5.38827">
        <ele>213.2</ele>
        <time>2021-11-15T14:52:17Z</time>
      </trkpt>
      <trkpt lat="46.56003" lon="5.38842">
        <ele>212.8</ele>
        <time>2021-11-15T14:52:18Z</time>
      </trkpt>
      <trkpt lat="46.55995" lon="5.38876">
        <ele>212</ele>
        <time>2021-11-15T14:52:21Z</time>
      </trkpt>
      <trkpt lat="46.55984" lon="5.38913">
        <ele>210.6</ele>
        <time>2021-11-15T14:52:24Z</time>
      </trkpt>
      <trkpt lat="46.55965" lon="5.38964">
        <ele>209.4</ele>
        <time>2021-11-15T14:52:29Z</time>
      </trkpt>
      <trkpt lat="46.55953" lon="5.39001">
        <ele>209.4</ele>
        <time>2021-11-15T14:52:33Z</time>
      </trkpt>
      <trkpt lat="46.55944" lon="5.39038">
        <ele>209.4</ele>
        <time>2021-11-15T14:52:37Z</time>
      </trkpt>
      <trkpt lat="46.55943" lon="5.39048">
        <ele>209.4</ele>
        <time>2021-11-15T14:52:38Z</time>
      </trkpt>
      <trkpt lat="46.5594" lon="5.39078">
        <ele>209.8</ele>
        <time>2021-11-15T14:52:42Z</time>
      </trkpt>
      <trkpt lat="46.55938" lon="5.39109">
        <ele>210.6</ele>
        <time>2021-11-15T14:52:46Z</time>
      </trkpt>
      <trkpt lat="46.55938" lon="5.39117">
        <ele>211</ele>
        <time>2021-11-15T14:52:47Z</time>
      </trkpt>
      <trkpt lat="46.55937" lon="5.39141">
        <ele>211.8</ele>
        <time>2021-11-15T14:52:50Z</time>
      </trkpt>
      <trkpt lat="46.55936" lon="5.39185">
        <ele>212.8</ele>
        <time>2021-11-15T14:52:55Z</time>
      </trkpt>
      <trkpt lat="46.55933" lon="5.39252">
        <ele>213.8</ele>
        <time>2021-11-15T14:53:03Z</time>
      </trkpt>
      <trkpt lat="46.55922" lon="5.39331">
        <ele>214.6</ele>
        <time>2021-11-15T14:53:13Z</time>
      </trkpt>
      <trkpt lat="46.55921" lon="5.39339">
        <ele>214.8</ele>
        <time>2021-11-15T14:53:14Z</time>
      </trkpt>
      <trkpt lat="46.55919" lon="5.39363">
        <ele>215.2</ele>
        <time>2021-11-15T14:53:17Z</time>
      </trkpt>
      <trkpt lat="46.55915" lon="5.39394">
        <ele>215.8</ele>
        <time>2021-11-15T14:53:21Z</time>
      </trkpt>
      <trkpt lat="46.55914" lon="5.39409">
        <ele>216</ele>
        <time>2021-11-15T14:53:23Z</time>
      </trkpt>
      <trkpt lat="46.55907" lon="5.39463">
        <ele>216.8</ele>
        <time>2021-11-15T14:53:30Z</time>
      </trkpt>
      <trkpt lat="46.55905" lon="5.39488">
        <ele>217</ele>
        <time>2021-11-15T14:53:33Z</time>
      </trkpt>
      <trkpt lat="46.55899" lon="5.39529">
        <ele>217.6</ele>
        <time>2021-11-15T14:53:38Z</time>
      </trkpt>
      <trkpt lat="46.55893" lon="5.39579">
        <ele>218</ele>
        <time>2021-11-15T14:53:44Z</time>
      </trkpt>
      <trkpt lat="46.55886" lon="5.39628">
        <ele>218.8</ele>
        <time>2021-11-15T14:53:50Z</time>
      </trkpt>
      <trkpt lat="46.55875" lon="5.39674">
        <ele>219.2</ele>
        <time>2021-11-15T14:53:56Z</time>
      </trkpt>
      <trkpt lat="46.55872" lon="5.39683">
        <ele>219.2</ele>
        <time>2021-11-15T14:53:57Z</time>
      </trkpt>
      <trkpt lat="46.55852" lon="5.39759">
        <ele>220</ele>
        <time>2021-11-15T14:54:07Z</time>
      </trkpt>
      <trkpt lat="46.5585" lon="5.39767">
        <ele>220</ele>
        <time>2021-11-15T14:54:08Z</time>
      </trkpt>
      <trkpt lat="46.55848" lon="5.39774">
        <ele>220.2</ele>
        <time>2021-11-15T14:54:09Z</time>
      </trkpt>
      <trkpt lat="46.55835" lon="5.39827">
        <ele>221.2</ele>
        <time>2021-11-15T14:54:16Z</time>
      </trkpt>
      <trkpt lat="46.55831" lon="5.39842">
        <ele>221.4</ele>
        <time>2021-11-15T14:54:18Z</time>
      </trkpt>
      <trkpt lat="46.55816" lon="5.39897">
        <ele>221.2</ele>
        <time>2021-11-15T14:54:24Z</time>
      </trkpt>
      <trkpt lat="46.55813" lon="5.39906">
        <ele>221.2</ele>
        <time>2021-11-15T14:54:25Z</time>
      </trkpt>
      <trkpt lat="46.55805" lon="5.39915">
        <ele>221</ele>
        <time>2021-11-15T14:54:27Z</time>
      </trkpt>
      <trkpt lat="46.55795" lon="5.39912">
        <ele>220.8</ele>
        <time>2021-11-15T14:54:29Z</time>
      </trkpt>
      <trkpt lat="46.55788" lon="5.39907">
        <ele>220.8</ele>
        <time>2021-11-15T14:54:30Z</time>
      </trkpt>
      <trkpt lat="46.55749" lon="5.39876">
        <ele>221</ele>
        <time>2021-11-15T14:54:37Z</time>
      </trkpt>
      <trkpt lat="46.55732" lon="5.39862">
        <ele>221.4</ele>
        <time>2021-11-15T14:54:40Z</time>
      </trkpt>
      <trkpt lat="46.55719" lon="5.39848">
        <ele>222.4</ele>
        <time>2021-11-15T14:54:43Z</time>
      </trkpt>
      <trkpt lat="46.55714" lon="5.39842">
        <ele>222.6</ele>
        <time>2021-11-15T14:54:44Z</time>
      </trkpt>
      <trkpt lat="46.55687" lon="5.39814">
        <ele>224</ele>
        <time>2021-11-15T14:54:50Z</time>
      </trkpt>
      <trkpt lat="46.55665" lon="5.39797">
        <ele>225.2</ele>
        <time>2021-11-15T14:54:54Z</time>
      </trkpt>
      <trkpt lat="46.55653" lon="5.39789">
        <ele>225.6</ele>
        <time>2021-11-15T14:54:56Z</time>
      </trkpt>
      <trkpt lat="46.55613" lon="5.39762">
        <ele>225.6</ele>
        <time>2021-11-15T14:55:02Z</time>
      </trkpt>
      <trkpt lat="46.5556" lon="5.39721">
        <ele>223.8</ele>
        <time>2021-11-15T14:55:09Z</time>
      </trkpt>
      <trkpt lat="46.55528" lon="5.39693">
        <ele>223.6</ele>
        <time>2021-11-15T14:55:14Z</time>
      </trkpt>
      <trkpt lat="46.55475" lon="5.3965">
        <ele>224.2</ele>
        <time>2021-11-15T14:55:22Z</time>
      </trkpt>
      <trkpt lat="46.55428" lon="5.39611">
        <ele>224.8</ele>
        <time>2021-11-15T14:55:30Z</time>
      </trkpt>
      <trkpt lat="46.55423" lon="5.39607">
        <ele>225</ele>
        <time>2021-11-15T14:55:31Z</time>
      </trkpt>
      <trkpt lat="46.55398" lon="5.39584">
        <ele>226</ele>
        <time>2021-11-15T14:55:36Z</time>
      </trkpt>
      <trkpt lat="46.55387" lon="5.39575">
        <ele>226.8</ele>
        <time>2021-11-15T14:55:38Z</time>
      </trkpt>
      <trkpt lat="46.55376" lon="5.39566">
        <ele>227.2</ele>
        <time>2021-11-15T14:55:40Z</time>
      </trkpt>
      <trkpt lat="46.55325" lon="5.39525">
        <ele>228.2</ele>
        <time>2021-11-15T14:55:49Z</time>
      </trkpt>
      <trkpt lat="46.55319" lon="5.3952">
        <ele>228.2</ele>
        <time>2021-11-15T14:55:50Z</time>
      </trkpt>
      <trkpt lat="46.55268" lon="5.39482">
        <ele>228.2</ele>
        <time>2021-11-15T14:55:58Z</time>
      </trkpt>
      <trkpt lat="46.55235" lon="5.39451">
        <ele>228</ele>
        <time>2021-11-15T14:56:03Z</time>
      </trkpt>
      <trkpt lat="46.55229" lon="5.39443">
        <ele>228</ele>
        <time>2021-11-15T14:56:04Z</time>
      </trkpt>
      <trkpt lat="46.55223" lon="5.39435">
        <ele>228</ele>
        <time>2021-11-15T14:56:05Z</time>
      </trkpt>
      <trkpt lat="46.55209" lon="5.39426">
        <ele>228</ele>
        <time>2021-11-15T14:56:07Z</time>
      </trkpt>
      <trkpt lat="46.5517" lon="5.39423">
        <ele>227.8</ele>
        <time>2021-11-15T14:56:12Z</time>
      </trkpt>
      <trkpt lat="46.55135" lon="5.3941">
        <ele>227.8</ele>
        <time>2021-11-15T14:56:17Z</time>
      </trkpt>
      <trkpt lat="46.55079" lon="5.39384">
        <ele>228.4</ele>
        <time>2021-11-15T14:56:25Z</time>
      </trkpt>
      <trkpt lat="46.55064" lon="5.39377">
        <ele>228.4</ele>
        <time>2021-11-15T14:56:27Z</time>
      </trkpt>
      <trkpt lat="46.55013" lon="5.39346">
        <ele>227.2</ele>
        <time>2021-11-15T14:56:33Z</time>
      </trkpt>
      <trkpt lat="46.54971" lon="5.39323">
        <ele>225.4</ele>
        <time>2021-11-15T14:56:37Z</time>
      </trkpt>
      <trkpt lat="46.54961" lon="5.39319">
        <ele>225</ele>
        <time>2021-11-15T14:56:38Z</time>
      </trkpt>
      <trkpt lat="46.54951" lon="5.39315">
        <ele>224</ele>
        <time>2021-11-15T14:56:39Z</time>
      </trkpt>
      <trkpt lat="46.54916" lon="5.39302">
        <ele>223.2</ele>
        <time>2021-11-15T14:56:43Z</time>
      </trkpt>
      <trkpt lat="46.5486" lon="5.39283">
        <ele>224.6</ele>
        <time>2021-11-15T14:56:50Z</time>
      </trkpt>
      <trkpt lat="46.54853" lon="5.3928">
        <ele>225.2</ele>
        <time>2021-11-15T14:56:51Z</time>
      </trkpt>
      <trkpt lat="46.54823" lon="5.39267">
        <ele>226.2</ele>
        <time>2021-11-15T14:56:55Z</time>
      </trkpt>
      <trkpt lat="46.54808" lon="5.39261">
        <ele>227.4</ele>
        <time>2021-11-15T14:56:57Z</time>
      </trkpt>
      <trkpt lat="46.54801" lon="5.39257">
        <ele>228</ele>
        <time>2021-11-15T14:56:58Z</time>
      </trkpt>
      <trkpt lat="46.54786" lon="5.39249">
        <ele>228.6</ele>
        <time>2021-11-15T14:57:00Z</time>
      </trkpt>
      <trkpt lat="46.54749" lon="5.3923">
        <ele>230</ele>
        <time>2021-11-15T14:57:05Z</time>
      </trkpt>
      <trkpt lat="46.54734" lon="5.39222">
        <ele>230.4</ele>
        <time>2021-11-15T14:57:07Z</time>
      </trkpt>
      <trkpt lat="46.54712" lon="5.39211">
        <ele>231</ele>
        <time>2021-11-15T14:57:10Z</time>
      </trkpt>
      <trkpt lat="46.54669" lon="5.3919">
        <ele>232.2</ele>
        <time>2021-11-15T14:57:16Z</time>
      </trkpt>
      <trkpt lat="46.54662" lon="5.39187">
        <ele>232.4</ele>
        <time>2021-11-15T14:57:17Z</time>
      </trkpt>
      <trkpt lat="46.54609" lon="5.39163">
        <ele>232.4</ele>
        <time>2021-11-15T14:57:24Z</time>
      </trkpt>
      <trkpt lat="46.54586" lon="5.39152">
        <ele>232.4</ele>
        <time>2021-11-15T14:57:27Z</time>
      </trkpt>
      <trkpt lat="46.54539" lon="5.39126">
        <ele>232.8</ele>
        <time>2021-11-15T14:57:34Z</time>
      </trkpt>
      <trkpt lat="46.54522" lon="5.39116">
        <ele>233.6</ele>
        <time>2021-11-15T14:57:37Z</time>
      </trkpt>
      <trkpt lat="46.54513" lon="5.39112">
        <ele>234</ele>
        <time>2021-11-15T14:57:39Z</time>
      </trkpt>
      <trkpt lat="46.54504" lon="5.39115">
        <ele>234.6</ele>
        <time>2021-11-15T14:57:41Z</time>
      </trkpt>
      <trkpt lat="46.54501" lon="5.3912">
        <ele>234.8</ele>
        <time>2021-11-15T14:57:42Z</time>
      </trkpt>
      <trkpt lat="46.54499" lon="5.39126">
        <ele>235</ele>
        <time>2021-11-15T14:57:43Z</time>
      </trkpt>
      <trkpt lat="46.54496" lon="5.39139">
        <ele>235.4</ele>
        <time>2021-11-15T14:57:45Z</time>
      </trkpt>
      <trkpt lat="46.54492" lon="5.39144">
        <ele>235.6</ele>
        <time>2021-11-15T14:57:46Z</time>
      </trkpt>
      <trkpt lat="46.54487" lon="5.39146">
        <ele>235.8</ele>
        <time>2021-11-15T14:57:47Z</time>
      </trkpt>
      <trkpt lat="46.54474" lon="5.39144">
        <ele>236</ele>
        <time>2021-11-15T14:57:49Z</time>
      </trkpt>
      <trkpt lat="46.54441" lon="5.3913">
        <ele>235.6</ele>
        <time>2021-11-15T14:57:53Z</time>
      </trkpt>
      <trkpt lat="46.54403" lon="5.3912">
        <ele>234</ele>
        <time>2021-11-15T14:57:57Z</time>
      </trkpt>
      <trkpt lat="46.54393" lon="5.39116">
        <ele>233.8</ele>
        <time>2021-11-15T14:57:58Z</time>
      </trkpt>
      <trkpt lat="46.54373" lon="5.39108">
        <ele>232.8</ele>
        <time>2021-11-15T14:58:00Z</time>
      </trkpt>
      <trkpt lat="46.54353" lon="5.39102">
        <ele>231.6</ele>
        <time>2021-11-15T14:58:02Z</time>
      </trkpt>
      <trkpt lat="46.54325" lon="5.39089">
        <ele>230.6</ele>
        <time>2021-11-15T14:58:05Z</time>
      </trkpt>
      <trkpt lat="46.54272" lon="5.39062">
        <ele>230</ele>
        <time>2021-11-15T14:58:11Z</time>
      </trkpt>
      <trkpt lat="46.54247" lon="5.39049">
        <ele>229.8</ele>
        <time>2021-11-15T14:58:14Z</time>
      </trkpt>
      <trkpt lat="46.54192" lon="5.39021">
        <ele>229.6</ele>
        <time>2021-11-15T14:58:21Z</time>
      </trkpt>
      <trkpt lat="46.54185" lon="5.39018">
        <ele>229.6</ele>
        <time>2021-11-15T14:58:22Z</time>
      </trkpt>
      <trkpt lat="46.54132" lon="5.38997">
        <ele>230</ele>
        <time>2021-11-15T14:58:29Z</time>
      </trkpt>
      <trkpt lat="46.54125" lon="5.38994">
        <ele>230.2</ele>
        <time>2021-11-15T14:58:30Z</time>
      </trkpt>
      <trkpt lat="46.5411" lon="5.38989">
        <ele>230.6</ele>
        <time>2021-11-15T14:58:32Z</time>
      </trkpt>
      <trkpt lat="46.54051" lon="5.38963">
        <ele>230.8</ele>
        <time>2021-11-15T14:58:40Z</time>
      </trkpt>
      <trkpt lat="46.54007" lon="5.3895">
        <ele>231</ele>
        <time>2021-11-15T14:58:46Z</time>
      </trkpt>
      <trkpt lat="46.53953" lon="5.38939">
        <ele>231.4</ele>
        <time>2021-11-15T14:58:53Z</time>
      </trkpt>
      <trkpt lat="46.53916" lon="5.38935">
        <ele>231.8</ele>
        <time>2021-11-15T14:58:58Z</time>
      </trkpt>
      <trkpt lat="46.53865" lon="5.38932">
        <ele>232</ele>
        <time>2021-11-15T14:59:05Z</time>
      </trkpt>
      <trkpt lat="46.53829" lon="5.3892">
        <ele>232.8</ele>
        <time>2021-11-15T14:59:10Z</time>
      </trkpt>
      <trkpt lat="46.53776" lon="5.38903">
        <ele>232.8</ele>
        <time>2021-11-15T14:59:17Z</time>
      </trkpt>
      <trkpt lat="46.53768" lon="5.38901">
        <ele>232.8</ele>
        <time>2021-11-15T14:59:18Z</time>
      </trkpt>
      <trkpt lat="46.53715" lon="5.38881">
        <ele>233</ele>
        <time>2021-11-15T14:59:25Z</time>
      </trkpt>
      <trkpt lat="46.53663" lon="5.38859">
        <ele>233.2</ele>
        <time>2021-11-15T14:59:32Z</time>
      </trkpt>
      <trkpt lat="46.53643" lon="5.38848">
        <ele>233.4</ele>
        <time>2021-11-15T14:59:35Z</time>
      </trkpt>
      <trkpt lat="46.536" lon="5.38824">
        <ele>233.8</ele>
        <time>2021-11-15T14:59:41Z</time>
      </trkpt>
      <trkpt lat="46.53579" lon="5.38812">
        <ele>234</ele>
        <time>2021-11-15T14:59:44Z</time>
      </trkpt>
      <trkpt lat="46.53558" lon="5.38798">
        <ele>234</ele>
        <time>2021-11-15T14:59:47Z</time>
      </trkpt>
      <trkpt lat="46.53553" lon="5.38791">
        <ele>233.8</ele>
        <time>2021-11-15T14:59:48Z</time>
      </trkpt>
      <trkpt lat="46.53547" lon="5.38782">
        <ele>233.8</ele>
        <time>2021-11-15T14:59:49Z</time>
      </trkpt>
      <trkpt lat="46.53532" lon="5.38756">
        <ele>233.6</ele>
        <time>2021-11-15T14:59:52Z</time>
      </trkpt>
      <trkpt lat="46.53525" lon="5.38749">
        <ele>233.2</ele>
        <time>2021-11-15T14:59:53Z</time>
      </trkpt>
      <trkpt lat="46.53518" lon="5.38745">
        <ele>233</ele>
        <time>2021-11-15T14:59:54Z</time>
      </trkpt>
      <trkpt lat="46.5351" lon="5.38744">
        <ele>232.6</ele>
        <time>2021-11-15T14:59:55Z</time>
      </trkpt>
      <trkpt lat="46.53495" lon="5.38746">
        <ele>232.2</ele>
        <time>2021-11-15T14:59:57Z</time>
      </trkpt>
      <trkpt lat="46.53483" lon="5.38739">
        <ele>231.8</ele>
        <time>2021-11-15T14:59:59Z</time>
      </trkpt>
      <trkpt lat="46.53471" lon="5.38725">
        <ele>231.8</ele>
        <time>2021-11-15T15:00:01Z</time>
      </trkpt>
      <trkpt lat="46.53456" lon="5.38715">
        <ele>231.6</ele>
        <time>2021-11-15T15:00:03Z</time>
      </trkpt>
      <trkpt lat="46.5344" lon="5.3871">
        <ele>231.6</ele>
        <time>2021-11-15T15:00:05Z</time>
      </trkpt>
      <trkpt lat="46.53415" lon="5.38704">
        <ele>231.6</ele>
        <time>2021-11-15T15:00:08Z</time>
      </trkpt>
      <trkpt lat="46.53366" lon="5.38701">
        <ele>231.6</ele>
        <time>2021-11-15T15:00:14Z</time>
      </trkpt>
      <trkpt lat="46.53308" lon="5.38691">
        <ele>231</ele>
        <time>2021-11-15T15:00:21Z</time>
      </trkpt>
      <trkpt lat="46.53275" lon="5.3868">
        <ele>230.4</ele>
        <time>2021-11-15T15:00:25Z</time>
      </trkpt>
      <trkpt lat="46.53225" lon="5.38659">
        <ele>229.6</ele>
        <time>2021-11-15T15:00:31Z</time>
      </trkpt>
      <trkpt lat="46.53216" lon="5.38655">
        <ele>229.2</ele>
        <time>2021-11-15T15:00:32Z</time>
      </trkpt>
      <trkpt lat="46.53193" lon="5.38635">
        <ele>228.4</ele>
        <time>2021-11-15T15:00:35Z</time>
      </trkpt>
      <trkpt lat="46.53187" lon="5.38628">
        <ele>228</ele>
        <time>2021-11-15T15:00:36Z</time>
      </trkpt>
      <trkpt lat="46.53171" lon="5.3861">
        <ele>227.4</ele>
        <time>2021-11-15T15:00:38Z</time>
      </trkpt>
      <trkpt lat="46.53156" lon="5.38598">
        <ele>227</ele>
        <time>2021-11-15T15:00:40Z</time>
      </trkpt>
      <trkpt lat="46.53147" lon="5.38593">
        <ele>226.8</ele>
        <time>2021-11-15T15:00:41Z</time>
      </trkpt>
      <trkpt lat="46.53124" lon="5.38581">
        <ele>226</ele>
        <time>2021-11-15T15:00:44Z</time>
      </trkpt>
      <trkpt lat="46.53117" lon="5.38579">
        <ele>225.4</ele>
        <time>2021-11-15T15:00:45Z</time>
      </trkpt>
      <trkpt lat="46.53109" lon="5.38581">
        <ele>225.2</ele>
        <time>2021-11-15T15:00:46Z</time>
      </trkpt>
      <trkpt lat="46.53102" lon="5.38584">
        <ele>224.4</ele>
        <time>2021-11-15T15:00:47Z</time>
      </trkpt>
      <trkpt lat="46.53094" lon="5.38586">
        <ele>224</ele>
        <time>2021-11-15T15:00:48Z</time>
      </trkpt>
      <trkpt lat="46.53043" lon="5.38601">
        <ele>223</ele>
        <time>2021-11-15T15:00:54Z</time>
      </trkpt>
      <trkpt lat="46.53008" lon="5.38608">
        <ele>222</ele>
        <time>2021-11-15T15:00:58Z</time>
      </trkpt>
      <trkpt lat="46.52999" lon="5.38609">
        <ele>221.6</ele>
        <time>2021-11-15T15:00:59Z</time>
      </trkpt>
      <trkpt lat="46.5299" lon="5.38608">
        <ele>221.4</ele>
        <time>2021-11-15T15:01:00Z</time>
      </trkpt>
      <trkpt lat="46.52962" lon="5.38603">
        <ele>220.4</ele>
        <time>2021-11-15T15:01:03Z</time>
      </trkpt>
      <trkpt lat="46.52953" lon="5.38603">
        <ele>220</ele>
        <time>2021-11-15T15:01:04Z</time>
      </trkpt>
      <trkpt lat="46.52944" lon="5.38603">
        <ele>219.8</ele>
        <time>2021-11-15T15:01:05Z</time>
      </trkpt>
      <trkpt lat="46.52937" lon="5.38604">
        <ele>219.4</ele>
        <time>2021-11-15T15:01:06Z</time>
      </trkpt>
      <trkpt lat="46.52926" lon="5.38605">
        <ele>218.8</ele>
        <time>2021-11-15T15:01:08Z</time>
      </trkpt>
      <trkpt lat="46.52918" lon="5.38601">
        <ele>218.4</ele>
        <time>2021-11-15T15:01:10Z</time>
      </trkpt>
      <trkpt lat="46.52915" lon="5.38598">
        <ele>218.2</ele>
        <time>2021-11-15T15:01:11Z</time>
      </trkpt>
      <trkpt lat="46.52909" lon="5.38597">
        <ele>216.6</ele>
        <time>2021-11-15T15:01:13Z</time>
      </trkpt>
      <trkpt lat="46.52906" lon="5.38601">
        <ele>216.4</ele>
        <time>2021-11-15T15:01:14Z</time>
      </trkpt>
      <trkpt lat="46.52902" lon="5.38605">
        <ele>216.2</ele>
        <time>2021-11-15T15:01:15Z</time>
      </trkpt>
      <trkpt lat="46.52891" lon="5.3861">
        <ele>215.8</ele>
        <time>2021-11-15T15:01:17Z</time>
      </trkpt>
      <trkpt lat="46.52884" lon="5.3861">
        <ele>215.6</ele>
        <time>2021-11-15T15:01:18Z</time>
      </trkpt>
      <trkpt lat="46.52861" lon="5.38605">
        <ele>214.8</ele>
        <time>2021-11-15T15:01:21Z</time>
      </trkpt>
      <trkpt lat="46.52852" lon="5.38603">
        <ele>214.2</ele>
        <time>2021-11-15T15:01:22Z</time>
      </trkpt>
      <trkpt lat="46.52812" lon="5.38589">
        <ele>213.2</ele>
        <time>2021-11-15T15:01:27Z</time>
      </trkpt>
      <trkpt lat="46.52805" lon="5.38583">
        <ele>213</ele>
        <time>2021-11-15T15:01:28Z</time>
      </trkpt>
      <trkpt lat="46.52799" lon="5.38575">
        <ele>212.8</ele>
        <time>2021-11-15T15:01:29Z</time>
      </trkpt>
      <trkpt lat="46.52793" lon="5.38567">
        <ele>212.8</ele>
        <time>2021-11-15T15:01:30Z</time>
      </trkpt>
      <trkpt lat="46.52789" lon="5.38558">
        <ele>212.6</ele>
        <time>2021-11-15T15:01:31Z</time>
      </trkpt>
      <trkpt lat="46.52782" lon="5.3854">
        <ele>212.6</ele>
        <time>2021-11-15T15:01:33Z</time>
      </trkpt>
      <trkpt lat="46.52777" lon="5.38533">
        <ele>212.4</ele>
        <time>2021-11-15T15:01:34Z</time>
      </trkpt>
      <trkpt lat="46.52771" lon="5.38529">
        <ele>212.4</ele>
        <time>2021-11-15T15:01:35Z</time>
      </trkpt>
      <trkpt lat="46.52757" lon="5.38528">
        <ele>212.4</ele>
        <time>2021-11-15T15:01:37Z</time>
      </trkpt>
      <trkpt lat="46.52736" lon="5.38533">
        <ele>212.4</ele>
        <time>2021-11-15T15:01:40Z</time>
      </trkpt>
      <trkpt lat="46.52729" lon="5.38533">
        <ele>212.4</ele>
        <time>2021-11-15T15:01:41Z</time>
      </trkpt>
      <trkpt lat="46.52694" lon="5.38517">
        <ele>213.2</ele>
        <time>2021-11-15T15:01:46Z</time>
      </trkpt>
      <trkpt lat="46.52687" lon="5.38514">
        <ele>213.6</ele>
        <time>2021-11-15T15:01:47Z</time>
      </trkpt>
      <trkpt lat="46.52651" lon="5.38509">
        <ele>214.2</ele>
        <time>2021-11-15T15:01:52Z</time>
      </trkpt>
      <trkpt lat="46.52637" lon="5.38506">
        <ele>214.4</ele>
        <time>2021-11-15T15:01:54Z</time>
      </trkpt>
      <trkpt lat="46.52584" lon="5.38497">
        <ele>215</ele>
        <time>2021-11-15T15:02:02Z</time>
      </trkpt>
      <trkpt lat="46.52578" lon="5.38494">
        <ele>215.2</ele>
        <time>2021-11-15T15:02:03Z</time>
      </trkpt>
      <trkpt lat="46.52566" lon="5.38489">
        <ele>215.4</ele>
        <time>2021-11-15T15:02:05Z</time>
      </trkpt>
      <trkpt lat="46.52549" lon="5.38477">
        <ele>215.6</ele>
        <time>2021-11-15T15:02:08Z</time>
      </trkpt>
      <trkpt lat="46.52538" lon="5.38465">
        <ele>215.8</ele>
        <time>2021-11-15T15:02:10Z</time>
      </trkpt>
      <trkpt lat="46.5253" lon="5.3845">
        <ele>216.2</ele>
        <time>2021-11-15T15:02:12Z</time>
      </trkpt>
      <trkpt lat="46.52526" lon="5.38432">
        <ele>216.6</ele>
        <time>2021-11-15T15:02:14Z</time>
      </trkpt>
      <trkpt lat="46.52525" lon="5.38413">
        <ele>216.8</ele>
        <time>2021-11-15T15:02:16Z</time>
      </trkpt>
      <trkpt lat="46.52522" lon="5.3835">
        <ele>217</ele>
        <time>2021-11-15T15:02:22Z</time>
      </trkpt>
      <trkpt lat="46.52513" lon="5.38278">
        <ele>216.4</ele>
        <time>2021-11-15T15:02:28Z</time>
      </trkpt>
      <trkpt lat="46.52514" lon="5.38252">
        <ele>216</ele>
        <time>2021-11-15T15:02:30Z</time>
      </trkpt>
      <trkpt lat="46.52518" lon="5.38227">
        <ele>215.4</ele>
        <time>2021-11-15T15:02:32Z</time>
      </trkpt>
      <trkpt lat="46.52521" lon="5.38214">
        <ele>215</ele>
        <time>2021-11-15T15:02:33Z</time>
      </trkpt>
      <trkpt lat="46.52528" lon="5.38188">
        <ele>213.8</ele>
        <time>2021-11-15T15:02:35Z</time>
      </trkpt>
      <trkpt lat="46.52537" lon="5.3815">
        <ele>212.6</ele>
        <time>2021-11-15T15:02:38Z</time>
      </trkpt>
      <trkpt lat="46.52544" lon="5.38112">
        <ele>211.6</ele>
        <time>2021-11-15T15:02:41Z</time>
      </trkpt>
      <trkpt lat="46.52545" lon="5.38099">
        <ele>211.4</ele>
        <time>2021-11-15T15:02:42Z</time>
      </trkpt>
      <trkpt lat="46.52545" lon="5.38086">
        <ele>211</ele>
        <time>2021-11-15T15:02:43Z</time>
      </trkpt>
      <trkpt lat="46.52544" lon="5.38048">
        <ele>210.6</ele>
        <time>2021-11-15T15:02:46Z</time>
      </trkpt>
      <trkpt lat="46.5254" lon="5.38024">
        <ele>210.2</ele>
        <time>2021-11-15T15:02:48Z</time>
      </trkpt>
      <trkpt lat="46.52525" lon="5.37966">
        <ele>209.4</ele>
        <time>2021-11-15T15:02:53Z</time>
      </trkpt>
      <trkpt lat="46.52522" lon="5.37955">
        <ele>209.4</ele>
        <time>2021-11-15T15:02:54Z</time>
      </trkpt>
      <trkpt lat="46.52519" lon="5.3793">
        <ele>209.2</ele>
        <time>2021-11-15T15:02:56Z</time>
      </trkpt>
      <trkpt lat="46.5252" lon="5.37918">
        <ele>209</ele>
        <time>2021-11-15T15:02:57Z</time>
      </trkpt>
      <trkpt lat="46.52525" lon="5.37833">
        <ele>208.8</ele>
        <time>2021-11-15T15:03:04Z</time>
      </trkpt>
      <trkpt lat="46.52527" lon="5.37798">
        <ele>208.4</ele>
        <time>2021-11-15T15:03:07Z</time>
      </trkpt>
      <trkpt lat="46.5253" lon="5.37764">
        <ele>208.4</ele>
        <time>2021-11-15T15:03:10Z</time>
      </trkpt>
      <trkpt lat="46.52535" lon="5.37683">
        <ele>208.4</ele>
        <time>2021-11-15T15:03:17Z</time>
      </trkpt>
      <trkpt lat="46.52536" lon="5.37672">
        <ele>208.2</ele>
        <time>2021-11-15T15:03:18Z</time>
      </trkpt>
      <trkpt lat="46.52543" lon="5.37593">
        <ele>207.8</ele>
        <time>2021-11-15T15:03:25Z</time>
      </trkpt>
      <trkpt lat="46.52544" lon="5.37582">
        <ele>207.6</ele>
        <time>2021-11-15T15:03:26Z</time>
      </trkpt>
      <trkpt lat="46.52546" lon="5.3756">
        <ele>207.4</ele>
        <time>2021-11-15T15:03:28Z</time>
      </trkpt>
      <trkpt lat="46.52554" lon="5.37473">
        <ele>207.2</ele>
        <time>2021-11-15T15:03:36Z</time>
      </trkpt>
      <trkpt lat="46.5256" lon="5.37384">
        <ele>207.2</ele>
        <time>2021-11-15T15:03:44Z</time>
      </trkpt>
      <trkpt lat="46.52562" lon="5.37295">
        <ele>206.6</ele>
        <time>2021-11-15T15:03:52Z</time>
      </trkpt>
      <trkpt lat="46.52553" lon="5.37242">
        <ele>206.6</ele>
        <time>2021-11-15T15:03:57Z</time>
      </trkpt>
      <trkpt lat="46.52546" lon="5.37223">
        <ele>206.4</ele>
        <time>2021-11-15T15:03:59Z</time>
      </trkpt>
      <trkpt lat="46.52536" lon="5.37206">
        <ele>206.2</ele>
        <time>2021-11-15T15:04:01Z</time>
      </trkpt>
      <trkpt lat="46.52502" lon="5.37161">
        <ele>205.6</ele>
        <time>2021-11-15T15:04:07Z</time>
      </trkpt>
      <trkpt lat="46.52463" lon="5.37107">
        <ele>205.2</ele>
        <time>2021-11-15T15:04:14Z</time>
      </trkpt>
      <trkpt lat="46.52442" lon="5.37051">
        <ele>205</ele>
        <time>2021-11-15T15:04:20Z</time>
      </trkpt>
      <trkpt lat="46.52436" lon="5.37024">
        <ele>204.8</ele>
        <time>2021-11-15T15:04:23Z</time>
      </trkpt>
      <trkpt lat="46.52432" lon="5.37017">
        <ele>204.8</ele>
        <time>2021-11-15T15:04:24Z</time>
      </trkpt>
      <trkpt lat="46.52427" lon="5.37015">
        <ele>204.8</ele>
        <time>2021-11-15T15:04:25Z</time>
      </trkpt>
      <trkpt lat="46.52422" lon="5.37019">
        <ele>204.8</ele>
        <time>2021-11-15T15:04:26Z</time>
      </trkpt>
      <trkpt lat="46.52411" lon="5.3704">
        <ele>204.8</ele>
        <time>2021-11-15T15:04:29Z</time>
      </trkpt>
      <trkpt lat="46.52374" lon="5.37088">
        <ele>204.8</ele>
        <time>2021-11-15T15:04:36Z</time>
      </trkpt>
      <trkpt lat="46.52334" lon="5.3713">
        <ele>206</ele>
        <time>2021-11-15T15:04:44Z</time>
      </trkpt>
      <trkpt lat="46.52321" lon="5.37144">
        <ele>206.2</ele>
        <time>2021-11-15T15:04:47Z</time>
      </trkpt>
      <trkpt lat="46.52313" lon="5.37153">
        <ele>206.6</ele>
        <time>2021-11-15T15:04:49Z</time>
      </trkpt>
      <trkpt lat="46.52309" lon="5.37157">
        <ele>207</ele>
        <time>2021-11-15T15:04:50Z</time>
      </trkpt>
      <trkpt lat="46.52305" lon="5.37161">
        <ele>207.4</ele>
        <time>2021-11-15T15:04:51Z</time>
      </trkpt>
      <trkpt lat="46.52294" lon="5.37176">
        <ele>207.6</ele>
        <time>2021-11-15T15:04:54Z</time>
      </trkpt>
      <trkpt lat="46.52281" lon="5.37188">
        <ele>208.6</ele>
        <time>2021-11-15T15:04:57Z</time>
      </trkpt>
      <trkpt lat="46.52264" lon="5.37206">
        <ele>209.4</ele>
        <time>2021-11-15T15:05:01Z</time>
      </trkpt>
      <trkpt lat="46.52261" lon="5.3721">
        <ele>210</ele>
        <time>2021-11-15T15:05:02Z</time>
      </trkpt>
      <trkpt lat="46.52233" lon="5.37238">
        <ele>211.2</ele>
        <time>2021-11-15T15:05:09Z</time>
      </trkpt>
      <trkpt lat="46.52208" lon="5.37258">
        <ele>212.2</ele>
        <time>2021-11-15T15:05:15Z</time>
      </trkpt>
      <trkpt lat="46.52192" lon="5.3727">
        <ele>213</ele>
        <time>2021-11-15T15:05:19Z</time>
      </trkpt>
      <trkpt lat="46.52188" lon="5.37274">
        <ele>213.4</ele>
        <time>2021-11-15T15:05:20Z</time>
      </trkpt>
      <trkpt lat="46.52184" lon="5.37277">
        <ele>213.6</ele>
        <time>2021-11-15T15:05:21Z</time>
      </trkpt>
      <trkpt lat="46.52171" lon="5.37285">
        <ele>214.4</ele>
        <time>2021-11-15T15:05:24Z</time>
      </trkpt>
      <trkpt lat="46.52167" lon="5.37288">
        <ele>214.6</ele>
        <time>2021-11-15T15:05:25Z</time>
      </trkpt>
      <trkpt lat="46.52144" lon="5.37305">
        <ele>215.8</ele>
        <time>2021-11-15T15:05:31Z</time>
      </trkpt>
      <trkpt lat="46.52127" lon="5.37316">
        <ele>216.8</ele>
        <time>2021-11-15T15:05:35Z</time>
      </trkpt>
      <trkpt lat="46.52124" lon="5.37319">
        <ele>217.2</ele>
        <time>2021-11-15T15:05:36Z</time>
      </trkpt>
      <trkpt lat="46.52112" lon="5.37327">
        <ele>217.8</ele>
        <time>2021-11-15T15:05:39Z</time>
      </trkpt>
      <trkpt lat="46.52105" lon="5.37332">
        <ele>218.4</ele>
        <time>2021-11-15T15:05:41Z</time>
      </trkpt>
      <trkpt lat="46.52098" lon="5.37338">
        <ele>218.8</ele>
        <time>2021-11-15T15:05:43Z</time>
      </trkpt>
      <trkpt lat="46.52088" lon="5.37349">
        <ele>219.6</ele>
        <time>2021-11-15T15:05:46Z</time>
      </trkpt>
      <trkpt lat="46.52086" lon="5.37354">
        <ele>220</ele>
        <time>2021-11-15T15:05:47Z</time>
      </trkpt>
      <trkpt lat="46.52084" lon="5.37359">
        <ele>220.4</ele>
        <time>2021-11-15T15:05:48Z</time>
      </trkpt>
      <trkpt lat="46.52082" lon="5.37366">
        <ele>220.6</ele>
        <time>2021-11-15T15:05:49Z</time>
      </trkpt>
      <trkpt lat="46.5208" lon="5.37379">
        <ele>221</ele>
        <time>2021-11-15T15:05:51Z</time>
      </trkpt>
      <trkpt lat="46.52069" lon="5.37427">
        <ele>222.4</ele>
        <time>2021-11-15T15:05:57Z</time>
      </trkpt>
      <trkpt lat="46.52058" lon="5.37475">
        <ele>222.8</ele>
        <time>2021-11-15T15:06:04Z</time>
      </trkpt>
      <trkpt lat="46.52043" lon="5.37545">
        <ele>222.4</ele>
        <time>2021-11-15T15:06:12Z</time>
      </trkpt>
      <trkpt lat="46.52026" lon="5.37612">
        <ele>222.8</ele>
        <time>2021-11-15T15:06:20Z</time>
      </trkpt>
      <trkpt lat="46.52022" lon="5.3762">
        <ele>222.8</ele>
        <time>2021-11-15T15:06:21Z</time>
      </trkpt>
      <trkpt lat="46.52016" lon="5.37625">
        <ele>222.8</ele>
        <time>2021-11-15T15:06:22Z</time>
      </trkpt>
      <trkpt lat="46.52005" lon="5.37627">
        <ele>222.8</ele>
        <time>2021-11-15T15:06:24Z</time>
      </trkpt>
      <trkpt lat="46.51946" lon="5.37638">
        <ele>223</ele>
        <time>2021-11-15T15:06:32Z</time>
      </trkpt>
      <trkpt lat="46.51941" lon="5.37639">
        <ele>223</ele>
        <time>2021-11-15T15:06:33Z</time>
      </trkpt>
      <trkpt lat="46.51881" lon="5.37646">
        <ele>223.4</ele>
        <time>2021-11-15T15:06:41Z</time>
      </trkpt>
      <trkpt lat="46.51846" lon="5.37646">
        <ele>223.6</ele>
        <time>2021-11-15T15:06:46Z</time>
      </trkpt>
      <trkpt lat="46.51826" lon="5.37648">
        <ele>223.6</ele>
        <time>2021-11-15T15:06:49Z</time>
      </trkpt>
      <trkpt lat="46.51794" lon="5.37649">
        <ele>223.6</ele>
        <time>2021-11-15T15:06:53Z</time>
      </trkpt>
      <trkpt lat="46.51775" lon="5.37646">
        <ele>223.2</ele>
        <time>2021-11-15T15:06:55Z</time>
      </trkpt>
      <trkpt lat="46.51742" lon="5.37637">
        <ele>222.6</ele>
        <time>2021-11-15T15:06:58Z</time>
      </trkpt>
      <trkpt lat="46.51706" lon="5.37629">
        <ele>222</ele>
        <time>2021-11-15T15:07:02Z</time>
      </trkpt>
      <trkpt lat="46.51698" lon="5.3763">
        <ele>221.8</ele>
        <time>2021-11-15T15:07:03Z</time>
      </trkpt>
      <trkpt lat="46.5168" lon="5.37639">
        <ele>221.2</ele>
        <time>2021-11-15T15:07:05Z</time>
      </trkpt>
      <trkpt lat="46.51665" lon="5.37651">
        <ele>220.8</ele>
        <time>2021-11-15T15:07:07Z</time>
      </trkpt>
      <trkpt lat="46.51657" lon="5.37656">
        <ele>220.6</ele>
        <time>2021-11-15T15:07:08Z</time>
      </trkpt>
      <trkpt lat="46.51634" lon="5.37668">
        <ele>220.2</ele>
        <time>2021-11-15T15:07:11Z</time>
      </trkpt>
      <trkpt lat="46.51626" lon="5.37671">
        <ele>220.2</ele>
        <time>2021-11-15T15:07:12Z</time>
      </trkpt>
      <trkpt lat="46.51589" lon="5.37681">
        <ele>220</ele>
        <time>2021-11-15T15:07:17Z</time>
      </trkpt>
      <trkpt lat="46.51549" lon="5.37686">
        <ele>220.4</ele>
        <time>2021-11-15T15:07:23Z</time>
      </trkpt>
      <trkpt lat="46.51522" lon="5.37692">
        <ele>221.4</ele>
        <time>2021-11-15T15:07:28Z</time>
      </trkpt>
      <trkpt lat="46.51513" lon="5.37695">
        <ele>221.6</ele>
        <time>2021-11-15T15:07:30Z</time>
      </trkpt>
      <trkpt lat="46.51497" lon="5.37698">
        <ele>221.8</ele>
        <time>2021-11-15T15:07:33Z</time>
      </trkpt>
      <trkpt lat="46.51481" lon="5.37703">
        <ele>222.6</ele>
        <time>2021-11-15T15:07:37Z</time>
      </trkpt>
      <trkpt lat="46.51456" lon="5.37708">
        <ele>222.8</ele>
        <time>2021-11-15T15:07:40Z</time>
      </trkpt>
      <trkpt lat="46.51417" lon="5.37719">
        <ele>223.4</ele>
        <time>2021-11-15T15:07:47Z</time>
      </trkpt>
      <trkpt lat="46.51404" lon="5.37724">
        <ele>223.6</ele>
        <time>2021-11-15T15:07:48Z</time>
      </trkpt>
      <trkpt lat="46.51385" lon="5.37731">
        <ele>224</ele>
        <time>2021-11-15T15:07:51Z</time>
      </trkpt>
      <trkpt lat="46.51366" lon="5.3774">
        <ele>224.4</ele>
        <time>2021-11-15T15:07:54Z</time>
      </trkpt>
      <trkpt lat="46.5136" lon="5.37743">
        <ele>224.6</ele>
        <time>2021-11-15T15:07:55Z</time>
      </trkpt>
      <trkpt lat="46.51321" lon="5.37763">
        <ele>225.6</ele>
        <time>2021-11-15T15:08:02Z</time>
      </trkpt>
      <trkpt lat="46.51316" lon="5.37765">
        <ele>225.6</ele>
        <time>2021-11-15T15:08:03Z</time>
      </trkpt>
      <trkpt lat="46.51284" lon="5.37781">
        <ele>226.8</ele>
        <time>2021-11-15T15:08:09Z</time>
      </trkpt>
      <trkpt lat="46.51279" lon="5.37784">
        <ele>227</ele>
        <time>2021-11-15T15:08:10Z</time>
      </trkpt>
      <trkpt lat="46.5124" lon="5.378">
        <ele>227.8</ele>
        <time>2021-11-15T15:08:18Z</time>
      </trkpt>
      <trkpt lat="46.51194" lon="5.37808">
        <ele>228.6</ele>
        <time>2021-11-15T15:08:25Z</time>
      </trkpt>
      <trkpt lat="46.51178" lon="5.37814">
        <ele>228.8</ele>
        <time>2021-11-15T15:08:28Z</time>
      </trkpt>
      <trkpt lat="46.51162" lon="5.37821">
        <ele>229.2</ele>
        <time>2021-11-15T15:08:31Z</time>
      </trkpt>
      <trkpt lat="46.51157" lon="5.37824">
        <ele>229.6</ele>
        <time>2021-11-15T15:08:32Z</time>
      </trkpt>
      <trkpt lat="46.51143" lon="5.37836">
        <ele>230</ele>
        <time>2021-11-15T15:08:35Z</time>
      </trkpt>
      <trkpt lat="46.51132" lon="5.37844">
        <ele>230.4</ele>
        <time>2021-11-15T15:08:37Z</time>
      </trkpt>
      <trkpt lat="46.51117" lon="5.37854">
        <ele>231</ele>
        <time>2021-11-15T15:08:40Z</time>
      </trkpt>
      <trkpt lat="46.51091" lon="5.37866">
        <ele>231.6</ele>
        <time>2021-11-15T15:08:45Z</time>
      </trkpt>
      <trkpt lat="46.5108" lon="5.37869">
        <ele>232</ele>
        <time>2021-11-15T15:08:47Z</time>
      </trkpt>
      <trkpt lat="46.51051" lon="5.37871">
        <ele>233</ele>
        <time>2021-11-15T15:08:52Z</time>
      </trkpt>
      <trkpt lat="46.51024" lon="5.37875">
        <ele>234</ele>
        <time>2021-11-15T15:08:57Z</time>
      </trkpt>
      <trkpt lat="46.50996" lon="5.3788">
        <ele>234.8</ele>
        <time>2021-11-15T15:09:02Z</time>
      </trkpt>
      <trkpt lat="46.5099" lon="5.37881">
        <ele>235.2</ele>
        <time>2021-11-15T15:09:03Z</time>
      </trkpt>
      <trkpt lat="46.5094" lon="5.37894">
        <ele>236.2</ele>
        <time>2021-11-15T15:09:11Z</time>
      </trkpt>
      <trkpt lat="46.50919" lon="5.37901">
        <ele>236.4</ele>
        <time>2021-11-15T15:09:14Z</time>
      </trkpt>
      <trkpt lat="46.50904" lon="5.37903">
        <ele>236.4</ele>
        <time>2021-11-15T15:09:16Z</time>
      </trkpt>
      <trkpt lat="46.50853" lon="5.37901">
        <ele>236.6</ele>
        <time>2021-11-15T15:09:23Z</time>
      </trkpt>
      <trkpt lat="46.50825" lon="5.37896">
        <ele>236.4</ele>
        <time>2021-11-15T15:09:27Z</time>
      </trkpt>
      <trkpt lat="46.50817" lon="5.37892">
        <ele>236.4</ele>
        <time>2021-11-15T15:09:28Z</time>
      </trkpt>
      <trkpt lat="46.5081" lon="5.37887">
        <ele>236.4</ele>
        <time>2021-11-15T15:09:29Z</time>
      </trkpt>
      <trkpt lat="46.50798" lon="5.37875">
        <ele>236.2</ele>
        <time>2021-11-15T15:09:32Z</time>
      </trkpt>
      <trkpt lat="46.50762" lon="5.37818">
        <ele>235.8</ele>
        <time>2021-11-15T15:09:38Z</time>
      </trkpt>
      <trkpt lat="46.50749" lon="5.37777">
        <ele>235.6</ele>
        <time>2021-11-15T15:09:42Z</time>
      </trkpt>
      <trkpt lat="46.50747" lon="5.37766">
        <ele>235.6</ele>
        <time>2021-11-15T15:09:43Z</time>
      </trkpt>
      <trkpt lat="46.50742" lon="5.3772">
        <ele>235.2</ele>
        <time>2021-11-15T15:09:47Z</time>
      </trkpt>
      <trkpt lat="46.50741" lon="5.37709">
        <ele>235.2</ele>
        <time>2021-11-15T15:09:48Z</time>
      </trkpt>
      <trkpt lat="46.50736" lon="5.37635">
        <ele>234.2</ele>
        <time>2021-11-15T15:09:54Z</time>
      </trkpt>
      <trkpt lat="46.50732" lon="5.37611">
        <ele>233.2</ele>
        <time>2021-11-15T15:09:56Z</time>
      </trkpt>
      <trkpt lat="46.50727" lon="5.37601">
        <ele>233</ele>
        <time>2021-11-15T15:09:57Z</time>
      </trkpt>
      <trkpt lat="46.50722" lon="5.37592">
        <ele>232.6</ele>
        <time>2021-11-15T15:09:58Z</time>
      </trkpt>
      <trkpt lat="46.50711" lon="5.37578">
        <ele>231.6</ele>
        <time>2021-11-15T15:10:00Z</time>
      </trkpt>
      <trkpt lat="46.507" lon="5.37563">
        <ele>230.4</ele>
        <time>2021-11-15T15:10:03Z</time>
      </trkpt>
      <trkpt lat="46.50698" lon="5.37561">
        <ele>229.8</ele>
        <time>2021-11-15T15:10:04Z</time>
      </trkpt>
      <trkpt lat="46.50697" lon="5.3756">
        <ele>229.4</ele>
        <time>2021-11-15T15:10:05Z</time>
      </trkpt>
      <trkpt lat="46.50697" lon="5.3756">
        <ele>229</ele>
        <time>2021-11-15T15:10:06Z</time>
      </trkpt>
      <trkpt lat="46.50693" lon="5.37554">
        <ele>228</ele>
        <time>2021-11-15T15:10:16Z</time>
      </trkpt>
      <trkpt lat="46.50687" lon="5.3756">
        <ele>228</ele>
        <time>2021-11-15T15:10:18Z</time>
      </trkpt>
      <trkpt lat="46.50669" lon="5.37587">
        <ele>228.2</ele>
        <time>2021-11-15T15:10:23Z</time>
      </trkpt>
      <trkpt lat="46.50643" lon="5.37628">
        <ele>228.8</ele>
        <time>2021-11-15T15:10:29Z</time>
      </trkpt>
      <trkpt lat="46.5063" lon="5.3765">
        <ele>229.2</ele>
        <time>2021-11-15T15:10:32Z</time>
      </trkpt>
      <trkpt lat="46.50603" lon="5.3769">
        <ele>229.8</ele>
        <time>2021-11-15T15:10:38Z</time>
      </trkpt>
      <trkpt lat="46.50591" lon="5.37709">
        <ele>230.2</ele>
        <time>2021-11-15T15:10:41Z</time>
      </trkpt>
      <trkpt lat="46.50572" lon="5.37738">
        <ele>230.8</ele>
        <time>2021-11-15T15:10:46Z</time>
      </trkpt>
      <trkpt lat="46.50562" lon="5.37755">
        <ele>231.4</ele>
        <time>2021-11-15T15:10:49Z</time>
      </trkpt>
      <trkpt lat="46.50547" lon="5.37777">
        <ele>232.4</ele>
        <time>2021-11-15T15:10:53Z</time>
      </trkpt>
      <trkpt lat="46.50541" lon="5.37788">
        <ele>233</ele>
        <time>2021-11-15T15:10:55Z</time>
      </trkpt>
      <trkpt lat="46.50534" lon="5.37798">
        <ele>233.4</ele>
        <time>2021-11-15T15:10:57Z</time>
      </trkpt>
      <trkpt lat="46.50514" lon="5.37829">
        <ele>234.6</ele>
        <time>2021-11-15T15:11:03Z</time>
      </trkpt>
      <trkpt lat="46.50507" lon="5.37839">
        <ele>235</ele>
        <time>2021-11-15T15:11:05Z</time>
      </trkpt>
      <trkpt lat="46.50497" lon="5.37854">
        <ele>235.8</ele>
        <time>2021-11-15T15:11:08Z</time>
      </trkpt>
      <trkpt lat="46.50478" lon="5.37883">
        <ele>236.8</ele>
        <time>2021-11-15T15:11:14Z</time>
      </trkpt>
      <trkpt lat="46.50461" lon="5.37909">
        <ele>238</ele>
        <time>2021-11-15T15:11:19Z</time>
      </trkpt>
      <trkpt lat="46.50446" lon="5.37933">
        <ele>239.2</ele>
        <time>2021-11-15T15:11:24Z</time>
      </trkpt>
      <trkpt lat="46.5043" lon="5.37957">
        <ele>240</ele>
        <time>2021-11-15T15:11:29Z</time>
      </trkpt>
      <trkpt lat="46.50427" lon="5.37962">
        <ele>240.2</ele>
        <time>2021-11-15T15:11:31Z</time>
      </trkpt>
      <trkpt lat="46.50409" lon="5.37991">
        <ele>241.6</ele>
        <time>2021-11-15T15:11:36Z</time>
      </trkpt>
      <trkpt lat="46.50396" lon="5.38011">
        <ele>242.6</ele>
        <time>2021-11-15T15:11:40Z</time>
      </trkpt>
      <trkpt lat="46.50392" lon="5.38016">
        <ele>242.8</ele>
        <time>2021-11-15T15:11:41Z</time>
      </trkpt>
      <trkpt lat="46.50385" lon="5.38025">
        <ele>243.4</ele>
        <time>2021-11-15T15:11:43Z</time>
      </trkpt>
      <trkpt lat="46.50376" lon="5.38024">
        <ele>243.8</ele>
        <time>2021-11-15T15:11:45Z</time>
      </trkpt>
      <trkpt lat="46.50368" lon="5.38014">
        <ele>244.2</ele>
        <time>2021-11-15T15:11:47Z</time>
      </trkpt>
      <trkpt lat="46.50367" lon="5.38008">
        <ele>244.4</ele>
        <time>2021-11-15T15:11:48Z</time>
      </trkpt>
      <trkpt lat="46.50366" lon="5.38001">
        <ele>244.6</ele>
        <time>2021-11-15T15:11:49Z</time>
      </trkpt>
      <trkpt lat="46.50367" lon="5.37971">
        <ele>245.4</ele>
        <time>2021-11-15T15:11:53Z</time>
      </trkpt>
      <trkpt lat="46.50367" lon="5.37963">
        <ele>245.8</ele>
        <time>2021-11-15T15:11:54Z</time>
      </trkpt>
      <trkpt lat="46.50365" lon="5.37932">
        <ele>246.4</ele>
        <time>2021-11-15T15:11:58Z</time>
      </trkpt>
      <trkpt lat="46.50363" lon="5.37923">
        <ele>246.6</ele>
        <time>2021-11-15T15:12:00Z</time>
      </trkpt>
      <trkpt lat="46.50357" lon="5.37905">
        <ele>246.8</ele>
        <time>2021-11-15T15:12:01Z</time>
      </trkpt>
      <trkpt lat="46.50354" lon="5.37897">
        <ele>246.8</ele>
        <time>2021-11-15T15:12:03Z</time>
      </trkpt>
      <trkpt lat="46.50344" lon="5.37883">
        <ele>246.8</ele>
        <time>2021-11-15T15:12:04Z</time>
      </trkpt>
      <trkpt lat="46.50332" lon="5.37871">
        <ele>246.6</ele>
        <time>2021-11-15T15:12:06Z</time>
      </trkpt>
      <trkpt lat="46.50285" lon="5.37827">
        <ele>246.4</ele>
        <time>2021-11-15T15:12:14Z</time>
      </trkpt>
      <trkpt lat="46.5028" lon="5.37822">
        <ele>246.4</ele>
        <time>2021-11-15T15:12:15Z</time>
      </trkpt>
      <trkpt lat="46.50272" lon="5.37816">
        <ele>246.4</ele>
        <time>2021-11-15T15:12:17Z</time>
      </trkpt>
      <trkpt lat="46.5027" lon="5.37814">
        <ele>246.2</ele>
        <time>2021-11-15T15:12:18Z</time>
      </trkpt>
      <trkpt lat="46.50261" lon="5.37808">
        <ele>246.2</ele>
        <time>2021-11-15T15:12:22Z</time>
      </trkpt>
      <trkpt lat="46.5025" lon="5.37796">
        <ele>246</ele>
        <time>2021-11-15T15:12:25Z</time>
      </trkpt>
      <trkpt lat="46.50245" lon="5.3779">
        <ele>246</ele>
        <time>2021-11-15T15:12:26Z</time>
      </trkpt>
      <trkpt lat="46.50239" lon="5.37784">
        <ele>245.8</ele>
        <time>2021-11-15T15:12:27Z</time>
      </trkpt>
      <trkpt lat="46.50221" lon="5.37768">
        <ele>245.8</ele>
        <time>2021-11-15T15:12:30Z</time>
      </trkpt>
      <trkpt lat="46.50186" lon="5.3775">
        <ele>245.6</ele>
        <time>2021-11-15T15:12:35Z</time>
      </trkpt>
      <trkpt lat="46.50164" lon="5.37745">
        <ele>245.4</ele>
        <time>2021-11-15T15:12:38Z</time>
      </trkpt>
      <trkpt lat="46.50146" lon="5.3774">
        <ele>245.4</ele>
        <time>2021-11-15T15:12:41Z</time>
      </trkpt>
      <trkpt lat="46.50099" lon="5.37729">
        <ele>246.4</ele>
        <time>2021-11-15T15:12:49Z</time>
      </trkpt>
      <trkpt lat="46.50093" lon="5.37727">
        <ele>246.6</ele>
        <time>2021-11-15T15:12:50Z</time>
      </trkpt>
      <trkpt lat="46.50045" lon="5.37707">
        <ele>247.2</ele>
        <time>2021-11-15T15:12:58Z</time>
      </trkpt>
      <trkpt lat="46.50004" lon="5.37688">
        <ele>247.6</ele>
        <time>2021-11-15T15:13:04Z</time>
      </trkpt>
      <trkpt lat="46.49953" lon="5.37664">
        <ele>247.4</ele>
        <time>2021-11-15T15:13:11Z</time>
      </trkpt>
      <trkpt lat="46.49899" lon="5.37646">
        <ele>246.6</ele>
        <time>2021-11-15T15:13:18Z</time>
      </trkpt>
      <trkpt lat="46.49884" lon="5.37641">
        <ele>246.4</ele>
        <time>2021-11-15T15:13:20Z</time>
      </trkpt>
      <trkpt lat="46.49829" lon="5.37618">
        <ele>245.6</ele>
        <time>2021-11-15T15:13:27Z</time>
      </trkpt>
      <trkpt lat="46.49821" lon="5.37613">
        <ele>245.6</ele>
        <time>2021-11-15T15:13:28Z</time>
      </trkpt>
      <trkpt lat="46.49776" lon="5.37587">
        <ele>245.2</ele>
        <time>2021-11-15T15:13:34Z</time>
      </trkpt>
      <trkpt lat="46.49724" lon="5.37553">
        <ele>245.2</ele>
        <time>2021-11-15T15:13:41Z</time>
      </trkpt>
      <trkpt lat="46.49672" lon="5.37528">
        <ele>244.8</ele>
        <time>2021-11-15T15:13:48Z</time>
      </trkpt>
      <trkpt lat="46.49663" lon="5.37524">
        <ele>244.6</ele>
        <time>2021-11-15T15:13:49Z</time>
      </trkpt>
      <trkpt lat="46.49658" lon="5.37522">
        <ele>244.4</ele>
        <time>2021-11-15T15:13:50Z</time>
      </trkpt>
      <trkpt lat="46.49639" lon="5.37512">
        <ele>244.2</ele>
        <time>2021-11-15T15:13:53Z</time>
      </trkpt>
      <trkpt lat="46.49633" lon="5.37508">
        <ele>244.2</ele>
        <time>2021-11-15T15:13:54Z</time>
      </trkpt>
      <trkpt lat="46.49627" lon="5.37505">
        <ele>244</ele>
        <time>2021-11-15T15:13:55Z</time>
      </trkpt>
      <trkpt lat="46.49616" lon="5.37504">
        <ele>244</ele>
        <time>2021-11-15T15:13:57Z</time>
      </trkpt>
      <trkpt lat="46.49595" lon="5.37521">
        <ele>244</ele>
        <time>2021-11-15T15:14:01Z</time>
      </trkpt>
      <trkpt lat="46.49574" lon="5.37537">
        <ele>244.6</ele>
        <time>2021-11-15T15:14:05Z</time>
      </trkpt>
      <trkpt lat="46.49559" lon="5.37551">
        <ele>245.2</ele>
        <time>2021-11-15T15:14:08Z</time>
      </trkpt>
      <trkpt lat="46.49548" lon="5.37559">
        <ele>245.8</ele>
        <time>2021-11-15T15:14:10Z</time>
      </trkpt>
      <trkpt lat="46.49527" lon="5.37577">
        <ele>246.8</ele>
        <time>2021-11-15T15:14:14Z</time>
      </trkpt>
      <trkpt lat="46.49516" lon="5.37587">
        <ele>247.6</ele>
        <time>2021-11-15T15:14:16Z</time>
      </trkpt>
      <trkpt lat="46.49511" lon="5.37591">
        <ele>248.2</ele>
        <time>2021-11-15T15:14:17Z</time>
      </trkpt>
      <trkpt lat="46.49476" lon="5.37621">
        <ele>249.4</ele>
        <time>2021-11-15T15:14:24Z</time>
      </trkpt>
      <trkpt lat="46.49467" lon="5.37629">
        <ele>249.6</ele>
        <time>2021-11-15T15:14:26Z</time>
      </trkpt>
      <trkpt lat="46.49454" lon="5.37642">
        <ele>250.4</ele>
        <time>2021-11-15T15:14:29Z</time>
      </trkpt>
      <trkpt lat="46.49431" lon="5.37663">
        <ele>251.4</ele>
        <time>2021-11-15T15:14:34Z</time>
      </trkpt>
      <trkpt lat="46.49426" lon="5.37667">
        <ele>251.8</ele>
        <time>2021-11-15T15:14:35Z</time>
      </trkpt>
      <trkpt lat="46.49415" lon="5.37679">
        <ele>252.6</ele>
        <time>2021-11-15T15:14:38Z</time>
      </trkpt>
      <trkpt lat="46.49412" lon="5.37684">
        <ele>252.8</ele>
        <time>2021-11-15T15:14:39Z</time>
      </trkpt>
      <trkpt lat="46.49408" lon="5.37689">
        <ele>253.2</ele>
        <time>2021-11-15T15:14:40Z</time>
      </trkpt>
      <trkpt lat="46.49399" lon="5.37705">
        <ele>253.8</ele>
        <time>2021-11-15T15:14:43Z</time>
      </trkpt>
      <trkpt lat="46.49393" lon="5.37722">
        <ele>255</ele>
        <time>2021-11-15T15:14:46Z</time>
      </trkpt>
      <trkpt lat="46.49385" lon="5.37745">
        <ele>256.2</ele>
        <time>2021-11-15T15:14:50Z</time>
      </trkpt>
      <trkpt lat="46.49378" lon="5.37769">
        <ele>257.2</ele>
        <time>2021-11-15T15:14:54Z</time>
      </trkpt>
      <trkpt lat="46.49376" lon="5.37776">
        <ele>257.2</ele>
        <time>2021-11-15T15:14:55Z</time>
      </trkpt>
      <trkpt lat="46.49366" lon="5.37807">
        <ele>258.4</ele>
        <time>2021-11-15T15:15:00Z</time>
      </trkpt>
      <trkpt lat="46.49352" lon="5.37851">
        <ele>258.8</ele>
        <time>2021-11-15T15:15:06Z</time>
      </trkpt>
      <trkpt lat="46.49338" lon="5.37902">
        <ele>258.6</ele>
        <time>2021-11-15T15:15:12Z</time>
      </trkpt>
      <trkpt lat="46.49327" lon="5.37967">
        <ele>258</ele>
        <time>2021-11-15T15:15:18Z</time>
      </trkpt>
      <trkpt lat="46.49323" lon="5.37988">
        <ele>257.4</ele>
        <time>2021-11-15T15:15:20Z</time>
      </trkpt>
      <trkpt lat="46.49312" lon="5.38038">
        <ele>257</ele>
        <time>2021-11-15T15:15:25Z</time>
      </trkpt>
      <trkpt lat="46.493" lon="5.38109">
        <ele>257.6</ele>
        <time>2021-11-15T15:15:33Z</time>
      </trkpt>
      <trkpt lat="46.49289" lon="5.38167">
        <ele>258.4</ele>
        <time>2021-11-15T15:15:40Z</time>
      </trkpt>
      <trkpt lat="46.49288" lon="5.38175">
        <ele>258.6</ele>
        <time>2021-11-15T15:15:41Z</time>
      </trkpt>
      <trkpt lat="46.49276" lon="5.38239">
        <ele>259.6</ele>
        <time>2021-11-15T15:15:49Z</time>
      </trkpt>
      <trkpt lat="46.49274" lon="5.38247">
        <ele>259.8</ele>
        <time>2021-11-15T15:15:50Z</time>
      </trkpt>
      <trkpt lat="46.49264" lon="5.383">
        <ele>261</ele>
        <time>2021-11-15T15:15:57Z</time>
      </trkpt>
      <trkpt lat="46.49263" lon="5.38307">
        <ele>261.2</ele>
        <time>2021-11-15T15:15:58Z</time>
      </trkpt>
      <trkpt lat="46.49261" lon="5.38314">
        <ele>261.4</ele>
        <time>2021-11-15T15:15:59Z</time>
      </trkpt>
      <trkpt lat="46.49255" lon="5.38328">
        <ele>261.8</ele>
        <time>2021-11-15T15:16:01Z</time>
      </trkpt>
      <trkpt lat="46.49252" lon="5.38333">
        <ele>262.2</ele>
        <time>2021-11-15T15:16:02Z</time>
      </trkpt>
      <trkpt lat="46.49247" lon="5.38337">
        <ele>262.4</ele>
        <time>2021-11-15T15:16:03Z</time>
      </trkpt>
      <trkpt lat="46.49236" lon="5.38337">
        <ele>262.6</ele>
        <time>2021-11-15T15:16:05Z</time>
      </trkpt>
      <trkpt lat="46.4923" lon="5.38334">
        <ele>262.8</ele>
        <time>2021-11-15T15:16:06Z</time>
      </trkpt>
      <trkpt lat="46.49199" lon="5.38316">
        <ele>263.2</ele>
        <time>2021-11-15T15:16:11Z</time>
      </trkpt>
      <trkpt lat="46.49155" lon="5.38301">
        <ele>262.4</ele>
        <time>2021-11-15T15:16:18Z</time>
      </trkpt>
      <trkpt lat="46.49109" lon="5.38287">
        <ele>261.2</ele>
        <time>2021-11-15T15:16:23Z</time>
      </trkpt>
      <trkpt lat="46.49095" lon="5.38277">
        <ele>261</ele>
        <time>2021-11-15T15:16:25Z</time>
      </trkpt>
      <trkpt lat="46.49089" lon="5.38269">
        <ele>261</ele>
        <time>2021-11-15T15:16:26Z</time>
      </trkpt>
      <trkpt lat="46.49085" lon="5.38258">
        <ele>260.8</ele>
        <time>2021-11-15T15:16:27Z</time>
      </trkpt>
      <trkpt lat="46.49078" lon="5.38235">
        <ele>260.2</ele>
        <time>2021-11-15T15:16:29Z</time>
      </trkpt>
      <trkpt lat="46.49071" lon="5.38212">
        <ele>259.8</ele>
        <time>2021-11-15T15:16:31Z</time>
      </trkpt>
      <trkpt lat="46.49059" lon="5.38175">
        <ele>259.2</ele>
        <time>2021-11-15T15:16:34Z</time>
      </trkpt>
      <trkpt lat="46.49056" lon="5.38163">
        <ele>259</ele>
        <time>2021-11-15T15:16:35Z</time>
      </trkpt>
      <trkpt lat="46.49052" lon="5.3815">
        <ele>258.6</ele>
        <time>2021-11-15T15:16:36Z</time>
      </trkpt>
      <trkpt lat="46.49037" lon="5.38099">
        <ele>257.2</ele>
        <time>2021-11-15T15:16:40Z</time>
      </trkpt>
      <trkpt lat="46.49029" lon="5.38072">
        <ele>256.4</ele>
        <time>2021-11-15T15:16:42Z</time>
      </trkpt>
      <trkpt lat="46.49025" lon="5.38059">
        <ele>256</ele>
        <time>2021-11-15T15:16:43Z</time>
      </trkpt>
      <trkpt lat="46.49013" lon="5.38019">
        <ele>255</ele>
        <time>2021-11-15T15:16:46Z</time>
      </trkpt>
      <trkpt lat="46.49" lon="5.37979">
        <ele>254</ele>
        <time>2021-11-15T15:16:49Z</time>
      </trkpt>
      <trkpt lat="46.48992" lon="5.37952">
        <ele>252.8</ele>
        <time>2021-11-15T15:16:51Z</time>
      </trkpt>
      <trkpt lat="46.48977" lon="5.379">
        <ele>251.8</ele>
        <time>2021-11-15T15:16:55Z</time>
      </trkpt>
      <trkpt lat="46.48962" lon="5.3785">
        <ele>250.8</ele>
        <time>2021-11-15T15:16:59Z</time>
      </trkpt>
      <trkpt lat="46.48941" lon="5.37778">
        <ele>249.8</ele>
        <time>2021-11-15T15:17:05Z</time>
      </trkpt>
      <trkpt lat="46.48927" lon="5.37732">
        <ele>249.2</ele>
        <time>2021-11-15T15:17:09Z</time>
      </trkpt>
      <trkpt lat="46.48908" lon="5.3767">
        <ele>248.8</ele>
        <time>2021-11-15T15:17:15Z</time>
      </trkpt>
      <trkpt lat="46.48903" lon="5.37653">
        <ele>248.8</ele>
        <time>2021-11-15T15:17:17Z</time>
      </trkpt>
      <trkpt lat="46.48901" lon="5.37645">
        <ele>248.8</ele>
        <time>2021-11-15T15:17:18Z</time>
      </trkpt>
      <trkpt lat="46.48898" lon="5.37637">
        <ele>248.8</ele>
        <time>2021-11-15T15:17:19Z</time>
      </trkpt>
      <trkpt lat="46.48896" lon="5.37631">
        <ele>248.8</ele>
        <time>2021-11-15T15:17:20Z</time>
      </trkpt>
      <trkpt lat="46.48889" lon="5.37624">
        <ele>249</ele>
        <time>2021-11-15T15:17:22Z</time>
      </trkpt>
      <trkpt lat="46.48871" lon="5.37628">
        <ele>249.2</ele>
        <time>2021-11-15T15:17:26Z</time>
      </trkpt>
      <trkpt lat="46.48864" lon="5.37624">
        <ele>249.4</ele>
        <time>2021-11-15T15:17:28Z</time>
      </trkpt>
      <trkpt lat="46.48861" lon="5.3762">
        <ele>249.4</ele>
        <time>2021-11-15T15:17:29Z</time>
      </trkpt>
      <trkpt lat="46.48859" lon="5.37613">
        <ele>249.4</ele>
        <time>2021-11-15T15:17:30Z</time>
      </trkpt>
      <trkpt lat="46.48856" lon="5.37598">
        <ele>249.8</ele>
        <time>2021-11-15T15:17:32Z</time>
      </trkpt>
      <trkpt lat="46.48855" lon="5.37589">
        <ele>249.8</ele>
        <time>2021-11-15T15:17:33Z</time>
      </trkpt>
      <trkpt lat="46.48853" lon="5.37581">
        <ele>250</ele>
        <time>2021-11-15T15:17:34Z</time>
      </trkpt>
      <trkpt lat="46.48849" lon="5.37565">
        <ele>250.6</ele>
        <time>2021-11-15T15:17:36Z</time>
      </trkpt>
      <trkpt lat="46.48844" lon="5.37549">
        <ele>251</ele>
        <time>2021-11-15T15:17:38Z</time>
      </trkpt>
      <trkpt lat="46.4884" lon="5.37542">
        <ele>251.2</ele>
        <time>2021-11-15T15:17:39Z</time>
      </trkpt>
      <trkpt lat="46.48826" lon="5.37515">
        <ele>252</ele>
        <time>2021-11-15T15:17:43Z</time>
      </trkpt>
      <trkpt lat="46.48817" lon="5.37505">
        <ele>252.4</ele>
        <time>2021-11-15T15:17:45Z</time>
      </trkpt>
      <trkpt lat="46.48801" lon="5.37483">
        <ele>253.4</ele>
        <time>2021-11-15T15:17:49Z</time>
      </trkpt>
      <trkpt lat="46.48788" lon="5.37465">
        <ele>254</ele>
        <time>2021-11-15T15:17:52Z</time>
      </trkpt>
      <trkpt lat="46.48757" lon="5.3742">
        <ele>254.4</ele>
        <time>2021-11-15T15:17:58Z</time>
      </trkpt>
      <trkpt lat="46.48716" lon="5.37358">
        <ele>253.2</ele>
        <time>2021-11-15T15:18:05Z</time>
      </trkpt>
      <trkpt lat="46.4868" lon="5.3731">
        <ele>252.4</ele>
        <time>2021-11-15T15:18:11Z</time>
      </trkpt>
      <trkpt lat="46.48669" lon="5.37294">
        <ele>252.2</ele>
        <time>2021-11-15T15:18:13Z</time>
      </trkpt>
    </trkseg>
  </trk>
</gpx>